     2.11           OBSERVATION DATA    G (GPS)             RINEX VERSION / TYPE
teqc 2010Oct21 OPUS Account 20111028 01:33:06UTC            PGM / RUN BY / DATE
M 1526                                                      MARKER NAME
3048                                                        MARKER NUMBER
CSMIDDLETON NGS                                             OBSERVER / AGENCY
4624K01583 TRIMBLE NETR5 4.41                               REC # / TYPE / VERS
60154430 TRM41249.00 NONE                                   ANT # / TYPE
  -752606.1669 -5569827.3871  3005098.9612                  APPROX POSITION XYZ
        2.0000        0.0000        0.0000                  ANTENNA: DELTA H/E/N
     1     1                                                WAVELENGTH FACT L1/2
     5    L1    L2    C1    P1    P2                        # / TYPES OF OBSERV
    15                                                      LEAP SECONDS
  2011     8    21     0     0    0.0000000     GPS         TIME OF FIRST OBS
                                                            END OF HEADER
 11  8 21  0  0  0.0000000  0  7G04G17G10G12G05G09G02
 111655239.26418  87004186.35056  21247270.742                    21247279.191
 120191220.50917  93655578.10716  22871633.352                    22871641.926
 110098596.31018  85791236.58056  20951044.359                    20951052.914
 114952203.20118  89573200.39417  21874675.109                    21874682.871
 118538591.09817  92367824.67917  22557134.492                    22557144.688
 121845419.84117  94944558.37954  23186425.359                    23186437.023
 108560164.08818  84592431.44256  20658291.117                    20658297.293
 11  8 21  0  0 30.0000000  0  7G04G17G10G12G05G09G02
 111726464.850 8  87059686.77446  21260824.930                    21260833.254
 120238616.728 7  93692510.219 6  22880652.313                    22880661.063
 110078924.138 8  85775907.63946  20947300.516                    20947309.258
 114879063.877 8  89516208.774 7  21860756.938                    21860764.836
 118440571.782 7  92291446.111 7  22538481.547                    22538492.566
 121915940.288 7  94999509.23644  23199845.406                    23199856.168
 108550146.714 8  84584625.70546  20656385.133                    20656390.781
 11  8 21  0  1  0.0000000  0  7G04G17G10G12G05G09G02
 111797893.589 8  87115345.50046  21274417.070                    21274425.813
 120286148.014 7  93729547.561 6  22889697.438                    22889705.695
 110059859.120 8  85761051.79646  20943672.539                    20943680.793
 114806269.928 8  89459486.268 7  21846905.063                    21846912.793
 118342761.969 7  92215230.800 7  22519868.719                    22519879.703
 121986738.075 7  95054676.20744  23213317.289                    23213328.984
 108540450.175 8  84577069.96746  20654539.922                    20654545.848
 11  8 21  0  1 30.0000000  0  7G04G17G10G12G05G09G02
 111869524.514 8  87171161.78446  21288048.195                    21288056.992
 120333815.865 7  93766691.316 6  22898767.781                    22898777.391
 110041403.231 8  85746670.60846  20940160.781                    20940168.945
 114733825.347 7  89403035.992 7  21833118.750                    21833127.008
 118245165.556 7  92139181.778 7  22501296.875                    22501307.535
 122057810.744 7  95110057.38444  23226842.352                    23226853.750
 108531075.322 8  84569764.89446  20652755.656                    20652761.934
 11  8 21  0  2  0.0000000  0  7G04G17G10G12G05G09G02
 111941354.657 8  87227133.30346  21301716.930                    21301725.348
 120381620.571 7  93803941.717 6  22907865.281                    22907873.715
 110023556.841 8  85732764.36646  20936764.734                    20936773.695
 114661731.893 8  89346859.328 7  21819399.914                    21819408.426
 118147785.198 7  92063301.115 7  22482766.227                    22482776.844
 122129154.263 7  95165649.59944  23240418.664                    23240429.805
 108522020.306 8  84562709.05646  20651032.844                    20651038.398
 11  8 21  0  2 30.0000000  0  7G04G17G10G12G05G09G02
 112013382.410 8  87283258.79046  21315422.891                    21315432.223
 120429563.180 7  93841299.572 6  22916988.469                    22916997.219
 110006321.816 8  85719334.51046  20933484.766                    20933493.352
 114589992.122 8  89290958.254 7  21805748.195                    21805756.625
 118050624.103 7  91987591.299 7  22464276.953                    22464287.277
 122200765.803 7  95221450.67644  23254045.695                    23254057.523
 108513284.521 8  84555901.97046  20649370.180                    20649376.141
 11  8 21  0  3  0.0000000  0  8G04G17G30G10G12G05G09G02
 112085604.934 8  87339536.06045  21329166.516                    21329175.270
 120477643.974 7  93878765.083 6  22926137.648                    22926146.676
 127976330.90416  99721876.42253  24353092.273                    24353101.672
 109989698.489 8  85706381.30546  20930321.383                    20930330.277
 114518608.477 8  89235334.680 7  21792164.375                    21792173.109
 117953685.042 7  91912054.496 7  22445829.523                    22445839.777
 122272641.601 7  95277457.64744  23267723.219                    23267735.066
 108504866.601 8  84549342.57346  20647768.102                    20647774.535
 11  8 21  0  3 30.0000000  0  9G04G17G30G10G12G05G25G09G02
 112158020.675 8  87395963.88745  21342947.086                    21342955.457
 120525864.248 7  93916339.265 6  22935313.875                    22935322.656
 127871318.072 6  99640048.26743  24333109.188                    24333118.973
 109973688.526 8  85693906.04346  20927274.906                    20927283.316
 114447584.024 8  89179990.986 7  21778648.484                    21778657.121
 117856971.381 7  91836693.322 7  22427425.375                    22427435.777
 129572230.46616 100965435.85916  24656785.266                    24656798.207
 122344778.586 7  95333668.14844  23281451.055                    23281462.441
 108496766.061 8  84543030.47746  20646226.781                    20646232.785
 11  8 21  0  4  0.0000000  0  9G04G17G30G10G12G05G25G09G02
 112230626.899 8  87452540.15645  21356763.625                    21356772.320
 120574223.947 7  93954022.122 7  22944516.289                    22944525.461
 127766482.303 6  99558358.12143  24313159.125                    24313168.973
 109958292.542 8  85681909.20946  20924345.242                    20924353.449
 114376920.650 7  89124928.661 7  21765201.875                    21765210.238
 117760485.857 7  91761509.938 7  22409064.758                    22409074.879
 129469030.159 6 100885020.092 6  24637146.727                    24637159.699
 122417173.214 7  95390079.40944  23295227.516                    23295238.832
 108488981.238 8  84536964.40346  20644745.375                    20644751.375
 11  8 21  0  4 30.0000000  0  9G04G17G30G10G12G05G25G09G02
 112303421.518 8  87509263.22545  21370616.289                    21370624.570
 120622723.748 7  93991814.121 7  22953745.094                    22953754.879
 127661826.782 6  99476808.44743  24293244.008                    24293254.531
 109943511.674 8  85670391.68646  20921532.086                    20921541.109
 114306621.053 8  89070149.790 7  21751824.531                    21751832.766
 117664231.270 7  91686506.493 7  22390748.398                    22390758.586
 129365935.596 6 100804686.723 6  24617528.477                    24617540.949
 122489822.045 7  95446688.75344  23309051.695                    23309063.645
 108481511.392 8  84531143.76046  20643323.984                    20643329.777
 11  8 21  0  5  0.0000000  0  9G04G17G30G10G12G05G25G09G02
 112376402.292 8  87566131.34345  21384503.859                    21384512.355
 120671364.299 7  94029715.806 7  22963001.734                    22963010.527
 127557354.012 6  99395401.14343  24273363.383                    24273373.387
 109929346.404 8  85659353.86746  20918837.172                    20918845.324
 114236687.830 7  89015656.388 7  21738516.813                    21738524.535
 117568210.245 7  91611685.057 7  22372476.102                    22372486.500
 129262948.987 6 100724437.496 6  24597930.461                    24597943.410
 122562721.349 7  95503493.27444  23322924.141                    23322935.652
 108474355.120 8  84525567.47046  20641962.211                    20641968.313
 11  8 21  0  5 30.0000000  0  9G04G17G30G10G12G05G25G09G02
 112449567.053 8  87623142.82345  21398426.945                    21398435.004
 120720146.368 7  94067727.752 7  22972284.563                    22972293.813
 127453066.987 6  99314138.64043  24253518.242                    24253528.051
 109915798.409 8  85648797.00846  20916258.641                    20916267.254
 114167123.414 7  88961450.384 7  21725278.922                    21725286.945
 117472426.180 7  91537048.254 7  22354248.508                    22354258.598
 129160073.160 6 100644274.567 6  24578354.578                    24578366.391
 122635867.791 7  95560490.36844  23336843.164                    23336855.332
 108467512.110 8  84520235.27246  20640659.773                    20640665.625
 11  8 21  0  6  0.0000000  0  9G04G17G30G10G12G05G25G09G02
 112522913.790 8  87680296.10345  21412383.930                    21412392.969
 120769070.316 7  94105850.279 6  22981594.180                    22981603.734
 127348968.541 6  99233023.01642  24233708.188                    24233718.930
 109902868.296 8  85638721.63046  20913797.969                    20913806.570
 114097930.384 8  88907533.761 7  21712111.977                    21712119.945
 117376882.118 7  91462598.476 7  22336067.133                    22336077.051
 129057310.544 6 100564199.894 6  24558798.594                    24558811.891
 122709258.507 7  95617677.79444  23350809.609                    23350821.078
 108460981.379 8  84515146.40546  20639417.375                    20639423.703
 11  8 21  0  6 30.0000000  0  9G04G17G30G10G12G05G25G09G02
 112596440.355 8  87737589.50945  21426375.828                    21426384.617
 120818137.025 7  94144084.044 7  22990931.672                    22990940.793
 127245061.251 6  99152056.40942  24213934.852                    24213946.121
 109890556.670 8  85629128.18746  20911455.203                    20911463.719
 114029111.390 7  88853908.584 7  21699015.984                    21699023.855
 117281580.920 7  91388337.923 7  22317932.180                    22317942.055
 128954663.505 6 100484215.262 6  24539265.836                    24539278.539
 122782889.620 7  95675052.55744  23364820.984                    23364832.797
 108454761.562 8  84510299.80946  20638233.719                    20638239.633
 11  8 21  0  7  0.0000000  0  9G04G17G30G10G12G05G25G09G02
 112670144.457 8  87795021.26845  21440400.914                    21440409.773
 120867347.226 7  94182429.595 6  23000295.531                    23000304.836
 127141347.807 6  99071240.84343  24194199.125                    24194209.363
 109878864.521 8  85620017.44946  20909230.086                    20909239.016
 113960668.651 8  88800576.602 7  21685991.859                    21685999.824
 117186525.404 7  91314268.823 7  22299843.445                    22299853.438
 128852134.377 6 100404322.532 5  24519754.602                    24519767.551
 122856757.965 7  95732612.15244  23378878.430                    23378890.234
 108448851.598 8  84505694.66146  20637108.977                    20637114.840
 11  8 21  0  7 30.0000000  0  9G04G17G30G10G12G05G25G09G02
 112744023.921 8  87852589.66445  21454460.086                    21454468.645
 120916701.298 7  94220887.251 6  23009688.586                    23009696.664
 127037831.164 6  98990578.61543  24174501.164                    24174511.102
 109867792.520 8  85611389.94346  20907123.047                    20907131.711
 113892604.366 7  88747539.515 7  21673039.539                    21673047.234
 117091718.466 7  91240393.423 7  22281802.383                    22281812.406
 128749725.788 6 100324523.767 6  24500266.977                    24500279.801
 122930859.937 7  95790353.82644  23392979.086                    23392990.984
 108443250.413 8  84501330.12446  20636043.023                    20636049.250
 11  8 21  0  8  0.0000000  0  9G04G17G30G10G12G05G25G09G02
 112818076.464 8  87910292.93245  21468551.813                    21468560.457
 120966199.768 7  94259457.462 6  23019107.148                    23019116.262
 126934514.092 6  98910071.89243  24154839.867                    24154850.133
 109857341.476 8  85603246.30146  20905134.320                    20905142.754
 113824921.427 8  88694799.572 7  21660160.680                    21660168.230
 116997163.140 7  91166714.104 7  22263808.297                    22263818.598
 128647440.216 6 100244820.816 6  24480802.648                    24480815.902
 123005192.285 7  95848275.00544  23407123.867                    23407135.973
 108437956.927 8  84497205.34146  20635036.070                    20635041.746
 11  8 21  0  8 30.0000000  0  9G04G17G30G10G12G05G25G09G02
 112892299.833 8  87968129.30245  21482675.789                    21482684.836
 121015843.213 7  94298140.642 7  23028553.539                    23028562.914
 126831399.144 6  98829722.70943  24135217.680                    24135228.730
 109847511.859 8  85595586.88346  20903263.703                    20903272.398
 113757622.095 7  88642358.549 7  21647353.383                    21647361.375
 116902862.182 7  91093232.975 7  22245863.422                    22245873.469
 128545280.011 6 100165215.561 6  24461362.273                    24461375.563
 123079751.461 7  95906372.90644  23421312.852                    23421323.973
 108432969.765 8  84493319.25446  20634086.922                    20634092.930
 11  8 21  0  9  0.0000000  0  9G04G17G30G10G12G05G25G09G02
 112966692.034 8  88026097.24745  21496832.219                    21496841.000
 121065632.737 7  94336937.663 6  23038028.797                    23038037.996
 126728489.311 6  98749533.27143  24115634.563                    24115645.383
 109838305.053 8  85588412.76746  20901512.063                    20901520.445
 113690709.018 7  88590218.494 7  21634620.516                    21634628.238
 116808818.813 7  91019952.554 7  22227967.539                    22227977.273
 128443247.935 6 100085710.132 6  24441946.180                    24441959.539
 123154534.337 7  95964645.14044  23435542.734                    23435555.078
 108428288.558 8  84489671.57946  20633196.125                    20633202.164
 11  8 21  0  9 30.0000000  0  9G04G17G30G10G12G05G25G09G02
 113041251.319 8  88084195.37345  21511020.383                    21511028.844
 121115568.675 7  94375848.751 6  23047531.289                    23047540.254
 126625787.455 6  98669505.90343  24096091.828                    24096101.738
 109829721.786 8  85581724.53746  20899878.523                    20899886.938
 113624185.098 8  88538381.681 7  21621961.133                    21621968.875
 116715036.332 7  90946875.427 7  22210121.742                    22210131.570
 128341346.469 6 100006306.462 6  24422554.922                    24422568.484
 123229537.266 7  96023088.81244  23449815.914                    23449827.859
 108423912.087 8  84486261.35946  20632362.969                    20632369.480
 11  8 21  0 10  0.0000000  0  9G04G17G30G10G12G05G25G09G02
 113115975.203 8  88142421.75545  21525240.281                    21525248.355
 121165651.594 7  94414874.348 6  23057061.531                    23057070.191
 126523296.244 6  98589642.66943  24076587.344                    24076598.563
 109821762.476 8  85575522.50446  20898363.641                    20898372.094
 113558052.602 7  88486849.873 7  21609376.750                    21609384.441
 116621517.186 7  90874003.493 7  22192324.977                    22192334.645
 128239578.076 7  99927006.486 6  24403189.391                    24403202.477
 123304757.045 7  96081701.48244  23464130.359                    23464141.859
 108419839.174 8  84483087.68146  20631588.172                    20631593.875
 11  8 21  0 10 30.0000000  0  9G04G17G30G10G12G05G25G09G02
 113190861.728 8  88200774.87345  21539490.094                    21539498.672
 121215881.838 7  94454014.777 6  23066620.344                    23066628.809
 126421018.534 6  98509945.82343  24057124.758                    24057135.508
 109814427.608 7  85569807.04746  20896967.977                    20896976.496
 113492313.262 7  88435624.415 7  21596866.609                    21596874.262
 116528264.562 7  90801339.241 7  22174579.594                    22174589.539
 128137945.352 7  99847812.216 6  24383849.133                    24383861.773
 123380189.986 7  96140480.23744  23478484.305                    23478496.793
 108416068.698 8  84480149.65946  20630870.648                    20630876.602
 11  8 21  0 11  0.0000000  0  9G04G17G30G10G12G05G25G09G02
 113265908.534 8  88259252.87545  21553771.086                    21553779.660
 121266260.368 7  94493270.722 6  23076206.906                    23076215.836
 126318957.074 6  98430417.45543  24037703.250                    24037713.695
 109807717.698 8  85564578.55946  20895691.227                    20895699.730
 113426969.990 7  88384707.585 7  21584432.359                    21584440.152
 116435281.195 7  90728884.785 7  22156886.023                    22156895.047
 128036450.652 7  99768725.453 6  24364535.242                    24364547.375
 123455832.727 6  96199422.48244  23492878.508                    23492891.273
 108412599.510 8  84477446.41746  20630210.516                    20630216.539
 11  8 21  0 11 30.0000000  0  9G04G17G30G10G12G05G25G09G02
 113341113.764 8  88317854.31945  21568082.469                    21568091.133
 121316787.602 7  94532642.567 6  23085822.141                    23085831.137
 126217114.631 6  98351059.75543  24018322.367                    24018332.777
 109801633.395 8  85559837.56046  20894533.586                    20894542.004
 113362024.964 8  88334101.073 7  21572073.500                    21572081.391
 116342570.005 7  90656642.407 7  22139242.875                    22139252.527
 127935096.634 7  99689748.337 6  24345248.492                    24345260.965
 123531681.788 7  96258525.49044  23507312.898                    23507325.281
 108409430.384 8  84474976.98746  20629607.438                    20629613.066
 11  8 21  0 12  0.0000000  0  9G04G17G30G10G12G05G25G09G02
 113416475.102 8  88376577.41345  21582423.102                    21582431.875
 121367464.389 7  94572130.950 6  23095465.406                    23095474.723
 126115494.262 6  98271875.08043  23998985.078                    23998995.973
 109796175.423 7  85555584.61446  20893494.852                    20893503.250
 113297481.052 7  88283807.120 7  21559791.445                    21559799.313
 116250134.163 7  90584614.589 7  22121653.266                    22121662.605
 127833885.950 7  99610882.907 6  24325988.906                    24326000.918
 123607734.088 7  96317786.87344  23521784.898                    23521797.613
 108406560.746 8  84472740.91946  20629061.188                    20629066.871
 11  8 21  0 12 30.0000000  0  9G04G17G30G10G12G05G25G09G02
 113491990.653 8  88435420.68445  21596793.508                    21596802.141
 121418291.321 7  94611736.316 6  23105137.172                    23105146.703
 126014098.542 6  98192865.46843  23979690.602                    23979700.617
 109791343.956 8  85551819.84246  20892575.617                    20892584.023
 113233340.408 7  88233827.407 7  21547585.695                    21547593.980
 116157976.303 7  90512803.388 7  22104115.945                    22104125.648
 127732821.078 7  99532131.079 6  24306756.352                    24306768.629
 123683986.045 7  96377203.84244  23536295.492                    23536308.219
 108403989.012 8  84470736.97846  20628571.844                    20628577.324
 11  8 21  0 13  0.0000000  0  9G04G17G30G10G12G05G25G09G02
 113567658.513 8  88494382.63045  21611192.695                    21611201.512
 121469269.157 7  94651459.251 6  23114838.547                    23114847.297
 125912930.537 6  98114033.28643  23960438.695                    23960449.238
 109787139.826 8  85548543.92046  20891775.461                    20891783.973
 113169605.919 8  88184164.186 7  21535457.664                    21535465.551
 116066099.457 7  90441211.156 7  22086632.445                    22086642.316
 127631904.726 7  99453495.007 6  24287552.289                    24287565.027
 123760434.298 7  96436773.75344  23550842.945                    23550855.461
 108401714.614 8  84468964.73146  20628138.891                    20628144.934
 11  8 21  0 13 30.0000000  0  9G04G17G30G10G12G05G25G09G02
 113643476.507 8  88553461.55145  21625619.906                    21625629.344
 121520397.989 7  94691299.881 6  23124567.844                    23124576.891
 125811993.027 6  98035380.73143  23941230.703                    23941241.082
 109783563.379 7  85545757.09746  20891094.906                    20891103.152
 113106279.598 7  88134819.020 7  21523407.063                    21523415.055
 115974506.450 7  90369840.088 7  22069202.500                    22069211.852
 127531139.375 7  99374976.584 6  24268377.516                    24268390.574
 123837075.465 7  96496493.97444  23565427.711                    23565440.363
 108399736.110 8  84467423.04846  20627762.414                    20627768.520
 11  8 21  0 14  0.0000000  0  9G04G17G30G10G12G05G25G09G02
 113719442.820 8  88612656.05545  21640076.227                    21640084.859
 121571678.779 7  94731258.876 6  23134325.867                    23134335.309
 125711288.803 6  97956909.93543  23922067.602                    23922077.453
 109780615.532 8  85543460.09546  20890533.891                    20890542.496
 113043364.126 8  88085794.002 7  21511434.500                    21511442.418
 115883200.624 7  90298692.806 7  22051827.563                    22051837.266
 127430527.692 6  99296577.920 6  24249231.602                    24249244.156
 123913906.309 7  96556362.00944  23580047.641                    23580060.117
 108398052.644 8  84466111.26446  20627442.313                    20627448.355
 11  8 21  0 14 30.0000000  0  9G04G17G30G10G12G05G25G09G02
 113795554.934 8  88671964.18145  21654559.813                    21654568.695
 121623111.893 7  94771336.578 6  23144113.664                    23144123.000
 125610820.684 6  97878623.13543  23902948.906                    23902958.883
 109778296.328 7  85541652.93746  20890092.188                    20890100.840
 112980861.467 8  88037090.647 7  21499540.438                    21499548.941
 115792184.546 7  90227771.298 7  22034508.000                    22034517.637
 127330072.002 6  99218300.803 6  24230114.656                    24230127.574
 123990923.052 7  96616374.90844  23594704.211                    23594716.223
 108396662.701 8  84465028.20346  20627177.625                    20627183.125
 11  8 21  0 15  0.0000000  0  9G04G17G30G10G12G05G25G09G02
 113871811.085 8  88731384.54845  21669071.000                    21669080.035
 121674698.168 7  94811533.642 6  23153930.234                    23153939.234
 125510591.399 6  97800522.45643  23883875.602                    23883886.105
 109776605.831 8  85540335.69446  20889770.852                    20889779.410
 112918774.242 7  87988711.021 7  21487725.750                    21487733.707
 115701461.148 7  90157077.849 7  22017243.664                    22017253.254
 127229775.124 6  99140147.466 6  24211029.984                    24211042.023
 124068122.518 7  96676530.17144  23609394.430                    23609407.238
 108395565.354 8  84464173.14046  20626968.789                    20626974.590
 11  8 21  0 15 30.0000000  0  9G04G17G30G10G12G05G25G09G02
 113948209.037 8  88790915.41545  21683608.570                    21683617.746
 121726438.117 7  94851850.453 6  23163775.352                    23163785.289
 125410603.841 6  97722610.12143  23864849.016                    23864859.602
 109775544.328 8  85539508.58146  20889569.016                    20889577.184
 112857104.864 8  87940656.980 7  21475990.516                    21475998.793
 115611033.045 7  90086614.511 7  22000035.898                    22000045.254
 127129639.420 6  99062119.697 6  24191973.969                    24191986.242
 124145501.171 7  96736825.07044  23624119.680                    23624132.492
 108394759.258 8  84463545.03146  20626815.242                    20626821.000
 11  8 21  0 16  0.0000000  0  9G04G17G30G10G12G05G25G09G02
 114024747.127 8  88850555.48445  21698173.789                    21698182.668
 121778332.470 7  94892287.580 6  23173651.445                    23173660.418
 125310861.001 6  97644888.46343  23845868.055                    23845878.594
 109775112.363 8  85539172.00446  20889486.766                    20889495.012
 112795855.624 8  87892930.331 7  21464335.547                    21464342.848
 115520903.525 7  90016383.835 7  21982884.406                    21982894.313
 127029667.802 6  98984219.818 6  24172950.031                    24172962.480
 124223055.646 7  96797256.98244  23638877.953                    23638890.023
 108394243.869 8  84463143.46046  20626717.297                    20626723.164
 11  8 21  0 16 30.0000000  0  9G04G17G30G10G12G05G25G09G02
 114101423.301 8  88910303.16445  21712764.438                    21712773.285
 121830381.659 7  94932845.369 6  23183555.852                    23183565.016
 125211365.621 6  97567359.68943  23826934.930                    23826945.703
 109775310.626 7  85539326.53246  20889524.242                    20889532.418
 112735028.988 8  87845532.980 7  21452760.516                    21452768.461
 115431075.603 7  89946388.159 7  21965790.727                    21965800.348
 126929862.840 7  98906449.797 6  24153958.453                    24153970.457
 124300782.732 7  96857823.37644  23653668.836                    23653681.371
 108394018.077 8  84462967.53746  20626674.336                    20626680.340
 11  8 21  0 17  0.0000000  0  9G04G17G30G10G12G05G25G09G02
 114178235.059 8  88970156.49145  21727381.398                    21727390.371
 121882586.225 7  94973524.192 6  23193490.117                    23193499.344
 125112120.293 6  97490025.74143  23808048.914                    23808059.523
 109776138.713 7  85539971.81646  20889681.563                    20889689.930
 112674626.851 8  87798466.409 7  21441266.273                    21441273.855
 115341551.834 7  89876629.487 7  21948754.898                    21948764.336
 126830226.761 7  98828811.341 6  24134998.117                    24135009.660
 124378678.526 7  96918521.26944  23668492.008                    23668504.520
 108394080.028 8  84463015.84146  20626686.000                    20626691.949
 11  8 21  0 17 30.0000000  0  9G04G17G30G10G12G05G25G09G02
 114255180.920 8  89030114.32045  21742023.781                    21742032.648
 121934946.797 7  95014324.597 6  23203454.320                    23203463.645
 125013128.210 7  97412889.15343  23789211.875                    23789222.035
 109777597.400 8  85541108.48146  20889959.547                    20889967.609
 112614652.020 8  87751732.802 7  21429853.336                    21429861.156
 115252335.220 7  89807110.154 7  21931776.922                    21931787.207
 126730762.514 7  98751306.819 6  24116070.367                    24116082.555
 124456740.191 6  96979348.38643  23683347.070                    23683359.543
 108394429.302 8  84463288.03446  20626752.695                    20626758.426
 11  8 21  0 18  0.0000000  0  9G04G17G30G10G12G05G25G09G02
 114332258.865 8  89090175.06945  21756691.391                    21756699.938
 121987464.079 7  95055247.121 6  23213447.648                    23213457.359
 124914392.188 7  97335952.06644  23770422.859                    23770432.770
 109779686.710 7  85542736.53746  20890357.336                    20890365.059
 112555106.833 8  87705333.978 7  21418522.211                    21418530.199
 115163428.610 7  89737832.383 7  21914858.922                    21914868.367
 126631472.744 7  98673938.253 6  24097175.758                    24097188.195
 124534964.162 7  97040302.00544  23698232.766                    23698245.203
 108395064.580 8  84463783.09346  20626873.297                    20626878.742
 11  8 21  0 18 30.0000000  0  9G04G17G30G10G12G05G25G09G02
 114409466.929 8  89150337.20645  21771383.555                    21771392.246
 122040138.375 7  95096292.004 6  23223471.188                    23223480.797
 124815915.026 7  97259216.70744  23751682.820                    23751693.680
 109782406.902 7  85544856.18446  20890874.602                    20890882.672
 112495993.909 8  87659271.986 7  21407273.711                    21407281.199
 115074835.121 7  89668798.591 7  21898000.109                    21898009.344
 126532360.011 7  98596707.668 6  24078315.258                    24078328.254
 124613347.064 6  97101379.45044  23713148.883                    23713160.926
 108395984.563 8  84464499.99346  20627048.289                    20627054.012
 11  8 21  0 19  0.0000000  0  9G04G17G30G10G12G05G25G09G02
 114486802.897 8  89210599.02145  21786099.828                    21786108.820
 122092970.309 7  95137459.705 6  23233524.523                    23233534.641
 124717699.350 7  97182685.08144  23732993.477                    23733003.859
 109785757.800 7  85547467.28546  20891511.945                    20891520.445
 112437314.833 8  87613548.053 7  21396107.078                    21396114.953
 114986557.209 7  89600010.706 7  21881201.266                    21881210.781
 126433426.690 7  98519616.831 6  24059489.242                    24059501.469
 124691885.564 7  97162578.13444  23728094.234                    23728106.516
 108397188.042 8  84465437.80346  20627277.539                    20627283.055
 11  8 21  0 19 30.0000000  0  9G04G17G30G10G12G05G25G09G02
 114564264.799 8  89270958.95845  21800840.305                    21800848.980
 122145960.429 7  95178750.656 6  23243609.016                    23243618.035
 124619748.083 7  97106359.51943  23714354.195                    23714363.988
 109789739.639 8  85550570.03046  20892269.789                    20892277.805
 112379072.196 8  87568164.195 7  21385023.781                    21385031.723
 114898597.770 7  89531470.990 7  21864462.953                    21864472.527
 126334675.465 7  98442667.913 6  24040697.656                    24040709.203
 124770576.177 7  97223895.34343  23743068.148                    23743080.465
 108398673.816 8  84466595.57146  20627560.344                    20627565.941
 11  8 21  0 20  0.0000000  0  9G04G17G30G10G12G05G25G09G02
 114641851.050 8  89331415.79245  21815604.742                    21815613.191
 122199109.603 7  95220165.552 6  23253723.188                    23253732.430
 124522063.984 7  97030242.10144  23695765.047                    23695774.488
 109794352.304 7  85554164.32946  20893147.453                    20893156.059
 112321268.217 8  87523122.155 7  21374024.203                    21374031.992
 114810959.767 7  89463181.734 7  21847786.250                    21847795.766
 126236109.036 6  98365862.996 6  24021940.461                    24021953.027
 124849415.792 6  97285328.67543  23758070.367                    23758083.797
 108400441.091 8  84467972.70146  20627896.516                    20627902.559
 11  8 21  0 20 30.0000000  0  9G04G17G30G10G12G05G25G09G02
 114719559.066 7  89391967.50945  21830391.820                    21830400.535
 122252418.199 7  95261704.681 6  23263867.031                    23263876.059
 124424649.841 7  96954335.02643  23677227.570                    23677237.379
 109799595.817 8  85558250.19646  20894145.398                    20894153.477
 112263905.022 8  87478423.576 7  21363108.516                    21363116.113
 114723645.889 7  89395145.030 7  21831170.344                    21831180.086
 126137729.790 7  98289203.947 6  24003219.461                    24003232.195
 124928400.615 6  97346875.12743  23773101.148                    23773114.215
 108402488.111 8  84469567.81446  20628286.031                    20628291.711
 11  8 21  0 21  0.0000000  0  9G04G17G30G10G12G05G25G09G02
 114797387.626 8  89452613.13745  21845202.000                    21845210.828
 122305886.786 7  95303368.485 6  23274042.063                    23274051.375
 124327508.785 6  96878640.79743  23658742.383                    23658751.770
 109805470.753 8  85562828.07546  20895263.492                    20895271.453
 112206985.228 7  87434070.513 7  21352276.602                    21352284.570
 114636659.174 7  89327363.272 7  21814617.664                    21814626.961
 126039540.771 7  98212693.114 6  23984534.742                    23984547.563
 125007527.438 7  97408532.27243  23788159.086                    23788171.680
 108404814.297 8  84471380.45746  20628728.547                    20628734.473
 11  8 21  0 21 30.0000000  0  9G04G17G30G10G12G05G25G09G02
 114875334.501 8  89513350.96845  21860034.953                    21860043.523
 122359515.832 7  95345157.311 6  23284246.875                    23284256.695
 124230643.662 7  96803161.56143  23640308.445                    23640319.543
 109811976.773 8  85567897.70646  20896501.508                    20896509.188
 112150511.134 8  87390064.738 7  21341530.078                    21341537.777
 114550002.378 8  89259838.600 7  21798127.383                    21798136.379
 125941544.544 7  98136332.505 6  23965886.055                    23965898.813
 125086793.015 7  97470297.52443  23803242.219                    23803255.406
 108407418.269 8  84473409.56246  20629224.320                    20629229.879
 11  8 21  0 22  0.0000000  0  9G04G17G30G10G12G05G25G09G02
 114953397.801 8  89574179.53045  21874889.969                    21874898.531
 122413305.886 7  95387071.571 6  23294482.922                    23294491.828
 124134057.255 7  96727899.51643  23621929.055                    23621940.090
 109819113.871 8  85573459.08446  20897859.742                    20897868.207
 112094484.968 8  87346408.010 7  21330868.750                    21330876.586
 114463678.753 8  89192573.541 7  21781700.336                    21781709.414
 125843743.814 7  98060124.212 6  23947276.188                    23947288.105
 125166194.081 6  97532168.34243  23818352.516                    23818364.133
 108410299.088 8  84475654.37946  20629772.023                    20629777.797
 11  8 21  0 22 30.0000000  0  9G04G17G30G10G12G05G25G09G02
 115031575.596 8  89635097.29145  21889766.570                    21889775.148
 122467257.842 7  95429112.020 6  23304749.766                    23304759.090
 124037752.395 7  96652856.82243  23603603.250                    23603613.582
 109826881.898 8  85579512.10146  20899337.820                    20899346.344
 112038908.743 7  87303101.888 7  21320292.672                    21320300.266
 114377690.391 8  89125569.714 7  21765337.109                    21765346.453
 125746141.000 7  97984070.140 6  23928703.031                    23928714.926
 125245726.814 6  97594141.77043  23833486.883                    23833499.367
 108413455.392 8  84478113.86546  20630373.039                    20630379.270
 11  8 21  0 23  0.0000000  0  9G04G17G30G10G12G05G25G09G02
 115109866.049 8  89696102.82445  21904665.094                    21904673.320
 122521371.746 7  95471278.679 6  23315047.063                    23315056.223
 123941731.692 7  96578035.54643  23585330.555                    23585340.965
 109835280.518 8  85586056.49046  20900935.859                    20900944.355
 111983784.527 8  87260147.983 7  21309802.961                    21309810.129
 114292040.530 8  89058829.658 7  21749038.367                    21749048.117
 125648738.611 7  97908172.211 6  23910167.578                    23910179.586
 125325387.914 7  97656215.20443  23848646.000                    23848658.742
 108416885.711 8  84480786.86146  20631025.703                    20631031.363
 11  8 21  0 23 30.0000000  0  9G04G17G30G10G12G05G25G09G02
 115188267.087 8  89757194.53845  21919584.414                    21919592.465
 122575648.389 7  95513572.128 6  23325375.836                    23325385.219
 123845998.078 7  96503437.94743  23567113.664                    23567123.559
 109844309.723 8  85593092.25146  20902653.992                    20902662.508
 111929114.689 8  87217548.137 7  21299399.750                    21299407.090
 114206731.440 8  88992355.140 7  21732804.336                    21732813.934
 125551539.505 7  97832432.688 6  23891671.008                    23891682.875
 125405174.302 6  97718386.28144  23863828.750                    23863842.473
 108420589.285 8  84483672.78046  20631730.367                    20631736.371
 11  8 21  0 24  0.0000000  0  9G04G17G30G10G12G05G25G09G02
 115266776.899 8  89818370.99745  21934524.000                    21934532.297
 122630088.254 7  95555992.756 6  23335735.375                    23335744.828
 123750554.330 7  96429066.22243  23548950.969                    23548960.719
 109853969.286 8  85600619.19446  20904492.352                    20904500.547
 111874901.450 8  87175304.082 7  21289082.734                    21289090.754
 114121766.101 8  88926148.480 7  21716636.625                    21716645.188
 125454546.168 7  97756853.464 6  23873213.898                    23873225.703
 125485082.494 7  97780652.26444  23879035.273                    23879048.742
 108424564.599 8  84486770.43946  20632486.750                    20632492.531
 11  8 21  0 24 30.0000000  0  9G04G17G30G10G12G05G25G09G02
 115345393.616 8  89879630.76445  21949484.180                    21949492.832
 122684691.973 7  95598541.064 6  23346125.953                    23346135.543
 123655403.380 7  96354922.66143  23530844.625                    23530854.090
 109864259.066 8  85608637.21546  20906450.445                    20906458.852
 111821147.167 8  87133417.666 7  21278854.016                    21278861.484
 114037147.523 8  88860212.015 7  21700533.414                    21700542.676
 125357761.309 7  97681436.711 6  23854796.570                    23854808.121
 125565109.039 7  97843010.47544  23894264.234                    23894277.172
 108428810.587 8  84490079.00446  20633294.695                    20633300.656
 11  8 21  0 25  0.0000000  0  9G04G17G30G10G12G05G25G09G02
 115424115.636 8  89940972.57645  21964464.438                    21964473.637
 122739459.797 7  95641217.288 6  23356547.461                    23356557.418
 123560548.258 7  96281009.62344  23512794.336                    23512804.223
 109875178.865 8  85617146.16946  20908528.375                    20908536.539
 111767853.940 8  87091890.522 7  21268712.750                    21268720.660
 113952878.314 7  88794547.804 7  21684497.828                    21684506.938
 125261187.837 7  97606184.699 6  23836419.117                    23836430.922
 125645250.900 7  97905458.53843  23909514.508                    23909527.461
 108433326.320 8  84493597.75546  20634154.141                    20634160.023
 11  8 21  0 25 30.0000000  0  9G04G17G30G10G12G05G25G09G02
 115502941.018 8  90002394.93945  21979464.523                    21979473.465
 122794392.687 7  95684022.080 6  23367001.352                    23367011.066
 123465991.629 7  96207329.17043  23494800.484                    23494810.668
 109886728.503 8  85626145.89946  20910726.344                    20910734.367
 111715023.613 8  87050724.067 7  21258659.063                    21258666.742
 113868961.215 8  88729157.946 7  21668528.969                    21668538.004
 125164828.311 7  97531099.393 6  23818082.289                    23818094.387
 125725504.348 7  97967993.54544  23924786.547                    23924799.594
 108438110.501 8  84497325.68246  20635064.602                    20635070.680
 11  8 21  0 26  0.0000000  0  9G04G17G30G10G12G05G25G09G02
 115581867.846 8  90063896.33445  21994483.703                    21994492.758
 122849490.644 7  95726955.507 6  23377486.477                    23377495.781
 123371736.469 7  96133883.65444  23476864.695                    23476874.398
 109898907.790 8  85635636.26546  20913043.828                    20913052.234
 111662658.586 7  87009920.197 7  21248694.742                    21248702.023
 113785399.295 8  88664044.854 7  21652627.570                    21652636.309
 125068685.353 7  97456182.849 6  23799786.664                    23799799.277
 125805866.277 7  98030613.08343  23940078.875                    23940092.055
 108443161.916 8  84501261.84546  20636025.766                    20636031.305
 11  8 21  0 26 30.0000000  0  9G04G17G30G10G12G05G25G09G02
 115660894.315 8  90125475.38545  22009522.164                    22009531.035
 122904754.451 7  95770018.199 6  23388002.758                    23388012.297
 123277785.478 7  96060675.15544  23458986.648                    23458995.418
 109911716.153 8  85645616.81146  20915481.234                    20915489.375
 111610761.031 8  86969480.584 7  21238818.734                    21238826.352
 113702194.917 8  88599210.357 7  21636794.031                    21636803.023
 124972761.635 7  97381437.168 6  23781533.344                    23781545.055
 125886333.261 7  98093314.49944  23955391.305                    23955404.293
 108448479.218 8  84505405.17846  20637038.016                    20637043.613
 11  8 21  0 27  0.0000000  0  9G04G17G30G10G12G05G25G09G02
 115740018.593 8  90187130.64745  22024578.797                    22024587.555
 122960184.629 7  95813210.516 6  23398550.570                    23398560.438
 123184141.416 7  95987705.81444  23441166.313                    23441175.914
 109925153.465 8  85656087.46546  20918037.992                    20918045.938
 111559332.944 8  86929406.790 7  21229032.297                    21229040.023
 113619350.913 8  88534656.678 7  21621029.500                    21621038.355
 124877059.760 7  97306864.349 6  23763321.914                    23763334.031
 125966902.044 7  98156095.24244  23970722.820                    23970736.480
 108454061.284 8  84509754.82646  20638099.961                    20638105.523
 11  8 21  0 27 30.0000000  0  9G04G17G30G10G12G05G25G09G02
 115819238.864 7  90248860.70145  22039654.203                    22039663.078
 123015781.798 7  95856532.974 6  23409130.195                    23409140.129
 123090807.183 6  95914977.93144  23423404.930                    23423414.605
 109939219.148 8  85667047.76346  20920714.672                    20920722.668
 111508376.755 8  86889700.710 7  21219335.461                    21219343.180
 113536870.066 7  88470385.979 7  21605333.578                    21605342.395
 124781582.474 7  97232466.545 6  23745152.445                    23745165.180
 126047569.323 6  98218952.74944  23986074.039                    23986086.438
 108459907.113 8  84514310.00346  20639212.164                    20639218.168
 11  8 21  0 28  0.0000000  0  9G04G17G30G10G12G05G25G09G02
 115898553.405 7  90310664.22445  22054747.156                    22054755.914
 123071546.402 7  95899985.889 6  23419742.422                    23419751.535
 122997785.757 6  95842493.82744  23405704.070                    23405713.652
 109953913.208 8  85678497.70346  20923510.867                    20923519.012
 111457894.194 8  86850363.686 7  21209729.078                    21209736.707
 113454755.275 7  88406400.526 7  21589707.984                    21589716.758
 124686332.507 7  97158245.883 6  23727027.180                    23727039.602
 126128331.660 6  98281884.30144  24001442.188                    24001455.910
 108466015.556 8  84519069.81046  20640374.641                    20640380.609
 11  8 21  0 28 30.0000000  0  9G04G17G30G10G12G05G25G09G02
 115977960.303 7  90372539.71445  22069857.781                    22069866.672
 123127478.507 7  95943569.298 6  23430386.273                    23430395.316
 122905079.768 7  95770255.48444  23388061.672                    23388072.191
 109969235.004 8  85690436.79446  20926426.586                    20926434.145
 111407887.161 8  86811397.209 7  21200213.156                    21200220.754
 113373009.008 8  88342702.216 7  21574151.867                    21574160.848
 124591312.321 7  97084204.309 6  23708945.563                    23708957.137
 126209185.886 7  98344887.43444  24016828.781                    24016842.148
 108472385.061 8  84524033.06146  20641586.609                    20641592.484
 11  8 21  0 29  0.0000000  0  9G04G17G30G10G12G05G25G09G02
 116057458.063 7  90434486.01345  22084985.531                    22084994.582
 123183579.088 7  95987283.999 6  23441061.375                    23441070.523
 122812692.099 6  95698265.20844  23370480.938                    23370491.285
 109985183.904 8  85702864.53346  20929461.523                    20929469.840
 111358358.033 8  86772803.118 7  21190788.250                    21190795.656
 113291634.030 7  88279293.236 7  21558666.828                    21558675.629
 124496524.818 7  97010344.013 6  23690908.438                    23690919.637
 126290128.703 7  98407959.60744  24032231.539                    24032244.551
 108479014.654 8  84529198.97646  20642848.641                    20642854.160
 11  8 21  0 29 30.0000000  0  9G04G17G30G10G12G05G25G09G02
 116137044.632 7  90496501.50445  22100130.664                    22100139.473
 123239848.644 7  96031130.385 6  23451768.977                    23451778.602
 122720625.547 7  95626525.16344  23352961.141                    23352971.508
 110001759.355 8  85715780.48046  20932615.734                    20932624.133
 111309308.906 8  86734583.043 7  21181454.320                    21181461.785
 113210632.864 7  88216175.515 7  21543252.695                    21543261.352
 124401972.498 7  96936667.013 7  23672914.641                    23672926.703
 126371156.727 7  98471098.20843  24047650.766                    24047664.082
 108485903.165 8  84534566.64546  20644158.945                    20644164.898
 11  8 21  0 30  0.0000000  0  9G04G17G30G10G12G05G25G09G02
 116216718.319 7  90558584.88345  22115292.016                    22115300.813
 123296287.357 7  96075108.579 6  23462509.344                    23462518.938
 122628882.975 6  95555037.56644  23335503.578                    23335513.566
 110018960.897 8  85729184.28946  20935888.766                    20935897.160
 111260741.687 8  86696738.489 7  21172212.273                    21172219.793
 113130008.286 7  88153351.265 7  21527909.883                    21527918.809
 124307658.133 7  96863175.416 7  23654966.953                    23654979.770
 126452266.766 7  98534300.73843  24063085.859                    24063098.793
 108493049.157 8  84540134.95846  20645518.961                    20645524.777
 11  8 21  0 30 30.0000000  0  9G04G17G30G10G12G05G25G09G02
 116296477.216 7  90620734.66145  22130469.789                    22130478.363
 123352896.136 7  96119219.295 6  23473281.445                    23473291.094
 122537467.016 6  95483804.46044  23318107.438                    23318117.426
 110036788.216 8  85743075.73446  20939281.461                    20939289.691
 111212658.229 8  86659270.880 7  21163062.234                    21163069.543
 113049762.854 7  88090822.434 7  21512640.008                    21512648.199
 124213584.226 7  96789871.191 6  23637065.820                    23637078.195
 126533455.303 6  98597564.40643  24078535.133                    24078548.691
 108500451.622 8  84545903.12146  20646927.781                    20646933.480
 11  8 21  0 31  0.0000000  0  9G04G17G30G10G12G05G25G09G02
 116376319.966 7  90682949.76445  22145663.195                    22145671.977
 123409675.124 7  96163462.609 6  23484086.055                    23484096.008
 122446380.746 7  95412828.22644  23300774.313                    23300783.875
 110055240.803 8  85757454.39646  20942792.813                    20942800.672
 111165060.841 8  86622182.007 7  21154004.664                    21154012.020
 112969899.429 7  88028591.273 7  21497442.289                    21497450.754
 124119753.747 7  96716756.631 6  23619210.352                    23619222.199
 126614719.159 6  98660886.79943  24093999.141                    24094012.887
 108508109.465 8  84551870.28146  20648384.898                    20648390.582
 11  8 21  0 31 30.0000000  0  9G04G17G30G10G12G05G25G09G02
 116456244.563 7  90745228.64945  22160872.523                    22160881.297
 123466624.716 7  96207838.882 6  23494923.266                    23494932.898
 122355626.709 7  95342110.87644  23283504.203                    23283513.797
 110074317.966 8  85772319.75246  20946423.227                    20946431.285
 111117951.288 8  86585473.269 7  21145040.188                    21145047.434
 112890420.748 7  87966659.920 7  21482318.063                    21482326.703
 124026169.034 7  96643833.578 6  23601402.578                    23601413.879
 126696055.139 6  98724265.30143  24109477.492                    24109490.883
 108516021.217 8  84558035.30746  20649890.625                    20649896.297
 11  8 21  0 32  0.0000000  0  9G04G17G30G10G12G05G25G09G02
 116536249.276 8  90807569.95045  22176097.398                    22176105.734
 123523745.458 7  96252348.530 6  23505793.719                    23505802.883
 122265207.894 7  95271654.74544  23266297.984                    23266307.203
 110094019.089 8  85787671.29046  20950172.086                    20950179.863
 111071331.698 8  86549146.319 7  21136168.680                    21136176.160
 112811329.321 7  87905030.310 7  21467267.438                    21467275.598
 123932833.010 7  96571104.310 6  23583640.648                    23583652.277
 126777459.962 6  98787697.45743  24124968.141                    24124981.816
 108524185.926 8  84564397.43346  20651444.242                    20651449.930
 11  8 21  0 32 30.0000000  0  9G04G17G30G10G12G05G25G09G02
 116616332.608 7  90869972.53245  22191335.672                    22191344.563
 123581037.937 6  96296991.987 6  23516695.906                    23516705.363
 122175127.169 7  95201462.05244  23249156.406                    23249165.535
 110114343.438 8  85803508.46146  20954039.641                    20954048.063
 111025204.076 8  86513202.711 7  21127390.852                    21127398.496
 112732628.038 8  87843704.710 7  21452291.086                    21452299.691
 123839748.339 7  96498570.888 7  23565927.703                    23565939.078
 126858930.025 6  98851180.45643  24140471.242                    24140485.316
 108532602.264 8  84570955.63946  20653045.672                    20653051.223
 11  8 21  0 33  0.0000000  0  9G04G17G30G10G12G05G25G09G02
 116696492.630 7  90932434.85145  22206589.906                    22206598.770
 123638502.644 7  96341769.646 6  23527630.773                    23527640.426
 122085387.037 7  95131534.75844  23232079.453                    23232089.047
 110135290.165 8  85819830.59946  20958025.609                    20958034.012
 110979570.243 8  86477643.883 7  21118707.266                    21118714.707
 112654318.673 8  87782684.499 7  21437389.109                    21437397.574
 123746917.623 7  96426235.338 6  23548261.773                    23548273.523
 126940462.317 7  98914711.90443  24155987.352                    24156000.559
 108541268.847 8  84577708.85246  20654695.078                    20654700.543
 11  8 21  0 33 30.0000000  0  9G04G17G30G10G12G05G25G09G02
 116776727.798 7  90994955.73845  22221858.523                    22221867.176
 123696139.727 6  96386681.637 6  23538598.328                    23538607.684
 121995990.468 7  95061875.15244  23215067.867                    23215077.469
 110156858.580 8  85836637.15846  20962129.602                    20962137.773
 110934432.155 8  86442471.344 7  21110117.320                    21110125.020
 112576404.289 8  87721972.075 7  21422562.578                    21422571.023
 123654343.484 7  96354099.733 6  23530644.977                    23530656.922
 127022053.555 7  98978289.37543  24171513.172                    24171526.305
 108550184.595 8  84584656.20246  20656391.688                    20656397.160
 11  8 21  0 34  0.0000000  0  9G04G17G30G10G12G05G25G09G02
 116857036.213 7  91057533.68145  22237140.945                    22237149.258
 123753949.804 6  96431728.439 6  23549599.297                    23549608.711
 121906940.143 7  94992485.34244  23198121.891                    23198131.258
 110179047.821 8  85853927.49046  20966352.500                    20966360.668
 110889791.478 8  86407686.394 7  21101622.273                    21101630.035
 112498887.574 7  87661569.515 7  21407811.539                    21407820.180
 123562028.631 7  96282166.163 6  23513078.813                    23513089.598
 127103700.390 6  99041910.08643  24187049.641                    24187063.855
 108559348.144 8  84591796.64946  20658135.406                    20658140.855
 11  8 21  0 34 30.0000000  0  9G04G17G30G10G12G05G25G09G02
 116937416.372 7  91120167.52145  22252436.461                    22252445.145
 123811933.479 7  96476910.488 6  23560633.813                    23560643.500
 121818238.991 7  94923367.61644  23181242.477                    23181251.820
 110201857.207 8  85871701.04646  20970693.164                    20970701.188
 110845650.512 8  86373290.834 7  21093223.102                    21093230.461
 112421771.114 8  87601478.845 7  21393136.281                    21393144.957
 123469975.853 7  96210436.793 6  23495561.164                    23495572.902
 127185399.783 6  99105571.74643  24202597.055                    24202611.203
 108568758.718 8  84599129.58446  20659926.125                    20659932.102
 11  8 21  0 35  0.0000000  0  9G04G17G30G10G12G05G25G09G02
 117017866.860 7  91182856.15945  22267745.672                    22267755.066
 123870091.049 7  96522228.049 6  23571701.391                    23571710.609
 121729889.952 7  94854524.26044  23164430.195                    23164439.477
 110225286.528 8  85889957.67246  20975151.422                    20975159.563
 110802011.002 8  86339286.010 7  21084918.992                    21084926.289
 112345057.381 8  87541701.975 7  21378538.594                    21378547.160
 123378187.950 7  96138913.827 6  23478094.453                    23478106.438
 127267148.411 6  99169271.82143  24218153.625                    24218167.473
 108578415.348 8  84606654.24146  20661763.469                    20661769.391
 11  8 21  0 35 30.0000000  0  9G04G17G30G10G12G05G25G09G02
 117098385.626 7  91245598.02145  22283067.547                    22283076.840
 123928422.650 6  96567681.229 6  23582800.352                    23582810.262
 121641895.373 7  94785957.11744  23147685.477                    23147694.813
 110249334.300 8  85908696.19246  20979727.672                    20979735.570
 110758874.573 8  86305673.203 7  21076710.000                    21076717.270
 112268748.965 8  87482240.957 7  21364017.336                    21364025.723
 123286667.146 7  96067598.991 6  23460678.711                    23460690.449
 127348942.829 6  99233007.49943  24233719.266                    24233733.164
 108588315.586 8  84614368.72046  20663647.617                    20663653.711
 11  8 21  0 36  0.0000000  0  9G04G17G30G10G12G05G25G09G02
 117178971.082 7  91308391.84545  22298403.000                    22298411.789
 123986928.975 6  96613270.567 6  23593933.789                    23593943.332
 121554258.017 7  94717668.34144  23131008.656                    23131017.621
 110273999.501 8  85927915.82246  20984421.477                    20984429.457
 110716243.114 8  86272453.873 7  21068597.469                    21068605.102
 112192848.077 8  87423097.495 7  21349573.773                    21349582.520
 123195416.301 7  95996494.509 6  23443314.813                    23443325.977
 127430779.964 6  99296776.46343  24249291.727                    24249306.297
 108598458.733 8  84622272.48746  20665577.688                    20665583.262
 11  8 21  0 36 30.0000000  0  9G04G17G30G10G12G05G25G09G02
 117259621.807 7  91371236.52245  22313750.773                    22313759.129
 124045610.450 6  96658996.377 6  23605101.078                    23605110.688
 121466981.042 7  94649660.38744  23114400.023                    23114409.551
 110299281.955 8  85947616.44646  20989232.039                    20989240.230
 110674118.646 8  86239629.612 7  21060581.266                    21060588.891
 112117357.676 8  87364273.879 7  21335208.156                    21335217.254
 123104438.301 7  95925602.632 6  23426001.703                    23426013.000
 127512656.804 6  99360576.35843  24264872.586                    24264886.777
 108608844.189 8  84630365.05946  20667554.047                    20667559.953
 11  8 21  0 37  0.0000000  0  9G04G17G30G10G12G05G25G09G02
 117340336.007 7  91434130.66645  22329109.664                    22329118.523
 124104467.464 6  96704858.940 6  23616300.688                    23616311.043
 121380066.995 7  94581935.24444  23097860.828                    23097870.789
 110325180.419 8  85967797.08546  20994160.148                    20994168.699
 110632502.947 8  86207201.813 7  21052662.055                    21052669.793
 112042280.028 8  87305771.893 7  21320921.266                    21320930.199
 123013735.691 7  95854925.346 6  23408741.203                    23408752.754
 127594569.857 6  99424404.48343  24280460.781                    24280475.023
 108619470.237 8  84638645.09846  20669576.063                    20669581.602
 11  8 21  0 37 30.0000000  0  9G04G17G30G10G12G05G25G09G02
 117421111.973 7  91497072.93545  22344480.984                    22344489.242
 124163500.507 6  96750858.704 6  23627535.172                    23627544.305
 121293518.580 7  94514495.00544  23081391.086                    23081400.844
 110351693.583 8  85988456.71446  20999205.703                    20999213.809
 110591397.803 8  86175171.833 7  21044840.141                    21044847.387
 111967617.805 8  87247593.614 7  21306713.641                    21306722.648
 122923311.112 7  95784464.716 6  23391534.305                    23391545.758
 127676515.983 6  99488258.36143  24296054.844                    24296068.770
 108630335.692 8  84647111.69246  20671643.664                    20671649.301
 11  8 21  0 38  0.0000000  0  9G04G17G30G10G12G05G25G09G02
 117501948.327 7  91560062.26445  22359863.492                    22359872.465
 124222709.644 6  96796995.664 6  23638801.961                    23638811.371
 121207338.434 7  94447341.69344  23064992.039                    23065001.695
 110378820.617 8  86009594.68246  21004368.047                    21004376.320
 110550804.690 8  86143540.842 7  21037115.539                    21037123.324
 111893373.349 8  87189740.869 7  21292585.539                    21292593.895
 122833167.109 7  95714222.710 6  23374379.898                    23374392.004
 127758491.813 6  99552135.42543  24311654.438                    24311668.352
 108641439.081 8  84655763.69046  20673756.500                    20673762.531
 11  8 21  0 38 30.0000000  0  9G04G17G30G10G12G05G25G09G02
 117582843.636 7  91623097.54545  22375257.383                    22375266.059
 124282095.787 6  96843270.551 6  23650102.625                    23650112.258
 121121529.665 7  94380477.80044  23048662.406                    23048672.309
 110406561.006 8  86031210.58746  21009646.625                    21009654.473
 110510726.091 8  86112310.780 7  21029488.555                    21029496.504
 111819549.395 8  87132215.784 7  21278537.164                    21278545.672
 122743306.823 7  95644201.792 6  23357280.531                    23357292.199
 127840494.524 6  99616033.44143  24327258.469                    24327272.664
 108652779.842 8  84664600.65346  20675914.563                    20675920.453
 11  8 21  0 39  0.0000000  0  9G04G17G30G10G12G05G25G09G02
 117663796.026 7  91686177.30345  22390662.180                    22390671.156
 124341658.806 7  96889683.261 6  23661436.859                    23661446.590
 121036094.853 7  94313905.28044  23032405.125                    23032414.133
 110434913.319 8  86053303.30846  21015042.133                    21015050.023
 110471163.282 8  86081482.633 7  21021960.141                    21021967.910
 111746148.136 8  87075020.076 7  21264569.195                    21264577.816
 122653732.606 7  95574403.785 7  23340234.383                    23340246.613
 127922520.946 6  99679949.97243  24342868.000                    24342881.707
 108664356.546 8  84673621.46946  20678117.609                    20678123.129
 11  8 21  0 39 30.0000000  0  9G04G17G30G10G12G05G25G09G02
 117744804.120 7  91749300.46645  22406077.375                    22406086.449
 124401399.359 7  96936234.311 6  23672805.680                    23672815.148
 120951036.752 7  94247626.31744  23016219.383                    23016228.172
 110463876.815 8  86075872.29446  21020553.703                    21020561.766
 110432118.144 8  86051057.863 7  21014530.156                    21014537.781
 111673172.541 8  87018156.055 7  21250682.398                    21250691.004
 122564447.289 7  95504830.885 7  23323244.641                    23323255.859
 128004567.671 6  99743882.27443  24358480.883                    24358495.730
 108676167.762 8  84682825.02046  20680365.281                    20680370.859
 11  8 21  0 40  0.0000000  0  9G04G17G30G10G12G05G25G09G02
 117825866.014 7  91812465.55545  22421502.945                    22421512.531
 124461317.745 6  96982923.944 6  23684207.563                    23684217.379
 120866357.783 7  94181642.73944  23000105.250                    23000114.441
 110493450.240 8  86098916.54146  21026181.047                    21026189.371
 110393591.713 8  86021037.277 7  21007198.938                    21007206.574
 111600624.294 8  86961625.027 7  21236876.609                    21236885.621
 122475453.229 7  95435484.942 6  23306309.156                    23306320.840
 128086631.208 6  99807827.67143  24374098.133                    24374111.238
 108688212.073 8  84692210.21046  20682657.273                    20682662.910
 11  8 21  0 40 30.0000000  0  9G04G17G30G10G12G05G25G09G02
 117906980.623 7  91875671.73245  22436938.320                    22436947.695
 124521414.446 7  97029752.514 6  23695643.656                    23695653.422
 120782060.985 7  94115956.98844  22984064.133                    22984073.395
 110523632.447 8  86122435.17846  21031924.758                    21031933.113
 110355586.332 8  85991422.714 7  20999966.875                    20999974.547
 111528506.118 8  86905429.124 7  21223153.102                    21223161.656
 122386753.337 7  95366368.208 6  23289430.672                    23289441.285
 128168708.589 6  99871783.86543  24389716.406                    24389730.281
 108700488.694 8  84701776.41846  20684993.320                    20684998.734
 11  8 21  0 41  0.0000000  0  9G04G17G30G10G12G05G25G09G02
 117988146.348 7  91938917.73744  22452383.758                    22452392.859
 124581689.821 7  97076720.335 6  23707113.570                    23707123.559
 120698149.004 7  94050571.09744  22968095.695                    22968105.457
 110554422.163 8  86146427.20146  21037783.539                    21037791.844
 110318103.629 8  85962215.435 7  20992834.133                    20992841.375
 111456820.372 8  86849570.185 7  21209511.883                    21209520.316
 122298350.272 7  95297482.751 7  23272607.563                    23272618.809
 128250796.638 6  99935748.39143  24405337.539                    24405352.426
 108712996.482 8  84711522.75646  20687373.508                    20687379.250
 11  8 21  0 41 30.0000000  0  9G04G17G30G10G12G05G25G09G02
 118069361.278 7  92002202.10144  22467838.703                    22467847.906
 124642143.967 6  97123827.431 6  23718617.563                    23718627.215
 120614624.443 7  93985487.07944  22952201.086                    22952211.086
 110585818.145 8  86170891.62846  21043758.211                    21043766.438
 110281144.902 8  85933416.435 7  20985800.813                    20985808.172
 111385569.358 8  86794049.982 7  21195953.133                    21195961.535
 122210246.511 7  95228830.547 7  23255841.906                    23255853.418
 128332892.549 6  99999719.09043  24420959.555                    24420973.926
 108725733.775 8  84721447.93346  20689797.180                    20689803.137
 11  8 21  0 42  0.0000000  0  9G04G17G30G10G12G05G25G09G02
 118150624.180 7  92065523.81645  22483303.117                    22483311.141
 124702777.486 6  97171074.320 6  23730155.734                    23730165.086
 120531489.938 7  93920707.00644  22936381.883                    22936391.082
 110617819.347 8  86195827.64346  21049847.805                    21049855.918
 110244712.277 8  85905027.400 7  20978867.984                    20978875.480
 111314755.570 8  86738870.476 7  21182477.672                    21182486.043
 122122444.863 7  95160413.725 6  23239133.664                    23239144.773
 128414993.233 6 100063693.43743  24436583.750                    24436598.066
 108738699.586 8  84731551.18046  20692264.680                    20692269.957
 11  8 21  0 42 30.0000000  0  9G04G17G30G10G12G05G25G09G02
 118231933.354 7  92128881.58744  22498774.992                    22498783.883
 124763590.524 6  97218461.104 6  23741728.734                    23741737.449
 120448748.163 7  93856232.95844  22920636.789                    22920646.047
 110650424.710 8  86221234.43246  21056052.586                    21056060.621
 110208806.826 8  85877049.146 7  20972035.523                    20972043.180
 111244381.455 8  86684033.578 7  21169085.797                    21169093.926
 122034947.832 7  95092234.282 7  23222483.922                    23222495.172
 128497095.180 6 100127668.82943  24452206.961                    24452221.977
 108751892.447 8  84741831.34246  20694775.063                    20694780.746
 11  8 21  0 43  0.0000000  0  9G04G17G30G10G12G05G25G09G02
 118313287.535 7  92192274.41245  22514256.313                    22514265.160
 124824583.578 6  97265988.162 6  23753334.031                    23753344.684
 120366402.088 7  93792067.21844  22904966.461                    22904976.008
 110683633.373 8  86247111.34046  21062371.727                    21062379.977
 110173430.312 8  85849483.061 7  20965303.594                    20965310.973
 111174449.456 8  86629541.177 7  21155778.219                    21155786.445
 121947758.336 7  95024294.455 6  23205892.266                    23205903.109
 128579195.310 6 100191642.83143  24467830.234                    24467844.707
 108765311.616 8  84752287.85546  20697328.492                    20697334.316
 11  8 21  0 43 30.0000000  0  9G04G17G30G10G12G05G25G09G02
 118394684.824 7  92255700.85844  22529745.664                    22529754.797
 124885756.975 6  97313655.723 6  23764975.852                    23764985.199
 120284454.008 7  93728211.64444  22889371.984                    22889380.949
 110717443.456 8  86273456.89246  21068805.211                    21068813.609
 110138584.291 8  85822330.331 7  20958672.359                    20958679.762
 111104961.664 8  86575394.919 7  21142555.211                    21142563.773
 121860878.897 7  94956596.251 6  23189359.406                    23189371.008
 128661290.565 6 100255612.98143  24483452.023                    24483466.957
 108778955.482 8  84762919.46046  20699925.078                    20699931.090
 11  8 21  0 44  0.0000000  0  9G04G17G30G10G12G05G25G09G02
 118476124.393 7  92319160.25645  22545243.398                    22545252.242
 124947111.078 6  97361464.115 6  23776651.414                    23776660.672
 120202907.079 7  93664668.64644  22873854.250                    22873863.191
 110751854.027 8  86300270.34846  21075353.938                    21075361.723
 110104270.622 8  85795592.428 7  20952142.852                    20952150.250
 111035920.663 8  86521596.795 7  21129417.164                    21129425.371
 121774312.302 7  94889141.786 6  23172886.445                    23172897.539
 128743377.973 6 100319577.06543  24499073.344                    24499088.145
 108792823.374 8  84773725.63346  20702564.227                    20702569.637
 11  8 21  0 44 30.0000000  0  9G04G17G30G10G12G05G25G09G02
 118557604.468 7  92382651.21445  22560748.477                    22560757.777
 125008646.034 7  97409413.421 6  23788361.281                    23788370.379
 120121763.432 7  93601439.89344  22858413.305                    22858422.039
 110786863.099 8  86327550.16446  21082015.828                    21082023.695
 110070490.573 8  85769270.339 7  20945714.664                    20945722.621
 110967328.441 8  86468148.372 7  21116364.242                    21116372.754
 121688060.917 7  94821932.968 7  23156473.109                    23156484.262
 128825454.176 6 100383532.38043  24514691.883                    24514706.719
 108806913.533 8  84784704.99846  20705245.039                    20705250.750
 11  8 21  0 45  0.0000000  0  9G04G17G30G10G12G05G25G09G02
 118639123.564 7  92446172.58045  22576261.242                    22576270.055
 125070362.446 6  97457504.141 6  23800105.047                    23800114.543
 120041026.070 7  93538527.71944  22843048.977                    22843058.063
 110822469.932 8  86355295.76246  21088791.391                    21088799.250
 110037245.904 8  85743365.434 7  20939388.328                    20939395.715
 110899187.350 8  86415051.469 7  21103397.000                    21103405.520
 121602127.682 7  94754972.038 7  23140121.031                    23140131.941
 128907516.224 6 100447476.70243  24530308.063                    24530323.250
 108821225.014 8  84795856.82546  20707968.750                    20707974.250
 11  8 21  0 45 30.0000000  0  9G04G17G30G10G12G05G25G09G02
 118720680.197 7  92509723.17944  22591781.180                    22591789.465
 125132260.357 6  97505736.283 6  23811883.867                    23811893.074
 119960697.459 7  93475934.06144  22827762.633                    22827771.641
 110858673.076 8  86383506.02946  21095680.273                    21095688.848
 110004537.912 8  85717878.712 7  20933164.328                    20933171.648
 110831499.899 8  86362308.058 7  21090516.953                    21090525.313
 121516515.108 7  94688260.979 6  23123828.883                    23123840.000
 128989560.967 6 100511407.48243  24545921.211                    24545935.363
 108835756.537 8  84807180.12646  20710733.555                    20710739.430
 11  8 21  0 46  0.0000000  0  9G04G17G30G10G12G05G25G09G02
 118802273.204 7  92573302.11644  22607307.211                    22607316.113
 125194340.146 6  97554110.144 6  23823696.586                    23823706.961
 119880780.352 7  93413661.05144  22812555.055                    22812564.387
 110895471.517 8  86412180.14846  21102683.234                    21102691.367
 109972368.086 8  85692811.350 7  20927042.469                    20927049.977
 110764268.315 8  86309919.880 7  21077722.930                    21077731.375
 121431225.880 7  94621801.885 6  23107598.805                    23107609.914
 129071585.414 6 100575322.45343  24561530.430                    24561544.551
 108850506.894 8  84818673.93546  20713540.773                    20713546.258
 11  8 21  0 46 30.0000000  0  9G04G17G30G10G12G05G25G09G02
 118883900.896 7  92636908.08645  22622841.055                    22622849.602
 125256602.115 6  97602625.966 6  23835545.164                    23835554.746
 119801277.322 7  93351710.69944  22797426.070                    22797435.457
 110932863.556 8  86441316.79846  21109798.672                    21109806.633
 109940737.888 8  85668164.467 7  20921023.516                    20921031.020
 110697494.446 8  86257888.343 7  21065016.266                    21065024.621
 121346262.667 7  94555596.825 6  23091431.266                    23091442.617
 129153586.409 6 100639219.20243  24577134.328                    24577149.004
 108865475.049 8  84830337.47346  20716389.000                    20716394.379
 11  8 21  0 47  0.0000000  0  9G04G17G30G10G12G05G25G09G02
 118965562.018 7  92700540.10244  22638380.492                    22638389.523
 125319046.724 6  97651284.119 6  23847428.516                    23847437.688
 119722190.937 7  93290085.00644  22782376.578                    22782385.621
 110970847.465 8  86470914.63346  21117026.625                    21117034.563
 109909648.612 8  85643939.096 7  20915107.391                    20915114.551
 110631180.849 8  86206215.473 7  21052397.000                    21052405.660
 121261628.150 7  94489647.896 6  23075325.539                    23075336.781
 129235560.780 6 100703095.20243  24592733.305                    24592748.477
 108880659.819 8  84842169.80046  20719278.391                    20719284.055
 11  8 21  0 47 30.0000000  0  9G04G17G30G10G12G05G25G09G02
 119047255.208 7  92764197.13944  22653925.984                    22653935.270
 125381674.124 6  97700084.723 6  23859345.563                    23859355.305
 119643523.883 7  93228786.04844  22767406.867                    22767416.125
 111009421.918 8  86500972.64246  21124367.172                    21124375.301
 109879102.288 8  85620136.788 7  20909294.773                    20909301.918
 110565329.788 8  86154903.022 7  21039865.828                    21039874.125
 121177324.847 7  94423957.046 6  23059283.063                    23059294.520
 129317505.569 6 100766948.13243  24608326.195                    24608342.629
 108896059.884 8  84854169.88846  20722208.953                    20722214.238
 11  8 21  0 48  0.0000000  0  9G04G17G30G10G12G05G25G09G02
 119128978.675 7  92827877.75644  22669477.352                    22669486.938
 125444484.317 6  97749027.709 6  23871297.445                    23871307.973
 119565278.398 7  93167815.58744  22752516.938                    22752526.309
 111048585.208 8  86531489.49045  21131819.672                    21131827.590
 109849098.971 8  85596757.615 7  20903585.086                    20903592.395
 110499943.430 8  86103952.671 7  21027423.125                    21027431.801
 121093355.101 7  94358526.119 6  23043304.320                    23043315.672
 129399417.672 6 100830775.54743  24623914.570                    24623929.590
 108911673.575 8  84866336.43046  20725180.219                    20725185.523
 11  8 21  0 48 30.0000000  0  9G04G17G30G10G12G05G25G09G02
 119210731.442 7  92891581.20944  22685034.648                    22685043.480
 125507477.771 6  97798113.554 6  23883285.625                    23883294.508
 119487457.455 7  93107175.91944  22737708.445                    22737717.160
 111088336.479 8  86562464.50746  21139383.867                    21139392.094
 109819641.059 8  85573803.423 7  20897979.430                    20897986.898
 110435023.835 8  86053366.041 7  21015069.789                    21015078.355
 121009721.976 7  94293357.479 6  23027389.164                    23027400.328
 129481294.036 6 100894575.13043  24639494.938                    24639510.621
 108927500.260 8  84878668.94046  20728192.094                    20728197.430
 11  8 21  0 49  0.0000000  0  9G04G17G30G10G12G05G25G09G02
 119292512.141 7  92955306.44144  22700596.578                    22700605.805
 125570654.820 6  97847342.432 6  23895308.016                    23895317.250
 119410063.511 7  93046868.97844  22722980.258                    22722989.566
 111128674.184 8  86593896.47745  21147059.938                    21147067.813
 109790729.754 8  85551275.164 7  20892477.578                    20892485.230
 110370573.147 8  86003144.789 7  21002805.133                    21002813.602
 120926427.915 7  94228453.070 7  23011538.391                    23011550.141
 129563131.694 6 100958344.51243  24655068.359                    24655083.781
 108943538.584 8  84891166.36846  20731243.797                    20731249.449
 11  8 21  0 49 30.0000000  0  9G04G17G30G10G12G05G25G09G02
 119374319.040 7  93019052.07344  22716163.914                    22716173.164
 125634015.762 6  97896714.607 6  23907364.922                    23907374.191
 119333098.878 7  92986896.57944  22708334.516                    22708344.480
 111169596.059 8  86625783.65346  21154847.344                    21154855.395
 109762366.056 8  85529173.615 7  20887080.281                    20887087.465
 110306593.130 8  85953290.289 7  20990629.992                    20990638.152
 120843475.401 7  94163814.784 7  22995753.555                    22995764.672
 129644927.531 6 101022081.37243  24670633.828                    24670648.699
 108959786.918 8  84903827.43146  20734335.688                    20734341.113
 11  8 21  0 50  0.0000000  0  9G04G17G30G10G12G05G25G09G02
 119456150.929 7  93082817.17444  22731736.844                    22731744.957
 125697560.593 6  97946230.030 6  23919456.242                    23919466.965
 119256566.505 7  92927260.99044  22693771.320                    22693780.492
 111211100.816 8  86658125.02146  21162745.117                    21162753.219
 109734551.503 8  85507499.965 7  20881787.555                    20881794.746
 110243086.546 8  85903804.696 7  20978545.328                    20978552.898
 120760867.273 7  94099444.844 7  22980034.078                    22980044.910
 129726678.676 6 101085783.37343  24686190.992                    24686206.215
 108976244.906 8  84916651.86146  20737467.586                    20737473.391
 11  8 21  0 50 30.0000000  0  9G04G17G30G10G12G05G25G09G02
 119538007.178 7  93146601.25844  22747313.180                    22747322.434
 125761289.628 6  97995889.030 6  23931583.867                    23931594.613
 119180468.750 7  92867964.05244  22679290.422                    22679299.305
 111253187.007 8  86690919.45146  21170754.656                    21170762.191
 109707287.583 8  85486255.386 7  20876599.211                    20876606.539
 110180055.403 8  85854689.582 7  20966550.688                    20966558.563
 120678606.092 7  94035345.264 7  22964380.258                    22964391.641
 129808382.216 7 101149448.23343  24701739.602                    24701754.027
 108992910.992 8  84929638.45246  20740639.016                    20740644.680
 11  8 21  0 51  0.0000000  0  9G04G17G30G10G12G05G25G09G02
 119619885.539 7  93210402.56144  22762894.250                    22762902.969
 125825203.295 6  98045691.859 6  23943746.547                    23943756.141
 119104808.117 7  92809007.74645  22664892.008                    22664901.586
 111295852.847 8  86724165.58646  21178872.914                    21178881.352
 109680575.345 8  85465440.685 7  20871516.047                    20871523.277
 110117501.476 8  85805946.322 7  20954647.117                    20954655.453
 120596694.357 7  93971517.985 7  22948793.039                    22948804.148
 129890034.780 6 101213073.47543  24717277.156                    24717292.070
 109009783.760 8  84942786.08846  20743849.906                    20743855.039
 11  8 21  0 51 30.0000000  0  9G04G17G30G10G12G05G25G09G02
 119701785.094 7  93274220.40244  22778479.055                    22778488.203
 125889301.472 6  98095638.449 6  23955944.336                    23955953.605
 119029587.176 7  92750394.05944  22650578.297                    22650587.543
 111339096.739 8  86757862.15446  21187101.883                    21187110.488
 109654416.022 8  85445056.835 7  20866537.797                    20866545.871
 110055427.067 8  85757576.716 7  20942834.617                    20942842.727
 120515134.727 7  93907965.064 7  22933272.883                    22933283.820
 129971633.762 6 101276656.88343  24732804.523                    24732819.559
 109026862.322 8  84956094.06846  20747099.625                    20747105.137
 11  8 21  0 52  0.0000000  0  9G04G17G30G10G12G05G25G09G02
 119783704.702 7  93338053.83944  22794067.711                    22794076.301
 125953584.912 6  98145729.436 6  23968175.789                    23968186.051
 118954808.731 7  92692125.16544  22636348.859                    22636357.516
 111382917.487 7  86792008.21645  21195440.898                    21195448.859
 109628811.568 8  85425105.343 7  20861665.523                    20861673.020
 109993834.601 8  85709582.649 7  20931113.570                    20931121.918
 120433930.074 7  93844688.755 7  22917819.852                    22917830.949
 130053176.274 6 101340196.25843  24748321.891                    24748336.707
 109044145.820 8  84969561.73646  20750388.656                    20750393.934
 11  8 21  0 52 30.0000000  0  9G04G17G30G10G12G05G25G09G02
 119865642.606 7  93401901.54744  22809660.023                    22809668.629
 126018053.502 7  98195964.682 6  23980444.781                    23980454.445
 118880474.905 7  92634202.72645  22622203.125                    22622212.000
 111427312.799 7  86826601.98946  21203889.047                    21203897.152
 109603761.933 8  85405586.171 7  20856898.727                    20856906.152
 109932725.935 8  85661965.567 7  20919485.203                    20919493.711
 120353082.563 7  93781690.739 7  22902434.734                    22902446.168
 130134658.951 6 101403688.99743  24763827.320                    24763842.953
 109061632.596 8  84983187.80346  20753716.406                    20753722.066
 11  8 21  0 53  0.0000000  0  9G04G17G30G10G12G05G25G09G02
 119947597.808 7  93465762.70144  22825255.313                    22825264.828
 126082707.350 7  98246344.285 6  23992747.992                    23992757.469
 118806588.095 7  92576628.62044  22608143.148                    22608151.273
 111472281.229 8  86861642.34846  21212446.484                    21212454.266
 109579268.639 8  85386500.524 7  20852237.672                    20852245.441
 109872102.526 8  85614726.607 7  20907948.813                    20907956.938
 120272594.731 7  93718972.978 7  22887118.547                    22887129.895
 130216078.968 6 101467132.92443  24779321.875                    24779336.914
 109079321.199 8  84996971.12646  20757082.125                    20757088.453
 11  8 21  0 53 30.0000000  0  9G04G17G30G10G12G05G25G09G02
 120029568.980 7  93529636.29944  22840854.047                    22840863.758
 126147546.756 6  98296868.489 6  24005086.469                    24005096.023
 118733150.970 7  92519404.91045  22594168.258                    22594177.473
 111517820.993 7  86897127.90246  21221112.148                    21221120.152
 109555333.329 8  85367849.662 7  20847682.992                    20847690.328
 109811966.662 8  85567867.552 7  20896505.688                    20896513.527
 120192469.360 7  93656537.675 7  22871871.477                    22871882.453
 130297433.316 6 101530525.70143  24794802.734                    24794817.863
 109097210.760 8  85010911.03046  20760486.555                    20760492.070
 11  8 21  0 54  0.0000000  0  9G04G17G30G10G12G05G25G09G02
 120111554.704 7  93593521.22144  22856455.641                    22856465.148
 126212571.836 6  98347537.373 6  24017461.242                    24017470.027
 118660165.792 7  92462533.38344  22580279.727                    22580288.621
 111563930.009 7  86933057.04845  21229886.594                    21229894.316
 109531956.453 8  85349633.932 7  20843234.516                    20843241.992
 109752320.270 8  85521389.909 7  20885155.117                    20885162.699
 120112708.826 7  93594386.648 7  22856693.188                    22856704.371
 130378719.136 6 101593865.10442  24810271.281                    24810286.820
 109115299.973 8  85025006.51246  20763928.930                    20763934.645
 11  8 21  0 54 30.0000000  0  9G04G17G30G10G12G05G25G09G02
 120193553.769 7  93657416.56344  22872059.477                    22872069.070
 126277782.992 6  98398351.260 6  24029869.492                    24029879.309
 118587635.126 7  92406016.01944  22566477.453                    22566486.742
 111610606.762 8  86969428.58045  21238768.547                    21238776.789
 109509139.312 8  85331854.366 7  20838892.648                    20838899.813
 109693165.463 8  85475295.317 7  20873898.039                    20873906.391
 120033315.819 7  93532522.007 7  22841585.227                    22841596.473
 130459933.580 6 101657148.85342  24825726.164                    24825741.266
 109133587.851 8  85039256.78046  20767408.813                    20767414.727
 11  8 21  0 55  0.0000000  0  9G04G17G30G10G12G05G25G09G02
 120275565.394 7  93721321.67044  22887665.570                    22887674.949
 126343180.290 6  98449310.189 6  24042314.555                    24042323.992
 118515561.668 7  92349854.91444  22552761.953                    22552771.090
 111657849.501 8  87006241.12446  21247758.289                    21247766.480
 109486883.310 8  85314512.043 7  20834657.750                    20834664.711
 109634504.195 8  85429585.292 7  20862735.078                    20862743.434
 119954293.082 7  93470945.898 6  22826547.617                    22826558.355
 130541073.636 6 101720374.71943  24841166.719                    24841181.637
 109152073.702 8  85053661.33246  20770926.695                    20770932.598
 11  8 21  0 55 30.0000000  0  9G04G17G30G10G12G05G25G09G02
 120357587.999 7  93785235.32844  22903274.000                    22903283.906
 126408763.913 6  98500414.328 6  24054794.344                    24054803.734
 118443947.647 7  92294051.80544  22539134.680                    22539143.379
 111705656.315 8  87043493.19746  21256856.039                    21256863.945
 109465189.622 8  85297607.884 7  20830529.375                    20830536.531
 109576338.404 8  85384261.367 7  20851666.875                    20851674.723
 119875643.010 7  93409660.168 7  22811580.852                    22811591.852
 130622136.386 6 101783540.28143  24856592.758                    24856608.590
 109170755.836 8  85068218.83146  20774481.977                    20774487.398
 11  8 21  0 56  0.0000000  0  9G04G17G30G10G12G05G25G09G02
 120439621.717 6  93849157.65244  22918884.672                    22918893.863
 126474535.404 6  98551664.884 6  24067310.094                    24067319.891
 118372796.747 7  92238609.57844  22525595.398                    22525603.543
 111754026.754 8  87081184.47045  21266060.555                    21266068.609
 109444060.262 8  85281143.464 7  20826508.141                    20826515.738
 109518671.487 8  85339326.167 7  20840692.938                    20840700.941
 119797369.408 7  93348667.801 6  22796685.828                    22796697.344
 130703120.196 6 101846644.36143  24872003.648                    24872019.367
 109189634.350 8  85082929.35746  20778074.469                    20778079.551
 11  8 21  0 56 30.0000000  0  8G04G17G30G10G12G05G25G02
 120521664.702 7  93913087.20644  22934497.484                    22934506.535
 126540494.192 6  98603061.367 6  24079861.953                    24079871.234
 118302110.682 7  92183529.55744  22512143.898                    22512152.656
 111802958.182 8  87119312.87045  21275371.875                    21275379.988
 109423495.387 8  85265118.890 7  20822595.203                    20822602.785
 109461504.227 8  85294780.298 7  20829814.227                    20829822.023
 119719474.089 7  93287970.180 7  22781862.664                    22781873.891
 109208707.508 8  85097791.55446  20781703.594                    20781709.379
 11  8 21  0 57  0.0000000  0  8G04G17G30G10G12G05G25G02
 120603714.708 7  93977022.21644  22950110.945                    22950120.047
 126606639.422 6  98654603.122 6  24092448.438                    24092458.531
 118231890.879 7  92128812.86544  22498781.656                    22498790.043
 111852447.574 8  87157876.03145  21284789.305                    21284797.156
 109403495.248 8  85249534.370 7  20818789.023                    20818795.871
 109404837.586 8  85250624.535 7  20819031.078                    20819038.801
 119641958.645 7  93227568.567 7  22767112.266                    22767123.500
 109227973.158 8  85112803.75446  20785369.984                    20785375.816
 11  8 21  0 57 30.0000000  0  8G04G17G30G10G12G05G25G02
 120685770.667 7  94040961.88944  22965726.023                    22965734.754
 126672971.362 6  98706290.358 6  24105071.328                    24105081.172
 118162139.880 7  92074461.49244  22485507.984                    22485516.926
 111902493.351 8  87196872.72845  21294312.727                    21294320.926
 109384061.320 8  85234391.050 7  20815090.992                    20815098.289
 109348673.766 8  85206860.574 8  20808343.328                    20808351.066
 119564825.784 7  93167465.090 7  22752434.234                    22752445.523
 109247430.506 8  85127965.33646  20789072.430                    20789078.609
 11  8 21  0 58  0.0000000  0  8G04G17G30G10G12G05G25G02
 120767831.641 7  94104905.47144  22981341.219                    22981350.098
 126739490.125 6  98758123.179 6  24117729.633                    24117739.215
 118092860.178 7  92020477.34244  22472325.039                    22472333.668
 111953093.698 7  87236301.56845  21303941.461                    21303949.848
 109365194.377 8  85219689.537 7  20811500.758                    20811508.586
 109293014.897 8  85163490.082 7  20797751.625                    20797760.074
 119488078.113 7  93107661.762 7  22737829.250                    22737840.523
 109267078.384 8  85143275.38946  20792811.406                    20792817.137
 11  8 21  0 58 30.0000000  0  8G04G17G30G10G12G05G25G02
 120849896.261 7  94168851.90844  22996957.773                    22996966.551
 126806195.981 6  98810101.797 6  24130423.180                    24130432.566
 118024053.870 7  91966862.08345  22459231.891                    22459240.113
 112004246.384 7  87276160.78345  21313675.438                    21313683.461
 109346894.855 8  85205430.160 7  20808018.172                    20808025.828
 109237862.161 8  85120513.981 7  20787256.367                    20787264.695
 119411717.861 7  93048160.318 7  22723298.219                    22723309.391
 109286915.431 8  85158732.85446  20796586.313                    20796592.391
 11  8 21  0 59  0.0000000  0  8G04G17G30G10G12G05G25G02
 120931963.082 7  94232800.04144  23012574.547                    23012583.492
 126873088.631 6  98862225.950 6  24143153.000                    24143161.789
 117955723.229 7  91913617.46845  22446228.563                    22446237.133
 112055949.352 8  87316448.79645  21323514.188                    21323522.191
 109329163.465 8  85191613.494 7  20804644.227                    20804651.996
 109183217.372 8  85077933.677 8  20776857.742                    20776865.902
 119335747.489 7  92988962.673 7  22708842.047                    22708853.000
 109306940.192 8  85174336.59446  20800396.648                    20800402.160
 11  8 21  0 59 30.0000000  0  8G04G17G30G10G12G05G25G02
 121014031.594 7  94296749.47144  23028191.672                    23028200.707
 126940168.824 6  98914496.277 6  24155917.195                    24155927.027
 117887870.991 7  91860745.65645  22433316.469                    22433324.941
 112108201.189 7  87357164.49645  21333457.664                    21333465.234
 109312001.891 8  85178240.836 7  20801378.742                    20801385.730
 109129082.689 8  85035750.866 8  20766556.141                    20766564.023
 119260169.959 7  92930071.140 7  22694460.563                    22694471.277
 109327152.372 8  85190086.37946  20804242.992                    20804248.469
 11  8 21  1  0  0.0000000  0  8G04G17G30G10G12G05G25G02
 121096100.123 7  94360698.93744  23043808.750                    23043818.184
 127007436.378 6  98966912.552 6  24168717.813                    24168727.887
 117820499.054 7  91808248.08745  22420496.344                    22420504.797
 112160999.359 8  87398305.91245  21343504.531                    21343512.684
 109295410.624 8  85165312.573 7  20798221.602                    20798228.797
 109075459.731 8  84993966.801 8  20756351.914                    20756359.910
 119184987.344 7  92871487.336 7  22680153.219                    22680164.344
 109347550.329 8  85205980.92546  20808124.359                    20808130.066
 11  8 21  1  0 30.0000000  0  8G04G17G30G10G12G05G25G02
 121178167.948 6  94424647.85744  23059426.281                    23059435.164
 127074891.134 6  99019474.768 6  24181554.227                    24181563.590
 117753609.874 7  91756126.71945  22407767.039                    22407776.449
 112214341.992 7  87439871.60945  21353655.820                    21353663.758
 109279390.583 8  85152829.428 7  20795173.000                    20795180.063
 109022350.331 8  84952582.906 8  20746245.609                    20746253.293
 119110202.172 7  92813213.246 7  22665921.648                    22665932.891
 109368132.870 8  85222019.30946  20812040.914                    20812046.848
 11  8 21  1  1  0.0000000  0  8G04G17G30G10G12G05G25G02
 121260233.979 7  94488595.41244  23075042.391                    23075051.840
 127142533.558 6  99072183.195 6  24194425.844                    24194435.594
 117687205.885 7  91704383.43945  22395130.930                    22395140.000
 112268227.501 8  87481860.33245  21363909.625                    21363917.637
 109263942.604 8  85140792.051 7  20792233.102                    20792240.461
 108969756.437 8  84911600.707 7  20736237.742                    20736245.609
 119035817.178 8  92755250.988 7  22651767.094                    22651777.914
 109388899.224 8  85238200.92346  20815993.133                    20815998.699
 11  8 21  1  1 30.0000000  0  8G04G17G30G10G12G05G25G02
 121342297.133 7  94552540.73644  23090658.563                    23090667.977
 127210363.574 6  99125037.796 6  24207332.984                    24207343.141
 117621289.233 7  91653019.88545  22382587.375                    22382596.434
 112322653.478 8  87524270.20545  21374266.625                    21374274.570
 109249067.591 8  85129201.127 7  20789402.570                    20789409.820
 108917679.435 8  84871021.280 7  20726327.328                    20726335.813
 118961834.740 8  92697602.407 7  22637689.039                    22637699.523
 109409848.199 8  85254524.83546  20819979.180                    20819984.848
 11  8 21  1  2  0.0000000  0  8G04G17G30G10G12G05G25G02
 121424356.015 7  94616482.69344  23106273.531                    23106282.594
 127278381.558 6  99178038.840 6  24220276.906                    24220286.168
 117555862.149 7  91602037.81145  22370137.383                    22370145.801
 112377617.706 7  87567099.50045  21384726.109                    21384734.023
 109234765.931 8  85118056.982 7  20786681.250                    20786688.512
 108866120.921 8  84830845.873 8  20716516.219                    20716523.961
 118888257.186 8  92640269.327 7  22623687.156                    22623697.984
 109430978.582 8  85270990.10446  20824000.375                    20824005.977
 11  8 21  1  2 30.0000000  0  8G04G17G30G10G12G05G25G02
 121506409.836 7  94680420.72444  23121888.000                    23121897.238
 127346587.197 6  99231186.122 6  24233255.672                    24233265.188
 117490926.941 7  91551439.00845  22357780.438                    22357789.086
 112433118.421 8  87610346.82645  21395287.414                    21395295.762
 109221038.891 8  85107360.591 7  20784068.578                    20784076.465
 108815082.898 8  84791076.050 8  20706803.930                    20706811.820
 118815087.073 7  92583253.734 7  22609763.164                    22609774.297
 109452289.234 8  85287595.83446  20828055.625                    20828060.863
 11  8 21  1  3  0.0000000  0  8G04G17G30G10G12G05G25G02
 121588457.472 7  94744353.91044  23137501.086                    23137510.184
 127414980.686 6  99284479.812 6  24246270.883                    24246280.223
 117426485.774 7  91501225.20545  22345517.008                    22345526.605
 112489153.258 8  87654010.36045  21405950.367                    21405958.395
 109207886.779 8  85097112.198 7  20781566.406                    20781573.844
 108764566.786 8  84751712.897 8  20697191.016                    20697198.922
 118742326.766 7  92526557.477 7  22595917.305                    22595928.797
 109473779.290 8  85304341.36346  20832144.781                    20832150.660
 11  8 21  1  3 30.0000000  0  8G04G17G30G10G12G05G25G02
 121670497.899 7  94808281.47744  23153112.867                    23153121.988
 127483562.158 7  99337919.968 6  24259321.656                    24259330.691
 117362540.728 7  91451397.96245  22333349.047                    22333358.133
 112545720.232 8  87698088.55645  21416715.070                    21416722.559
 109195310.193 8  85087312.273 7  20779173.164                    20779180.309
 108714574.456 8  84712757.882 8  20687677.461                    20687685.441
 118669978.614 8  92470182.393 7  22582149.852                    22582160.961
 109495447.339 8  85321225.57846  20836268.305                    20836273.836
 11  8 21  1  4  0.0000000  0  8G04G17G30G10G12G05G25G02
 121752529.897 7  94872202.47944  23168722.938                    23168732.879
 127552331.631 6  99391506.616 6  24272407.727                    24272416.742
 117299094.098 7  91401959.11445  22321275.406                    22321284.418
 112602817.006 7  87742579.57545  21427579.797                    21427587.422
 109183310.162 8  85077961.602 7  20776889.344                    20776896.902
 108665106.930 8  84674211.800 8  20678264.375                    20678272.121
 118598045.052 7  92414130.344 7  22568461.188                    22568472.438
 109517292.369 8  85338247.69546  20840424.977                    20840430.656
 11  8 21  1  4 30.0000000  0  8G04G17G30G10G12G05G25G02
 121834552.521 7  94936116.18544  23184332.109                    23184341.191
 127621289.192 6  99445239.858 6  24285528.969                    24285539.160
 117236148.196 7  91352910.44045  22309297.242                    22309306.266
 112660441.357 7  87787481.69545  21438545.328                    21438553.246
 109171887.289 8  85069060.674 7  20774715.516                    20774722.711
 108616166.159 8  84636076.195 8  20668951.055                    20668958.809
 118526528.600 7  92358403.317 7  22554852.148                    22554862.770
 109539313.536 8  85355407.06146  20844615.438                    20844621.516
 11  8 21  1  5  0.0000000  0  8G04G17G30G10G12G05G25G02
 121916564.830 7  95000021.84644  23199938.375                    23199947.336
 127690434.568 6  99499119.393 6  24298687.438                    24298697.328
 117173704.958 7  91304253.43845  22297415.023                    22297423.176
 112718591.405 7  87832793.45145  21449610.844                    21449618.730
 109161041.626 8  85060609.512 7  20772651.922                    20772658.797
 108567753.574 8  84598352.143 8  20659738.508                    20659745.984
 118455431.536 7  92303003.072 7  22541322.688                    22541333.176
 109561509.417 8  85372702.56946  20848839.492                    20848844.840
 11  8 21  1  5 30.0000000  0  8G04G17G30G10G12G05G25G02
 121998565.929 7  95063918.79344  23215542.656                    23215551.500
 127759768.076 6  99553145.571 6  24311881.391                    24311890.980
 117111766.753 7  91255989.97845  22285627.977                    22285636.547
 112777265.013 8  87878513.15745  21460776.234                    21460783.816
 109150774.268 8  85052608.989 7  20770697.859                    20770705.199
 108519870.716 8  84561040.867 8  20650626.273                    20650634.449
 118384756.400 7  92247931.614 7  22527873.906                    22527884.715
 109583879.343 8  85390133.69846  20853096.328                    20853102.043
 11  8 21  1  6  0.0000000  0  8G04G17G30G10G12G05G25G02
 122080554.499 7  95127805.98444  23231144.422                    23231153.465
 127829289.687 6  99607318.274 5  24325111.398                    24325120.434
 117050335.467 7  91208121.52645  22273938.078                    22273946.297
 112836459.337 8  87924638.62645  21472040.164                    21472048.434
 109141085.699 8  85045059.448 7  20768854.297                    20768861.398
 108472519.178 8  84524143.610 8  20641615.906                    20641623.488
 118314505.370 7  92193190.626 7  22514505.023                    22514516.016
 109606421.999 8  85407699.42046  20857386.172                    20857391.613
 11  8 21  1  6 30.0000000  0  9G04G17G30G10G12G05G25G29G02
 122162529.272 7  95191682.40844  23246743.938                    23246752.410
 127898998.895 6  99661637.203 5  24338375.438                    24338385.293
 116989412.783 7  91160649.38645  22262344.875                    22262353.668
 112896172.109 8  87971168.05845  21483403.656                    21483411.188
 109131975.964 8  85037960.965 7  20767120.953                    20767128.148
 108425700.001 8  84487661.181 8  20632706.383                    20632714.469
 118244680.392 7  92138781.605 7  22501218.023                    22501228.633
 129534103.40216 100935692.31216  24649516.563                    24649527.309
 109629135.764 8  85425398.45546  20861708.055                    20861713.688
 11  8 21  1  7  0.0000000  0  9G04G17G30G10G12G05G25G29G02
 122244489.055 7  95255547.15944  23262340.656                    23262349.527
 127968895.776 6  99716102.391 6  24351677.273                    24351686.441
 116929000.702 7  91113575.11745  22250848.828                    22250857.887
 112956400.847 8  88018099.54145  21494864.594                    21494872.438
 109123445.698 8  85031314.015 7  20765497.602                    20765505.207
 108379414.470 8  84451594.571 8  20623898.633                    20623906.410
 118175283.682 7  92084706.319 7  22488011.859                    22488022.984
 129454603.036 5 100873744.080 6  24634387.266                    24634398.977
 109652019.485 8  85443229.93646  20866063.109                    20866068.305
 11  8 21  1  7 30.0000000  0  9G04G17G30G10G12G05G25G29G02
 122326433.929 7  95319400.28144  23277933.836                    23277942.762
 128038980.872 6  99770714.190 6  24365013.219                    24365022.895
 116869102.264 7  91066901.07445  22239450.258                    22239459.047
 113017144.188 7  88065432.00445  21506423.641                    21506431.777
 109115495.942 8  85025119.406 7  20763984.805                    20763991.902
 108333665.045 8  84415945.712 7  20615192.570                    20615200.203
 118106318.601 7  92030967.347 7  22474888.945                    22474899.555
 129375024.166 6 100811734.701 6  24619244.375                    24619255.141
 109675073.090 8  85461193.78646  20870449.773                    20870455.605
 11  8 21  1  8  0.0000000  0  9G04G17G30G10G12G05G25G29G02
 122408362.570 7  95383240.74544  23293523.789                    23293533.602
 128109254.115 6  99825472.578 6  24378386.523                    24378395.746
 116809719.053 7  91020628.51945  22228150.250                    22228158.734
 113078399.489 7  88113163.39945  21518079.945                    21518088.234
 109108126.557 8  85019377.034 7  20762582.039                    20762589.582
 108288452.450 8  84380715.161 8  20606589.133                    20606596.836
 118037786.963 7  91977566.130 7  22461847.016                    22461858.180
 129295367.020 6 100749664.375 6  24604086.281                    24604097.012
 109698295.265 8  85479288.99046  20874868.836                    20874874.527
 11  8 21  1  8 30.0000000  0  9G04G17G30G10G12G05G25G29G02
 122490273.882 6  95447067.74744  23309110.898                    23309120.742
 128179715.324 6  99880377.444 6  24391795.281                    24391804.051
 116750853.013 7  90974758.92945  22216948.594                    22216956.387
 113140164.621 7  88161292.06645  21529833.297                    21529841.637
 109101338.161 8  85014087.383 7  20761290.336                    20761297.570
 108243778.392 8  84345904.250 7  20598087.797                    20598095.477
 117969691.086 7  91924504.458 7  22448889.141                    22448899.531
 129215631.992 6 100687533.384 6  24588912.719                    24588923.305
 109721684.655 8  85497514.49246  20879320.094                    20879325.984
 11  8 21  1  9  0.0000000  0  9G04G17G30G10G12G05G25G29G02
 122572167.045 6  95510880.60644  23324694.469                    23324704.316
 128250364.452 6  99935428.775 6  24405239.086                    24405248.285
 116692506.263 7  90929293.99645  22205845.000                    22205853.930
 113202437.244 8  88209816.16845  21541683.625                    21541691.660
 109095131.790 8  85009251.263 7  20760109.375                    20760116.711
 108199644.201 8  84311514.021 8  20589689.531                    20589696.828
 117902033.371 7  91871784.226 7  22436014.313                    22436024.898
 129135819.671 6 100625342.200 6  24573725.344                    24573735.414
 109745240.259 8  85515869.52146  20883802.125                    20883807.551
 11  8 21  1  9 30.0000000  0  9G04G17G30G10G12G05G25G29G02
 122654040.923 6  95574678.46044  23340274.922                    23340284.539
 128321201.347 7  99990626.425 6  24418718.203                    24418728.105
 116634680.628 7  90884235.11545  22194841.141                    22194849.789
 113265214.500 8  88258733.50245  21553629.891                    21553638.176
 109089506.913 8  85004868.265 7  20759038.875                    20759046.242
 108156050.887 8  84277545.241 8  20581393.836                    20581401.730
 117834815.825 7  91819406.970 7  22423223.227                    22423233.922
 129055930.580 7 100563091.179 6  24558522.680                    24558533.145
 109768960.862 8  85534353.11746  20888316.195                    20888321.891
 11  8 21  1 10  0.0000000  0  9G04G17G30G10G12G05G25G29G02
 122735894.871 6  95638460.75944  23355851.609                    23355860.777
 128392226.111 7 100045970.481 6  24432233.992                    24432243.211
 116577378.474 7  90839584.13345  22183937.031                    22183945.773
 113328494.658 7  88308042.70345  21565672.109                    21565679.918
 109084464.517 8  85000939.148 7  20758079.594                    20758086.906
 108113000.350 8  84243999.408 8  20573201.438                    20573209.063
 117768041.208 7  91767374.870 7  22410516.063                    22410526.879
 128975965.527 7 100500780.991 6  24543305.313                    24543315.848
 109792846.065 8  85552964.98046  20892861.117                    20892866.836
 11  8 21  1 10 30.0000000  0  9G04G17G30G10G12G05G25G29G02
 122817727.664 7  95702226.57944  23371424.195                    23371433.262
 128463438.806 6 100101460.956 6  24445785.164                    24445794.832
 116520601.414 7  90795342.29845  22173133.180                    22173141.063
 113392275.031 8  88357741.68845  21577808.414                    21577816.723
 109080004.532 8  84997463.858 7  20757230.828                    20757237.875
 108070493.763 8  84210877.444 8  20565113.023                    20565120.875
 117701711.380 7  91715689.334 7  22397894.172                    22397904.992
 128895924.825 7 100438411.846 6  24528074.047                    24528084.688
 109816894.353 8  85571703.92046  20897437.414                    20897442.953
 11  8 21  1 11  0.0000000  0  9G04G17G30G10G12G05G25G29G02
 122899538.720 6  95765975.44344  23386992.359                    23387001.406
 128534839.273 6 100157097.747 6  24459372.344                    24459382.367
 116464351.637 7  90751511.34145  22162428.672                    22162437.234
 113456553.381 7  88407828.70645  21590040.625                    21590048.621
 109076127.736 8  84994443.001 7  20756493.117                    20756500.570
 108028532.228 8  84178180.192 8  20557127.609                    20557135.418
 117635828.953 7  91664352.406 7  22385356.688                    22385367.133
 128815809.310 7 100375984.350 6  24512828.328                    24512839.051
 109841105.185 8  85590569.51646  20902045.141                    20902050.578
 11  8 21  1 11 30.0000000  0  9G04G17G30G10G12G05G25G29G02
 122981326.991 7  95829706.57344  23402556.125                    23402564.863
 128606427.344 6 100212880.735 6  24472994.727                    24473004.051
 116408630.896 7  90708092.60045  22151825.391                    22151833.715
 113521327.062 8  88458301.69845  21602366.391                    21602374.543
 109072834.077 8  84991876.544 7  20755866.258                    20755873.676
 107987116.932 8  84145908.588 8  20549246.695                    20549253.980
 117570395.932 7  91613365.678 7  22372905.352                    22372916.414
 128735619.287 7 100313498.792 6  24497568.406                    24497579.441
 109865476.994 8  85609560.54846  20906682.320                    20906688.055
 11  8 21  1 12  0.0000000  0  9G04G17G30G10G12G05G25G29G02
 123063091.569 6  95893419.24844  23418115.563                    23418123.895
 128678203.016 6 100268809.907 6  24486653.547                    24486662.410
 116353440.865 7  90665087.41845  22141322.875                    22141331.355
 113586593.644 8  88509158.77245  21614786.461                    21614794.559
 109070123.496 8  84989764.432 7  20755350.313                    20755357.742
 107946249.194 8  84114063.645 8  20541469.516                    20541477.281
 117505414.333 7  91562730.692 7  22360540.234                    22360550.859
 128655355.419 7 100250955.701 6  24482295.102                    24482305.441
 109890008.728 8  85628676.19246  20911350.719                    20911355.918
 11  8 21  1 12 30.0000000  0  9G04G17G30G10G12G05G25G29G02
 123144831.446 6  95957112.65444  23433670.070                    23433678.152
 128750166.170 6 100324885.179 6  24500347.570                    24500356.281
 116298783.506 7  90622497.29645  22130921.992                    22130929.602
 113652350.819 8  88560398.12745  21627299.594                    21627307.555
 109067996.355 8  84988106.956 7  20754945.672                    20754952.684
 107905929.950 8  84082646.106 8  20533797.164                    20533804.930
 117440886.407 7  91512449.232 7  22348260.383                    22348271.012
 128575018.051 7 100188355.229 5  24467007.016                    24467016.641
 109914699.276 8  85647915.59346  20916049.008                    20916054.520
 11  8 21  1 13  0.0000000  0  8G04G30G10G12G05G25G29G02
 123226547.893 7  96020787.80344  23449220.148                    23449228.602
 116244662.747 8  90580325.31445  22120622.914                    22120630.949
 113718598.154 8  88612019.42745  21639905.961                    21639914.188
 109066454.989 8  84986905.930 7  20754652.367                    20754659.590
 107866162.703 8  84051658.701 8  20526229.359                    20526237.035
 117376816.517 7  91462524.668 7  22336068.398                    22336078.797
 128494610.243 6 100125699.870 5  24451705.352                    24451715.305
 109939549.845 8  85667279.68846  20920777.844                    20920783.531
 11  8 21  1 13 30.0000000  0  8G04G30G10G12G05G25G29G02
 123308238.034 6  96084442.47044  23464764.969                    23464773.801
 116191078.586 7  90538571.43645  22110426.500                    22110434.570
 113785331.475 8  88664019.41745  21652605.039                    21652612.867
 109065497.578 8  84986159.930 7  20754470.070                    20754477.336
 107826946.366 8  84021100.573 8  20518767.078                    20518774.637
 117313204.875 7  91412957.182 7  22323963.414                    22323973.859
 128414130.553 6 100062988.462 5  24436391.070                    24436400.727
 109964557.539 8  85686766.21746  20925536.844                    20925542.195
 11  8 21  1 14  0.0000000  0  8G04G30G10G12G05G25G29G02
 123389901.081 7  96148075.99743  23480305.094                    23480313.656
 116138032.746 7  90497237.05045  22100332.023                    22100340.707
 113852548.011 8  88716395.93545  21665396.047                    21665403.641
 109065124.352 8  84985869.152 7  20754399.156                    20754405.953
 107788282.193 8  83990972.695 8  20511409.398                    20511416.844
 117250053.582 7  91363748.413 7  22311946.328                    22311956.727
 128333579.550 6 100000221.478 5  24421062.852                    24421072.797
 109989721.388 8  85706374.42146  20930325.219                    20930330.559
 11  8 21  1 14 30.0000000  0  8G04G30G10G12G05G25G29G02
 123471535.639 7  96211687.29643  23495839.000                    23495848.531
 116085526.466 8  90456323.10145  22090340.695                    22090348.875
 113920244.619 8  88769146.54745  21678278.063                    21678285.902
 109065334.777 8  84986033.149 7  20754439.055                    20754446.223
 107750170.922 8  83961275.652 8  20504156.563                    20504164.820
 117187364.318 7  91314899.669 7  22300016.945                    22300027.398
 128252957.361 6  99937398.928 6  24405720.430                    24405730.848
 110015039.550 8  85726102.86746  20935143.359                    20935148.633
 11  8 21  1 15  0.0000000  0  8G04G30G10G12G05G25G29G02
 123553140.976 7  96275275.84644  23511368.648                    23511377.816
 116033561.391 8  90415830.87945  22080451.906                    22080460.047
 113988418.753 8  88822269.27145  21691250.898                    21691259.051
 109066128.757 8  84986651.872 7  20754590.141                    20754597.391
 107712613.680 8  83932010.320 8  20497010.266                    20497017.676
 117125139.057 7  91266412.484 7  22288176.156                    22288186.266
 128172264.534 6  99874521.384 5  24390364.922                    24390375.746
 110040511.024 8  85745950.78546  20939990.203                    20939995.863
 11  8 21  1 15 30.0000000  0  8G04G30G10G12G05G25G29G02
 123634717.073 6  96338841.62944  23526891.570                    23526901.148
 115982140.584 7  90375762.77045  22070666.453                    22070675.375
 114057069.427 8  88875763.30845  21704314.820                    21704323.133
 109067507.906 8  84987726.575 7  20754852.453                    20754859.613
 107675612.127 8  83903177.992 8  20489968.727                    20489976.957
 117063381.303 7  91218289.595 7  22276423.656                    22276434.313
 128091503.282 6  99811590.469 5  24374996.688                    24375007.383
 110066136.302 8  85765918.54546  20944866.820                    20944872.094
 11  8 21  1 16  0.0000000  0  8G04G30G10G12G05G25G29G02
 123716262.516 6  96402383.49943  23542409.383                    23542418.688
 115931264.756 8  90336119.30745  22060985.172                    22060993.352
 114126192.991 8  88929625.82745  21717469.070                    21717476.785
 109069470.951 8  84989256.255 7  20755226.156                    20755233.402
 107639166.716 8  83874779.027 8  20483033.375                    20483040.926
 117002092.117 7  91170531.838 7  22264760.703                    22264771.145
 128010673.183 6  99748605.936 6  24359615.508                    24359626.434
 110091913.275 8  85786004.50846  20949771.867                    20949777.332
 11  8 21  1 16 30.0000000  0  8G04G30G10G12G05G25G29G02
 123797776.450 6  96465900.83844  23557921.016                    23557930.020
 115880935.674 7  90296901.87145  22051408.070                    22051416.309
 114195787.061 8  88983854.98145  21730711.539                    21730719.926
 109072018.267 8  84991241.203 7  20755710.945                    20755717.938
 107603278.627 8  83846814.327 8  20476204.117                    20476211.738
 116941273.575 8  91123140.814 7  22253187.320                    22253198.238
 127929775.010 6  99685568.382 6  24344220.773                    24344231.414
 110117840.984 8  85806207.93446  20954705.352                    20954710.824
 11  8 21  1 17  0.0000000  0  8G04G30G10G12G05G25G29G02
 123879258.243 7  96529393.14444  23573426.719                    23573435.762
 115831154.983 7  90258111.74645  22041935.227                    22041943.297
 114265848.872 8  89038448.60945  21744044.094                    21744052.555
 109075149.447 8  84993681.112 7  20756306.563                    20756314.063
 107567948.536 8  83819284.426 8  20469480.930                    20469488.660
 116880927.827 8  91076118.201 7  22241703.844                    22241714.680
 127848809.419 6  99622478.313 6  24328814.219                    24328824.590
 110143918.382 8  85826527.99946  20959667.789                    20959673.102
 11  8 21  1 17 30.0000000  0  8G04G30G10G12G05G25G29G02
 123960706.813 7  96592859.52544  23588926.031                    23588935.012
 115781924.317 8  90219750.21445  22032566.836                    22032575.293
 114336375.881 7  89093404.73445  21757465.539                    21757473.266
 109078864.487 8  84996575.972 7  20757013.219                    20757021.055
 107533177.575 8  83792190.219 8  20462864.539                    20462871.758
 116821056.821 8  91029465.501 7  22230310.547                    22230321.137
 127767777.246 7  99559336.430 6  24313394.484                    24313404.473
 110170144.421 8  85846963.88046  20964658.602                    20964664.234
 11  8 21  1 18  0.0000000  0  8G04G30G10G12G05G25G29G02
 124042121.677 7  96656299.66044  23604417.977                    23604427.816
 115733245.431 7  90181818.64245  22023303.250                    22023312.359
 114407365.712 7  89148721.49245  21770973.875                    21770982.219
 109083163.527 8  84999925.886 7  20757831.625                    20757839.020
 107498966.908 8  83765532.594 8  20456354.242                    20456361.852
 116761662.780 8  90983184.461 7  22219008.336                    22219018.980
 127686679.148 6  99496143.201 6  24297961.422                    24297972.297
 110196518.408 8  85867515.04546  20969677.289                    20969682.875
 11  8 21  1 18 30.0000000  0  8G04G30G10G12G05G25G29G02
 124123502.186 7  96719712.98143  23619904.445                    23619913.789
 115685120.305 8  90144318.55845  22014145.102                    22014154.160
 114478815.978 7  89204397.02245  21784570.633                    21784578.492
 109088046.906 8  85003731.133 7  20758761.188                    20758768.133
 107465317.497 8  83739312.318 8  20449950.852                    20449958.422
 116702747.959 7  90937276.846 7  22207797.383                    22207808.043
 127605516.345 6  99432899.604 6  24282516.859                    24282527.031
 110223039.680 8  85888180.97046  20974724.000                    20974729.930
 11  8 21  1 19  0.0000000  0  8G04G30G10G12G05G25G29G02
 124204847.623 7  96783099.02644  23635383.750                    23635393.574
 115637550.572 7  90107251.24845  22005093.219                    22005102.125
 114550724.038 7  89260429.27545  21798254.164                    21798262.363
 109093514.355 8  85007991.497 7  20759801.227                    20759808.301
 107432230.485 8  83713530.275 8  20443654.555                    20443661.957
 116644314.549 7  90891744.348 7  22196677.680                    22196688.367
 127524289.577 6  99369606.148 6  24267059.633                    24267070.109
 110249707.423 8  85908961.03646  20979799.258                    20979804.496
 11  8 21  1 19 30.0000000  0  8G04G30G10G12G05G25G29G02
 124286157.322 7  96846457.21743  23650856.461                    23650866.375
 115590537.457 8  90070617.65945  21996146.836                    21996155.516
 114623087.070 8  89316816.05145  21812024.516                    21812032.441
 109099565.460 8  85012706.644 7  20760952.961                    20760959.980
 107399706.289 8  83688186.776 8  20437465.852                    20437473.328
 116586364.135 7  90846588.210 7  22185649.859                    22185660.543
 127442999.128 6  99306263.129 6  24251590.461                    24251600.699
 110276520.235 8  85929854.14246  20984901.047                    20984906.930
 11  8 21  1 20  0.0000000  0  8G04G30G10G12G05G25G29G02
 124367430.357 7  96909786.83444  23666322.688                    23666331.973
 115544082.674 8  90034419.13945  21987306.906                    21987315.270
 114695902.549 8  89373555.37945  21825880.711                    21825888.523
 109106200.087 8  85017876.484 7  20762215.109                    20762222.484
 107367746.035 8  83663282.724 8  20431383.648                    20431390.754
 116528898.907 8  90801810.144 7  22174714.703                    22174725.145
 127361646.060 6  99242871.285 6  24236109.078                    24236119.531
 110303477.357 8  85950859.70646  20990030.594                    20990036.648
 11  8 21  1 20 30.0000000  0  8G04G30G10G12G05G25G29G02
 124448666.115 7  96973087.37343  23681781.219                    23681790.992
 115498187.748 8  89998656.85545  21978573.406                    21978581.938
 114769167.710 7  89430645.10945  21839822.961                    21839830.914
 109113418.477 8  85023501.199 7  20763589.141                    20763596.523
 107336350.315 8  83638818.558 8  20425409.164                    20425416.617
 116471920.700 8  90757411.560 7  22163872.359                    22163882.848
 127280230.934 7  99179431.087 6  24220617.117                    24220626.402
 110330577.689 8  85971976.85946  20995187.977                    20995193.641
 11  8 21  1 21  0.0000000  0  8G04G30G10G12G05G25G29G02
 124529864.111 7  97036358.50143  23697232.742                    23697241.973
 115452854.515 7  89963332.29145  21969946.414                    21969955.227
 114842880.573 8  89488083.69145  21853850.086                    21853857.477
 109121219.947 8  85029580.269 7  20765073.445                    20765080.723
 107305520.405 8  83614795.283 8  20419542.391                    20419549.773
 116415431.951 8  90713394.374 7  22153122.539                    22153133.191
 127198754.900 7  99115943.430 6  24205112.125                    24205122.301
 110357820.920 8  85993205.34946  21000371.984                    21000377.664
 11  8 21  1 21 30.0000000  0  8G04G30G10G12G05G25G29G02
 124611023.243 7  97099599.39543  23712676.750                    23712685.977
 115408084.027 8  89928446.22645  21961427.398                    21961435.891
 114917037.775 8  89545868.51645  21867961.539                    21867969.551
 109129604.244 8  85036113.469 7  20766669.000                    20766676.078
 107275256.790 8  83591213.287 8  20413783.461                    20413790.750
 116359434.007 8  90669759.641 7  22142466.039                    22142476.852
 127117218.236 7  99052408.498 6  24189596.117                    24189606.332
 110385205.443 8  86014543.94046  21005583.180                    21005589.320
 11  8 21  1 22  0.0000000  0  8G04G30G10G12G05G25G29G02
 124692143.365 7  97162809.88443  23728113.195                    23728122.738
 115363878.088 7  89894000.08545  21953014.734                    21953023.582
 114991637.128 7  89603997.88345  21882157.117                    21882165.164
 109138571.839 8  85043101.191 7  20768375.266                    20768382.484
 107245560.005 8  83568072.969 8  20408132.242                    20408139.684
 116303929.305 8  90626509.263 7  22131904.227                    22131914.699
 127035622.513 6  98988827.539 6  24174068.313                    24174079.109
 110412730.934 8  86035992.37446  21010821.469                    21010826.914
 11  8 21  1 22 30.0000000  0  8G04G30G10G12G05G25G29G02
 124773223.402 7  97225989.10943  23743542.305                    23743551.910
 115320238.059 7  89859994.91745  21944710.781                    21944719.434
 115066675.514 7  89662469.36245  21896436.984                    21896444.031
 109148121.585 8  85050542.548 7  20770192.836                    20770200.371
 107216430.958 8  83545375.042 8  20402589.172                    20402596.563
 116248919.548 8  90583644.546 7  22121436.367                    22121446.941
 126953968.222 6  98925200.921 6  24158530.336                    24158540.613
 110440396.136 8  86057549.68846  21016085.945                    21016091.152
 11  8 21  1 23  0.0000000  0  8G04G30G10G12G05G25G29G02
 124854262.085 7  97289136.11543  23758963.836                    23758973.375
 115277164.607 8  89826431.23545  21936513.656                    21936522.367
 115142149.879 7  89721280.57045  21910798.883                    21910806.680
 109158252.515 8  85058436.778 7  20772120.555                    20772127.949
 107187869.586 8  83523119.462 8  20397154.219                    20397161.324
 116194405.850 8  90541166.386 7  22111062.531                    22111072.980
 126872255.011 6  98861528.418 6  24142980.828                    24142991.238
 110468198.911 8  86079214.19146  21021376.453                    21021382.117
 11  8 21  1 23 30.0000000  0  8G04G30G10G12G05G25G29G02
 124935259.519 7  97352251.02143  23774377.492                    23774386.082
 115234659.757 8  89793310.64445  21928425.406                    21928434.188
 115218058.307 7  89780429.99145  21925243.391                    21925251.684
 109168965.401 8  85066784.480 7  20774159.320                    20774166.371
 107159877.268 8  83501307.302 8  20391827.352                    20391834.750
 116140390.840 8  90499076.820 7  22100783.852                    22100794.098
 126790485.015 6  98797811.600 6  24127420.461                    24127430.297
 110496139.760 8  86100986.29546  21026693.359                    21026698.512
 11  8 21  1 24  0.0000000  0  8G04G30G10G12G05G25G29G02
 125016215.025 7  97415333.23143  23789782.188                    23789791.164
 115192725.067 7  89760634.32645  21920445.320                    21920453.766
 115294398.014 7  89839915.48845  21939770.672                    21939778.727
 109180259.584 8  85075585.141 7  20776308.352                    20776315.512
 107132454.852 8  83479939.221 8  20386608.766                    20386616.398
 116086876.428 8  90457377.336 7  22090600.430                    22090610.723
 126708658.778 6  98734051.019 6  24111849.688                    24111859.785
 110524217.836 8  86122865.33946  21032036.234                    21032041.660
 11  8 21  1 24 30.0000000  0  8G04G30G10G12G05G25G29G02
 125097128.201 7  97478382.48043  23805179.211                    23805188.539
 115151362.100 7  89728403.51345  21912574.375                    21912582.430
 115371166.786 7  89899735.31645  21954379.477                    21954387.492
 109192135.073 8  85084838.774 7  20778568.086                    20778575.707
 107105603.292 8  83459015.962 8  20381499.297                    20381507.066
 116033864.809 8  90416069.619 7  22080512.922                    22080522.828
 126626777.794 6  98670247.742 6  24096268.031                    24096277.355
 110552432.671 8  86144850.93946  21037405.352                    21037410.848
 11  8 21  1 25  0.0000000  0  8G04G30G10G12G05G25G29G02
 125177997.802 6  97541397.77243  23820568.781                    23820578.293
 115110571.524 7  89696618.71445  21904811.758                    21904820.133
 115448360.883 7  89959886.56845  21969068.828                    21969076.824
 109204590.861 8  85094544.579 7  20780938.430                    20780946.074
 107079322.257 8  83438537.276 8  20376498.352                    20376505.281
 115981356.999 8  90375154.510 7  22070520.500                    22070531.492
 126544841.760 7  98606401.559 6  24080676.016                    24080686.000
 110580782.239 8  86166941.52946  21042800.328                    21042805.723
 11  8 21  1 25 30.0000000  0  8G04G30G10G12G05G25G29G02
 125258823.994 6  97604379.24043  23835949.734                    23835958.340
 115070355.551 7  89665281.65445  21897159.086                    21897167.523
 115525978.476 7  90020367.81945  21983838.688                    21983846.887
 109217626.716 8  85104702.396 7  20783419.258                    20783426.359
 107053613.404 8  83418504.424 8  20371605.797                    20371613.117
 115929355.799 8  90334634.154 7  22060625.258                    22060635.711
 126462852.766 6  98542514.108 6  24065073.750                    24065083.254
 110609266.999 8  86189137.45546  21048220.828                    21048226.164
 11  8 21  1 26  0.0000000  0  8G04G30G10G12G05G25G29G02
 125339605.430 7  97667325.85443  23851321.391                    23851330.742
 115030714.533 8  89634392.60845  21889615.531                    21889624.266
 115604016.124 7  90081176.40045  21998688.766                    21998696.715
 109231241.947 8  85115311.674 7  20786009.844                    20786017.391
 107028475.995 8  83398916.874 8  20366822.336                    20366829.559
 115877861.993 8  90294509.171 7  22050825.773                    22050836.234
 126380810.897 7  98478585.462 6  24049461.953                    24049472.008
 110637884.861 8  86211437.11146  21053666.586                    21053671.801
 11  8 21  1 26 30.0000000  0  8G04G30G10G12G05G25G29G02
 125420341.719 7  97730237.24343  23866684.945                    23866694.625
 114991650.012 8  89603952.76145  21882182.289                    21882190.199
 115682471.167 7  90142310.20445  22013618.305                    22013626.438
 109245436.490 8  85126372.368 7  20788711.070                    20788718.426
 107003911.184 8  83379775.494 8  20362147.773                    20362155.211
 115826877.686 8  90254781.196 7  22041124.164                    22041134.453
 126298717.300 6  98414616.516 6  24033840.109                    24033849.246
 110666635.461 8  86233840.18746  21059137.453                    21059143.129
 11  8 21  1 27  0.0000000  0  8G04G30G10G12G05G25G29G02
 125501032.442 7  97793113.15543  23882039.938                    23882049.039
 114953163.292 7  89573963.16145  21874858.406                    21874866.543
 115761340.952 7  90203767.18145  22028627.055                    22028634.961
 109260209.003 8  85137883.432 7  20791522.469                    20791529.410
 106979919.323 8  83361080.573 8  20357582.227                    20357589.457
 115776404.692 8  90215451.636 7  22031519.461                    22031529.668
 126216572.634 6  98350607.754 6  24018208.305                    24018218.566
 110695517.786 8  86256345.91446  21064633.594                    21064639.012
 11  8 21  1 27 30.0000000  0  8G04G30G10G12G05G25G29G02
 125581676.712 6  97855952.85243  23897386.492                    23897395.461
 114915255.493 7  89544424.64745  21867644.453                    21867652.129
 115840622.777 7  90265545.22345  22043713.641                    22043721.598
 109275559.898 8  85149845.185 7  20794443.305                    20794450.824
 106956501.022 8  83342832.586 8  20353125.648                    20353133.090
 115726444.576 8  90176521.713 7  22022012.172                    22022022.527
 126134378.110 6  98286560.153 6  24002567.219                    24002576.867
 110724531.108 8  86278953.70246  21070154.609                    21070160.000
 11  8 21  1 28  0.0000000  0  8G04G30G10G12G05G25G29G02
 125662273.975 7  97918755.91344  23912723.305                    23912732.914
 114877927.598 8  89515338.00945  21860541.203                    21860548.973
 115920313.644 7  90327641.99945  22058878.430                    22058886.379
 109291487.636 8  85162256.429 8  20797474.516                    20797481.594
 106933656.564 8  83325031.745 8  20348778.883                    20348785.652
 115676999.032 8  90137992.758 7  22012602.945                    22012613.203
 126052134.462 7  98222474.283 6  23986916.594                    23986926.020
 110753674.276 8  86301662.66146  21075700.586                    21075705.820
 11  8 21  1 28 30.0000000  0  8G04G30G10G12G05G25G29G02
 125742823.803 6  97981522.02443  23928050.766                    23928061.109
 114841180.949 7  89486704.28545  21853548.492                    21853556.734
 116000411.006 7  90390055.50545  22074120.383                    22074128.242
 109307992.013 8  85175116.997 7  20800615.313                    20800622.332
 106911386.301 8  83307678.328 8  20344540.922                    20344548.105
 115628069.756 8  90099866.098 7  22003292.148                    22003302.750
 125969842.589 7  98158350.806 6  23971256.500                    23971266.480
 110782946.646 8  86324472.30046  21081270.938                    21081276.398
 11  8 21  1 29  0.0000000  0  8G04G30G10G12G05G25G29G02
 125823325.726 6  98044250.76843  23943370.375                    23943379.180
 114805016.949 8  89458524.57045  21846666.953                    21846675.016
 116080912.438 7  90452783.88245  22089439.492                    22089447.328
 109325072.387 8  85188426.403 7  20803865.414                    20803872.473
 106889691.000 8  83290772.928 8  20340412.313                    20340419.527
 115579658.750 8  90062143.262 7  21994079.836                    21994090.090
 125887503.810 7  98094190.818 6  23955587.922                    23955598.035
 110812347.672 8  86347382.19446  21086865.750                    21086871.035
 11  8 21  1 29 30.0000000  0  8G04G30G10G12G05G25G29G02
 125903778.875 6  98106941.49843  23958680.156                    23958689.598
 114769436.193 7  89430799.32145  21839896.094                    21839904.605
 116161814.683 7  90515824.59545  22104834.234                    22104842.418
 109342727.815 8  85202183.902 7  20807225.305                    20807232.215
 106868570.746 8  83274315.622 8  20336393.164                    20336400.773
 115531767.179 8  90024825.176 7  21984966.266                    21984976.535
 125805118.943 7  98029994.882 6  23939910.766                    23939920.066
 110841876.061 8  86370391.33746  21092484.797                    21092489.879
 11  8 21  1 30  0.0000000  0  8G04G30G10G12G05G25G29G02
 125984183.019 6  98169594.05743  23973980.242                    23973989.883
 114734440.392 8  89403529.87945  21833236.266                    21833244.691
 116243115.360 7  90579175.78745  22120305.547                    22120313.680
 109360958.433 8  85216389.595 7  20810694.406                    20810701.238
 106848026.129 8  83258306.855 8  20332483.594                    20332491.039
 115484397.256 8  89987913.564 7  21975952.078                    21975962.410
 125722689.112 7  97965763.934 6  23924224.430                    23924234.352
 110871531.697 8  86393499.61746  21098128.133                    21098133.488
 11  8 21  1 30 30.0000000  0  8G04G30G10G12G05G25G29G02
 126064537.615 6  98232207.98743  23989271.578                    23989280.988
 114700030.273 7  89376716.82045  21826688.211                    21826696.156
 116324811.235 7  90642834.92045  22135851.828                    22135859.758
 109379763.180 8  85231042.668 7  20814272.703                    20814279.672
 106828057.438 8  83242746.875 8  20328683.469                    20328690.945
 115437550.259 8  89951409.440 7  21967037.508                    21967047.566
 125640214.892 6  97901498.379 6  23908530.164                    23908540.227
 110901313.355 8  86416706.10346  21103795.086                    21103800.766
 11  8 21  1 31  0.0000000  0  8G04G30G10G12G05G25G29G02
 126144841.845 6  98294782.64643  24004552.703                    24004562.422
 114666206.707 7  89350360.79845  21820252.133                    21820259.688
 116406899.264 7  90706799.62345  22151472.586                    22151481.137
 109399140.801 8  85246142.127 7  20817959.758                    20817966.859
 106808664.214 8  83227635.299 8  20324993.234                    20325000.945
 115391227.670 8  89915313.921 7  21958222.484                    21958232.930
 125557697.302 6  97837199.057 6  23892827.250                    23892837.078
 110931219.906 8  86440009.90846  21109486.156                    21109491.836
 11  8 21  1 31 30.0000000  0  8G04G30G10G12G05G25G29G02
 126225095.932 6  98357318.27443  24019824.930                    24019834.141
 114632971.245 7  89324463.05245  21813927.453                    21813935.660
 116489377.285 7  90771068.21045  22167167.273                    22167175.363
 109419090.905 8  85261687.694 7  20821756.164                    20821763.551
 106789847.742 8  83212973.149 8  20321412.688                    20321420.148
 115345431.601 8  89879628.696 7  21949507.719                    21949517.914
 125475137.695 7  97772866.980 6  23877116.188                    23877126.453
 110961251.412 8  86463411.08246  21115201.289                    21115206.527
 11  8 21  1 32  0.0000000  0  8G04G30G10G12G05G25G29G02
 126305299.165 6  98419814.25843  24035086.953                    24035096.469
 114600324.937 7  89299024.39445  21807715.344                    21807722.906
 116572242.758 7  90835638.70945  22182936.422                    22182944.020
 109439612.989 8  85277678.948 7  20825661.234                    20825668.680
 106771608.458 8  83198760.746 8  20317941.727                    20317949.070
 115300163.665 8  89844354.997 7  21940893.391                    21940903.719
 125392537.383 6  97708503.246 6  23861399.469                    23861408.465
 110991407.223 8  86486909.11546  21120939.711                    21120945.086
 11  8 21  1 32 30.0000000  0  8G04G30G10G12G05G25G29G02
 126385450.208 6  98482269.60943  24050339.102                    24050348.813
 114568267.825 7  89274044.84345  21801614.750                    21801623.223
 116655491.632 7  90900507.95845  22198777.875                    22198785.773
 109460705.515 8  85294114.688 7  20829675.320                    20829682.512
 106753945.407 8  83184997.360 8  20314580.305                    20314587.676
 115255424.441 8  89809493.298 7  21932379.922                    21932390.375
 125309896.249 7  97644107.666 6  23845672.711                    23845682.055
 111021685.085 8  86510502.26046  21126701.422                    21126706.617
 11  8 21  1 33  0.0000000  0  8G04G30G10G12G05G25G29G02
 126465549.167 6  98544684.36943  24065580.930                    24065590.758
 114536801.223 7  89249525.43845  21795627.461                    21795635.059
 116739121.554 7  90965674.13245  22214692.258                    22214699.816
 109482367.666 8  85310994.302 7  20833797.234                    20833804.449
 106736858.998 8  83171683.318 8  20311329.094                    20311336.363
 115211215.854 8  89775045.078 7  21923967.203                    21923977.930
 125227216.031 7  97579681.708 6  23829939.586                    23829948.680
 111052084.964 8  86534190.49046  21132486.203                    21132491.125
 11  8 21  1 33 30.0000000  0  8G04G30G10G12G05G25G29G02
 126545595.539 6  98607058.12043  24080814.195                    24080823.238
 114505926.097 7  89225466.92845  21789751.828                    21789759.824
 116823130.075 7  91031135.31345  22230678.492                    22230686.461
 109504598.677 8  85328317.180 7  20838027.914                    20838035.168
 106720349.737 8  83158818.983 8  20308187.422                    20308194.684
 115167539.555 8  89741011.625 7  21915655.836                    21915666.504
 125144497.773 7  97515226.058 6  23814197.742                    23814207.313
 111082606.161 8  86557973.25646  21138294.156                    21138299.434
 11  8 21  1 34  0.0000000  0  8G04G30G10G12G05G25G29G02
 126625588.768 6  98669390.50943  24096036.273                    24096045.430
 114475643.341 7  89201870.00845  21783988.539                    21783997.008
 116907514.170 7  91096889.14645  22246736.578                    22246744.813
 109527397.799 8  85346082.746 7  20842366.320                    20842373.613
 106704417.892 8  83146404.601 8  20305155.688                    20305163.125
 115124396.920 8  89707394.026 7  21907446.086                    21907456.336
 125061742.413 7  97450741.548 6  23798449.992                    23798458.656
 111113247.914 8  86581849.96646  21144125.234                    21144130.418
 11  8 21  1 34 30.0000000  0  8G04G30G10G12G05G25G29G02
 126705528.525 6  98731681.24243  24111248.016                    24111257.863
 114445953.881 8  89178735.39045  21778339.133                    21778347.586
 116992271.024 7  91162933.43845  22262864.836                    22262873.047
 109550764.215 8  85364290.354 7  20846812.734                    20846820.402
 106689063.490 8  83134440.169 8  20302233.656                    20302241.180
 115081789.498 8  89674193.476 7  21899338.094                    21899348.668
 124978950.982 7  97386228.933 6  23782694.930                    23782704.629
 111144009.546 8  86605820.09146  21149978.922                    21149984.078
 11  8 21  1 35  0.0000000  0  8G04G30G10G12G05G25G29G02
 126785414.064 6  98793929.74243  24126449.727                    24126459.418
 114416858.140 8  89156063.40345  21772802.531                    21772810.590
 117077397.535 7  91229265.76544  22279063.953                    22279071.879
 109574696.588 8  85382938.965 7  20851366.922                    20851374.176
 106674286.063 8  83122925.321 8  20299421.516                    20299429.461
 115039718.389 8  89641410.826 7  21891332.148                    21891342.824
 124896124.476 7  97321688.937 6  23766933.531                    23766942.152
 111174889.846 8  86629882.68146  21155854.813                    21155860.727
 11  8 21  1 35 30.0000000  0  8G04G30G10G12G05G25G29G02
 126865245.358 7  98856135.95543  24141641.398                    24141650.297
 114388357.384 7  89133855.02745  21767379.102                    21767386.805
 117162891.243 7  91295884.22245  22295333.430                    22295341.168
 109599194.396 8  85402028.179 7  20856028.586                    20856035.813
 106660086.134 8  83111860.478 8  20296719.539                    20296726.492
 114998185.424 8  89609047.508 7  21883428.891                    21883439.164
 124813264.244 7  97257122.681 6  23751165.875                    23751174.625
 111205888.763 8  86654037.70546  21161754.328                    21161759.121
 11  8 21  1 36  0.0000000  0  8G04G30G10G12G05G25G29G02
 126945021.998 7  98918299.61243  24156822.625                    24156831.164
 114360452.485 7  89112110.97245  21762068.938                    21762077.258
 117248749.113 7  91362786.45445  22311671.352                    22311679.492
 109624256.560 8  85421557.142 7  20860798.023                    20860805.133
 106646464.087 8  83101245.929 8  20294127.445                    20294134.582
 114957192.048 8  89577104.661 7  21875627.906                    21875638.574
 124730371.391 7  97192530.988 6  23735392.367                    23735400.430
 111237005.567 8  86678284.58346  21167675.289                    21167680.582
 11  8 21  1 36 30.0000000  0  8G04G30G10G12G05G25G29G02
 127024743.361 7  98980420.17543  24171993.039                    24172002.168
 114333143.939 7  89090831.61145  21756872.336                    21756880.141
 117334968.180 7  91429970.12044  22328078.117                    22328086.207
 109649881.855 8  85441524.908 7  20865674.367                    20865681.781
 106633419.729 8  83091081.530 8  20291645.336                    20291652.273
 114916739.401 8  89545583.148 7  21867930.063                    21867940.785
 124647446.667 7  97127914.469 6  23719611.961                    23719620.441
 111268239.175 8  86702622.47946  21173618.664                    21173623.891
 11  8 21  1 37  0.0000000  0  8G04G30G10G12G05G25G29G02
 127104408.819 6  99042497.17743  24187152.586                    24187161.605
 114306432.436 7  89070017.46345  21751789.398                    21751797.516
 117421545.657 7  91497433.06445  22344553.539                    22344561.410
 109676069.046 8  85461930.506 7  20870657.641                    20870664.957
 106620952.561 8  83081366.884 8  20289272.680                    20289279.980
 114876828.712 8  89514483.949 7  21860335.594                    21860345.531
 124564491.288 7  97063274.037 6  23703825.867                    23703834.797
 111299588.650 8  86727050.66646  21179584.406                    21179589.418
 11  8 21  1 37 30.0000000  0  8G04G30G10G12G05G25G29G02
 127184018.402 6  99104530.65143  24202301.391                    24202311.332
 114280318.737 7  89049669.15045  21746819.766                    21746828.199
 117508478.855 7  91565173.19145  22361096.477                    22361104.168
 109702817.549 8  85482773.497 7  20875747.695                    20875754.520
 106609062.943 8  83072102.269 8  20287010.289                    20287017.168
 114837461.581 8  89483808.283 7  21852843.867                    21852854.262
 124481506.645 7  96998610.806 6  23688034.352                    23688042.969
 111331053.864 8  86751569.03646  21185572.367                    21185577.508
 11  8 21  1 38  0.0000000  0  8G04G30G10G12G05G25G29G02
 127263571.402 6  99166519.99943  24217440.672                    24217449.398
 114254803.417 7  89029787.11345  21741964.234                    21741972.156
 117595764.544 7  91633188.00645  22377706.078                    22377714.609
 109730125.950 8  85504052.779 7  20880944.633                    20880951.895
 106597750.648 8  83063287.519 8  20284857.313                    20284864.887
 114798639.052 8  89453556.983 7  21845456.297                    21845466.332
 124398493.716 7  96933925.533 6  23672236.961                    23672245.746
 111362633.719 8  86776176.73046  21191581.469                    21191587.027
 11  8 21  1 38 30.0000000  0  8G04G30G10G12G05G25G29G02
 127343067.602 6  99228465.07443  24232567.867                    24232577.152
 114229887.379 8  89010372.04845  21737223.008                    21737230.961
 117683400.341 7  91701475.63745  22394382.328                    22394390.398
 109757993.287 8  85525767.583 7  20886247.242                    20886254.598
 106587015.769 8  83054922.701 8  20282814.367                    20282821.770
 114760362.697 8  89423731.272 7  21838172.523                    21838182.832
 124315453.610 7  96869219.063 6  23656435.391                    23656443.746
 111394327.758 7  86800873.38846  21197612.563                    21197617.645
 11  8 21  1 39  0.0000000  0  9G04G26G30G10G12G05G25G29G02
 127422506.529 6  99290365.53243  24247684.266                    24247693.945
 130545941.29516 101724172.05452  24842073.141                    24842082.723
 114205571.130 7  88991424.34545  21732595.945                    21732603.621
 117771383.153 7  91770033.65744  22411125.180                    22411133.449
 109786418.345 8  85547916.971 7  20891656.516                    20891663.430
 106576858.041 8  83047007.607 8  20280881.195                    20280888.844
 114722633.665 8  89394332.056 7  21830993.188                    21831002.738
 124232387.453 7  96804492.286 6  23640628.664                    23640636.863
 111426135.201 8  86825658.42646  21203665.250                    21203670.992
 11  8 21  1 39 30.0000000  0  9G04G26G30G10G12G05G25G29G02
 127501887.382 6  99352220.65243  24262789.266                    24262799.852
 130454245.784 6 101652721.18642  24824623.992                    24824634.090
 114181854.636 8  88972943.99945  21728082.523                    21728090.582
 117859709.674 7  91838859.49844  22427932.953                    22427941.078
 109815399.487 8  85570499.682 7  20897171.188                    20897178.098
 106567276.545 8  83039541.534 8  20279057.953                    20279065.488
 114685452.610 8  89365359.821 7  21823917.445                    21823927.813
 124149296.044 7  96739745.875 6  23624816.102                    23624825.500
 111458054.728 8  86850530.79046  21209739.320                    21209744.809
 11  8 21  1 40  0.0000000  0  9G04G26G30G10G12G05G25G29G02
 127581210.458 6  99414030.83743  24277885.078                    24277894.582
 130362412.495 5 101581162.89342  24807147.680                    24807159.355
 114158739.244 8  88954932.05845  21723683.680                    21723691.703
 117948377.462 7  91907951.24544  22444806.195                    22444814.004
 109844936.120 8  85593515.235 7  20902791.828                    20902798.785
 106558272.474 8  83032525.395 8  20277344.945                    20277352.199
 114648821.569 8  89336816.174 7  21816947.281                    21816956.992
 124066181.358 7  96674981.282 6  23608999.398                    23609008.523
 111490086.754 8  86875490.80946  21215835.164                    21215840.148
 11  8 21  1 40 30.0000000  0  9G04G26G30G10G12G05G25G29G02
 127660475.308 6  99475795.66943  24292968.242                    24292978.289
 130270443.940 5 101509499.29643  24789646.914                    24789658.344
 114136225.364 8  88937388.81545  21719399.680                    21719407.832
 118037383.700 7  91977306.72844  22461743.492                    22461751.309
 109875026.956 8  85616962.638 7  20908518.609                    20908525.250
 106549845.220 8  83025958.714 8  20275741.367                    20275748.492
 114612741.572 8  89308701.933 7  21810081.313                    21810091.547
 123983044.287 7  96610199.249 6  23593178.859                    23593188.102
 111522230.048 7  86900537.53846  21221951.758                    21221956.891
 11  8 21  1 41  0.0000000  0  9G04G26G30G10G12G05G25G29G02
 127739681.513 6  99537514.77143  24308040.688                    24308050.395
 130178342.941 5 101437732.45542  24772120.523                    24772131.680
 114114313.506 8  88920314.69745  21715229.594                    21715238.098
 118126725.440 7  92046923.65644  22478745.133                    22478752.535
 109905670.764 8  85640840.928 7  20914349.570                    20914356.781
 106541994.549 8  83019841.329 8  20274247.234                    20274254.563
 114577213.797 8  89281017.985 7  21803320.461                    21803330.449
 123899885.888 7  96545400.581 6  23577354.422                    23577363.500
 111554484.212 8  86925670.66246  21228089.414                    21228094.641
 11  8 21  1 41 30.0000000  0  9G04G26G30G10G12G05G25G29G02
 127818828.926 6  99599188.08343  24323101.539                    24323111.578
 130086112.254 6 101365864.59343  24754568.984                    24754580.500
 114093004.224 8  88903710.11245  21711174.891                    21711183.164
 118216399.944 7  92116799.87644  22495809.422                    22495817.855
 109936866.395 8  85665149.209 7  20920285.578                    20920292.719
 106534720.467 8  83014173.232 8  20272863.023                    20272870.332
 114542239.500 8  89253765.332 7  21796664.859                    21796675.059
 123816707.799 7  96480586.556 6  23561525.469                    23561534.891
 111586848.811 8  86950889.83646  21234247.828                    21234253.629
 11  8 21  1 42  0.0000000  0  9G04G26G30G10G12G05G25G29G02
 127897916.946 7  99660815.10744  24338152.375                    24338161.676
 129993754.791 6 101293897.88443  24736994.641                    24737005.238
 114072297.763 8  88887575.24945  21707234.531                    21707242.727
 118306403.966 7  92186932.87444  22512936.719                    22512944.484
 109968612.080 8  85689886.109 7  20926326.656                    20926333.742
 106528022.279 8  83008953.887 8  20271588.352                    20271596.012
 114507819.569 8  89226944.651 7  21790115.063                    21790125.535
 123733510.781 7  96415757.766 6  23545694.352                    23545703.504
 111619322.717 8  86976194.19346  21240427.633                    21240432.848
 11  8 21  1 42 30.0000000  0  9G04G26G30G10G12G05G25G29G02
 127976945.108 7  99722395.50644  24353191.367                    24353200.516
 129901273.351 6 101221834.57743  24719395.078                    24719405.934
 114052194.463 8  88871910.38745  21703409.070                    21703416.527
 118396734.520 7  92257320.33145  22530125.406                    22530133.695
 110000906.763 8  85715050.802 7  20932472.227                    20932479.043
 106521899.583 8  83004182.973 8  20270423.570                    20270431.141
 114473955.007 8  89200556.723 7  21783670.813                    21783680.832
 123650296.100 7  96350915.219 6  23529859.375                    23529867.742
 111651905.329 8  87001583.24446  21246628.102                    21246633.449
 11  8 21  1 43  0.0000000  0  9G04G26G30G10G12G05G25G29G02
 128055913.313 7  99783929.14843  24368217.711                    24368227.582
 129808670.378 6 101149676.58143  24701773.680                    24701783.863
 114032694.603 8  88856715.70945  21699697.984                    21699705.563
 118487388.639 7  92327959.89844  22547376.555                    22547384.555
 110033748.995 8  85740642.156 7  20938721.859                    20938728.633
 106516351.950 8  82999860.163 8  20269367.516                    20269374.977
 114440646.836 8  89174602.340 7  21777332.375                    21777342.465
 123567064.981 7  96286059.868 6  23514020.844                    23514029.852
 111684595.945 8  87027056.45746  21252848.844                    21252854.188
 11  8 21  1 43 30.0000000  0  9G04G26G30G10G12G05G25G29G02
 128134821.331 7  99845415.94243  24383233.633                    24383243.383
 129715949.229 6 101077426.47543  24684129.242                    24684139.945
 114013798.806 8  88841991.73645  21696102.195                    21696110.133
 118578363.954 7  92398849.74345  22564688.531                    22564697.191
 110067137.436 8  85766659.127 7  20945075.445                    20945082.574
 106511379.563 8  82995985.598 8  20268421.352                    20268428.488
 114407896.371 8  89149082.530 7  21771100.242                    21771110.105
 123483818.885 7  96221192.822 6  23498179.688                    23498188.418
 111717394.138 8  87052613.50246  21259090.070                    21259095.234
 11  8 21  1 44  0.0000000  0  9G04G26G30G10G12G05G25G29G02
 128213668.764 7  99906855.52543  24398237.906                    24398247.512
 129623112.772 6 101005086.52743  24666462.898                    24666473.645
 113995507.491 8  88827738.78345  21692621.586                    21692629.348
 118669657.425 7  92469987.47244  22582061.367                    22582069.598
 110101070.837 8  85793100.745 7  20951532.672                    20951540.273
 106506982.058 8  82992558.987 8  20267584.273                    20267591.770
 114375704.662 8  89123998.116 7  21764974.406                    21764984.363
 123400558.880 7  96156314.938 6  23482335.656                    23482343.727
 111750299.398 8  87078253.96946  21265351.547                    21265357.293
 11  8 21  1 44 30.0000000  0  9G04G26G30G10G12G05G25G29G02
 128292455.093 7  99968247.49543  24413230.898                    24413239.688
 129530163.639 6 100932658.76943  24648775.570                    24648786.262
 113977820.717 8  88813956.88845  21689256.203                    21689263.926
 118761265.813 7  92541370.59244  22599494.359                    22599502.172
 110135547.416 7  85819965.617 7  20958093.500                    20958100.523
 106503158.383 8  82989579.522 8  20266856.773                    20266864.410
 114344072.456 8  89099349.680 7  21758955.016                    21758965.211
 123317286.350 7  96091427.323 6  23466489.445                    23466497.801
 111783310.661 7  87103977.04846  21271633.570                    21271638.910
 11  8 21  1 45  0.0000000  0  9G04G26G30G10G12G05G25G29G02
 128371180.519 6 100029591.99143  24428211.227                    24428220.809
 129437104.955 6 100860145.67043  24631066.703                    24631078.016
 113960738.879 8  88800646.37745  21686005.422                    21686013.039
 118853186.401 7  92612997.00544  22616985.813                    22616993.715
 110170566.076 8  85847252.892 7  20964757.289                    20964764.547
 106499908.579 8  82987047.233 8  20266238.625                    20266245.344
 114313000.889 8  89075138.109 7  21753042.297                    21753052.063
 123234002.598 7  96026530.949 6  23450641.266                    23450649.559
 111816427.816 8  87129782.64046  21277935.641                    21277941.113
 11  8 21  1 45 30.0000000  0  9G04G26G30G10G12G05G25G29G02
 128449844.553 6 100090888.66143  24443180.039                    24443189.852
 129343939.845 6 100787549.61743  24613337.828                    24613348.520
 113944262.401 8  88787807.56145  21682870.188                    21682878.258
 118945416.366 7  92684864.48544  22634536.617                    22634544.617
 110206125.619 7  85874961.630 7  20971524.070                    20971531.387
 106497232.428 8  82984961.950 8  20265729.086                    20265736.082
 114282491.069 7  89051364.253 7  21747235.898                    21747246.332
 123150708.742 7  95961626.729 6  23434790.781                    23434799.039
 111849650.398 7  87155670.38246  21284257.539                    21284262.656
 11  8 21  1 46  0.0000000  0  9G04G26G30G10G12G05G25G29G02
 128528446.914 6 100152137.36242  24458137.383                    24458147.797
 129250670.779 6 100714872.55743  24595589.219                    24595599.785
 113928391.389 8  88775440.54346  21679849.734                    21679858.086
 119037952.916 7  92756970.86044  22652145.328                    22652154.328
 110242224.161 8  85903090.378 7  20978393.531                    20978400.547
 106495129.145 8  82983323.066 8  20265329.313                    20265336.086
 114252543.806 8  89028028.744 7  21741537.398                    21741547.367
 123067406.377 7  95896715.875 6  23418939.016                    23418946.902
 111882977.542 7  87181639.60246  21290599.359                    21290604.609
 11  8 21  1 46 30.0000000  0  9G04G26G30G10G12G05G25G29G02
 128606987.379 6 100213337.65742  24473083.859                    24473093.254
 129157301.163 6 100642117.15543  24577821.406                    24577831.973
 113913126.104 8  88763545.50545  21676944.914                    21676953.043
 119130793.198 7  92829313.90344  22669813.258                    22669820.789
 110278860.138 8  85931637.891 7  20985364.945                    20985372.008
 106493598.355 8  82982130.270 8  20265037.641                    20265044.961
 114223160.071 8  89005132.338 7  21735945.805                    21735955.961
 122984096.611 7  95831799.267 6  23403085.125                    23403093.605
 111916408.759 8  87207689.91346  21296960.906                    21296966.590
 11  8 21  1 47  0.0000000  0  9G04G26G30G10G12G05G25G29G02
 128685465.742 6 100274489.66742  24488017.664                    24488027.441
 129063833.616 6 100569285.45643  24560035.141                    24560045.621
 113898466.618 8  88752122.53945  21674155.297                    21674163.121
 119223934.050 7  92901891.19544  22687536.953                    22687545.113
 110316032.494 8  85960603.365 7  20992438.648                    20992445.684
 106492639.415 8  82981383.083 8  20264854.969                    20264862.199
 114194340.708 8  88982675.703 7  21730461.805                    21730471.680
 122900780.810 7  95766877.951 6  23387230.664                    23387239.430
 111949943.598 7  87233820.96346  21303342.734                    21303347.918
 11  8 21  1 47 30.0000000  0  9G04G26G30G10G12G05G25G29G02
 128763881.624 6 100335592.94142  24502939.523                    24502949.465
 128970271.299 6 100496379.87343  24542230.555                    24542241.277
 113884413.086 8  88741171.72745  21671481.086                    21671489.035
 119317372.674 7  92974700.47444  22705317.445                    22705325.117
 110353739.041 8  85989985.097 7  20999613.930                    20999621.195
 106492251.735 8  82981081.034 8  20264781.320                    20264788.527
 114166086.506 8  88960659.456 7  21725085.477                    21725095.016
 122817460.266 7  95701952.953 6  23371375.180                    23371383.695
 111983581.087 8  87260031.99846  21309743.430                    21309748.832
 11  8 21  1 48  0.0000000  0  9G04G26G30G10G12G05G25G29G02
 128842234.726 5 100396647.29542  24517849.055                    24517858.852
 128876617.041 6 100423402.65143  24524408.555                    24524418.965
 113870965.529 8  88730693.10745  21668922.039                    21668930.418
 119411106.177 7  93047739.54244  22723154.906                    22723162.637
 110391978.239 8  86019781.886 7  21006890.633                    21006897.809
 106492434.784 8  82981223.710 8  20264816.398                    20264823.082
 114138398.280 8  88939084.229 7  21719816.188                    21719826.176
 122734136.352 6  95637025.333 6  23355519.117                    23355527.707
 112017320.677 8  87286322.59146  21316164.156                    21316169.422
 11  8 21  1 48 30.0000000  0  9G04G26G30G10G12G05G25G29G02
 128920525.034 6 100457652.65442  24532748.109                    24532757.309
 128782873.997 6 100350356.24243  24506570.195                    24506580.129
 113858124.205 8  88720686.89145  21666478.352                    21666486.008
 119505131.612 7  93121006.09744  22741046.742                    22741055.078
 110430749.003 8  86049992.864 7  21014268.398                    21014275.551
 106493188.098 8  82981810.734 8  20264959.625                    20264966.902
 114111277.007 8  88917950.778 7  21714655.586                    21714665.688
 122650810.391 7  95572096.113 6  23339662.703                    23339671.047
 112051162.177 8  87312692.59346  21322604.109                    21322609.516
 11  8 21  1 49  0.0000000  0  9G04G26G30G10G12G05G25G29G02
 128998752.242 6 100518608.91442  24547634.500                    24547643.469
 128689045.022 6 100277242.86243  24488715.008                    24488724.973
 113845889.071 8  88711153.02745  21664150.383                    21664158.219
 119599446.055 7  93194497.85044  22758994.375                    22759002.082
 110470049.363 8  86080616.528 7  21021746.703                    21021753.836
 106494510.943 8  82982841.559 8  20265210.992                    20265218.422
 114084723.381 8  88897259.653 7  21709602.000                    21709612.688
 122567483.841 7  95507166.425 6  23323806.063                    23323814.695
 112085104.948 8  87339141.48546  21329063.195                    21329068.410
 11  8 21  1 49 30.0000000  0  9G04G26G30G10G12G05G25G29G02
 129076916.090 6 100579515.79143  24562508.289                    24562517.664
 128595133.072 6 100204064.87343  24470843.141                    24470854.426
 113834260.128 8  88702091.53045  21661937.367                    21661945.633
 119694046.864 7  93268212.74844  22776996.711                    22777004.375
 110509877.557 8  86111651.494 7  21029326.180                    21029333.617
 106496402.637 8  82984315.625 8  20265571.070                    20265578.059
 114058738.046 8  88877011.360 7  21704657.109                    21704667.730
 122484158.080 7  95442237.353 6  23307949.461                    23307958.371
 112119148.254 8  87365668.72346  21335541.211                    21335546.234
 11  8 21  1 50  0.0000000  0  9G04G26G30G10G12G05G25G29G02
 129155016.276 6 100640373.09643  24577370.078                    24577379.813
 128501141.323 6 100130824.64643  24452958.258                    24452968.227
 113823237.451 8  88693502.44745  21659839.563                    21659847.734
 119788930.791 7  93342148.25944  22795051.766                    22795060.754
 110550232.032 8  86143096.534 7  21037005.242                    21037012.746
 106498862.488 8  82986232.417 8  20266039.133                    20266046.254
 114033321.901 8  88857206.586 7  21699821.180                    21699831.129
 122400834.240 7  95377309.782 6  23292093.094                    23292102.250
 112153291.582 8  87392273.90746  21342038.750                    21342043.863
 11  8 21  1 50 30.0000000  0  9G04G26G30G10G12G05G25G29G02
 129233052.996 7 100701180.89343  24592220.805                    24592229.547
 128407072.808 6 100057524.60243  24435057.055                    24435067.484
 113812821.139 8  88685385.86045  21657857.633                    21657865.813
 119884095.120 7  93416302.25544  22813161.672                    22813169.371
 110591111.282 8  86174950.503 7  21044783.930                    21044791.188
 106501890.243 8  82988591.723 8  20266615.430                    20266622.539
 114008475.750 8  88837845.954 7  21695092.758                    21695102.832
 122317513.792 7  95312384.829 6  23276238.789                    23276246.977
 112187534.685 7  87418956.83146  21348554.680                    21348559.867
 11  8 21  1 51  0.0000000  0  9G04G26G30G10G12G05G25G29G02
 129311025.459 6 100761938.65844  24607057.578                    24607067.492
 128312930.380 6  99984166.96343  24417142.211                    24417152.801
 113803010.757 8  88677741.42745  21655990.680                    21655998.984
 119979536.467 6  93490672.12644  22831323.188                    22831331.242
 110632513.299 8  86207211.825 7  21052662.750                    21052670.004
 106505484.239 8  82991392.247 8  20267299.266                    20267306.648
 113984199.893 8  88818929.723 7  21690473.023                    21690483.066
 122234198.081 7  95247463.573 6  23260383.688                    23260392.227
 112221876.605 8  87445716.76046  21355089.633                    21355094.777
 11  8 21  1 51 30.0000000  0  9G04G26G30G10G12G05G25G29G02
 129388934.039 7 100822646.62444  24621883.234                    24621893.230
 128218717.486 6  99910754.43743  24399213.711                    24399224.598
 113793806.703 8  88670569.46845  21654239.000                    21654247.328
 120075252.530 7  93565256.04344  22849537.781                    22849545.379
 110674436.860 8  86239879.528 7  21060640.438                    21060647.727
 106509644.926 8  82994634.362 8  20268091.289                    20268098.215
 113960495.567 8  88800458.822 7  21685962.727                    21685972.324
 122150888.831 7  95182547.332 6  23244530.422                    23244539.133
 112256317.516 7  87472553.83346  21361643.664                    21361649.164
 11  8 21  1 52  0.0000000  0  9G04G26G30G10G12G05G25G29G02
 129466778.346 7 100883304.52343  24636697.141                    24636706.250
 128124436.749 6  99837289.04443  24381272.992                    24381282.773
 113785208.505 8  88663869.60045  21652603.188                    21652611.020
 120171240.457 7  93640051.82244  22867803.922                    22867812.090
 110716879.800 8  86272951.955 7  21068717.094                    21068724.176
 106514370.752 8  82998316.832 8  20268990.219                    20268997.336
 113937362.991 8  88782433.444 7  21681560.602                    21681570.324
 122067587.267 7  95117637.089 6  23228678.750                    23228687.148
 112290856.508 7  87499467.33246  21368215.938                    21368221.508
 11  8 21  1 52 30.0000000  0  9G04G26G30G10G12G05G25G29G02
 129544558.187 7 100943912.17244  24651497.359                    24651507.609
 128030091.593 6  99763773.42343  24363319.445                    24363329.871
 113777216.222 8  88657641.87045  21651082.102                    21651089.844
 120267497.227 7  93715057.08944  22886120.508                    22886128.672
 110759840.655 8  86306427.949 7  21076892.336                    21076899.871
 106519661.364 8  83002439.391 8  20269996.953                    20270004.168
 113914802.979 8  88764854.228 7  21677267.438                    21677277.289
 121984294.937 7  95052734.022 6  23212828.883                    23212837.438
 112325493.342 7  87526457.07046  21374807.547                    21374813.090
 11  8 21  1 53  0.0000000  0  9G04G26G30G10G12G05G25G29G02
 129622273.366 7 101004469.44143  24666286.914                    24666296.313
 127935684.874 6  99690209.87243  24345354.938                    24345364.875
 113769829.497 8  88651886.00845  21649676.320                    21649684.031
 120364019.795 7  93790269.45544  22904488.109                    22904496.508
 110803317.048 8  86340305.656 7  21085165.492                    21085172.785
 106525515.668 8  83007001.199 8  20271111.156                    20271118.160
 113892815.876 8  88747721.447 7  21673083.297                    21673093.313
 121901013.121 7  94987839.145 6  23196980.680                    23196989.219
 112360227.116 8  87553522.35646  21381416.867                    21381422.293
 11  8 21  1 53 30.0000000  0  8G26G30G10G12G05G25G29G02
 127841220.178 6  99616601.15443  24327377.430                    24327388.457
 113763048.775 8  88646602.34946  21648386.211                    21648394.094
 120460805.871 7  93865687.15044  22922906.102                    22922914.109
 110847308.266 8  86374584.534 7  21093536.945                    21093543.891
 106531933.481 8  83012002.109 8  20272331.992                    20272339.320
 113871402.944 8  88731036.068 7  21669008.664                    21669019.059
 121817743.631 6  94922953.867 6  23181134.664                    23181143.293
 112395058.248 8  87580663.49946  21388045.477                    21388050.434
 11  8 21  1 54  0.0000000  0  8G26G30G10G12G05G25G29G02
 127746699.942 6  99542949.14943  24309392.039                    24309401.828
 113756873.052 8  88641790.12245  21647210.648                    21647219.145
 120557851.769 7  93941307.28744  22941373.273                    22941381.207
 110891811.144 8  86409262.097 7  21102005.625                    21102012.672
 106538912.921 8  83017440.648 8  20273660.297                    20273667.680
 113850563.986 8  88714797.935 7  21665043.125                    21665052.969
 121734487.480 7  94858078.961 6  23165291.906                    23165300.590
 112429985.259 8  87607879.36246  21394691.711                    21394696.992
 11  8 21  1 54 30.0000000  0  8G26G30G10G12G05G25G29G02
 127652127.669 6  99469256.58143  24291394.883                    24291404.980
 113751302.353 8  88637449.34445  21646150.727                    21646159.023
 120655154.762 7  94017127.79444  22959889.438                    22959897.125
 110936824.514 8  86444337.449 7  21110571.570                    21110578.430
 106546453.692 8  83023316.592 8  20275095.641                    20275102.527
 113830299.754 8  88699007.639 7  21661187.047                    21661197.035
 121651246.407 6  94793215.831 6  23149451.758                    23149459.715
 112465007.945 8  87635169.77646  21401355.961                    21401361.660
 11  8 21  1 55  0.0000000  0  8G26G30G10G12G05G25G29G02
 127557506.325 6  99395525.82543  24273390.086                    24273399.184
 113746336.334 8  88633579.73246  21645206.070                    21645213.637
 120752712.110 7  94093146.52044  22978454.336                    22978461.754
 110982346.336 8  86479808.994 7  21119233.977                    21119241.289
 106554554.756 8  83029629.134 8  20276636.570                    20276643.750
 113810610.651 8  88683665.503 7  21657440.133                    21657450.230
 121568021.893 7  94728365.606 6  23133614.570                    23133622.602
 112500126.184 8  87662534.64946  21408038.727                    21408043.926
 11  8 21  1 55 30.0000000  0  8G26G30G10G12G05G25G29G02
 127462839.073 6  99321759.27543  24255374.492                    24255384.922
 113741974.662 8  88630181.04845  21644375.711                    21644384.438
 120850520.830 7  94169361.11344  22997066.789                    22997074.035
 111028374.915 8  86515675.410 7  21127992.727                    21127999.957
 106563214.984 8  83036377.383 8  20278284.734                    20278291.648
 113791497.134 8  88668771.870 7  21653802.883                    21653812.578
 121484815.223 7  94663529.286 6  23117780.391                    23117788.746
 112535339.196 8  87689973.37446  21414739.664                    21414744.910
 11  8 21  1 56  0.0000000  0  8G26G30G10G12G05G25G29G02
 127368129.260 6  99247959.59143  24237351.930                    24237361.969
 113738217.248 8  88627253.19445  21643660.641                    21643668.262
 120948578.104 7  94245769.37744  23015726.188                    23015733.223
 111074908.485 8  86551935.330 7  21136847.625                    21136855.023
 106572433.967 8  83043561.031 8  20280039.273                    20280046.422
 113772959.833 8  88654327.231 7  21650275.758                    21650285.371
 121401628.292 6  94598708.336 6  23101950.531                    23101959.258
 112570646.857 8  87717485.83946  21421458.781                    21421463.859
 11  8 21  1 56 30.0000000  0  8G26G30G10G12G05G25G29G02
 127273379.915 6  99174129.09043  24219321.133                    24219331.844
 113735063.709 7  88624795.89345  21643060.602                    21643068.344
 121046881.320 6  94322369.26544  23034432.453                    23034440.563
 111121944.808 8  86588587.003 7  21145798.656                    21145805.898
 106582210.673 8  83051179.264 8  20281899.438                    20281906.914
 113754999.236 8  88640331.970 7  21646857.672                    21646867.309
 121318462.325 7  94533903.717 6  23086124.383                    23086133.063
 112606048.614 8  87745071.62746  21428195.359                    21428200.766
 11  8 21  1 57  0.0000000  0  8G26G30G10G12G05G25G29G02
 127178594.273 6  99100270.28943  24201283.891                    24201294.316
 113732513.354 8  88622808.60345  21642575.359                    21642583.188
 121145427.245 6  94399158.27444  23053184.672                    23053192.625
 111169481.695 8  86625628.718 7  21154844.586                    21154851.852
 106592543.824 8  83059231.097 8  20283865.672                    20283873.121
 113737615.466 8  88626786.176 7  21643549.703                    21643559.816
 121235318.829 7  94469116.627 6  23070302.727                    23070311.461
 112641543.918 8  87772730.31046  21434949.836                    21434955.215
 11  8 21  1 57 30.0000000  0  8G26G30G10G12G05G25G29G02
 127083775.289 6  99026385.48243  24183240.492                    24183250.684
 113730565.930 8  88621291.11745  21642204.555                    21642212.535
 121244212.963 6  94476134.13344  23071983.156                    23071991.625
 111217517.568 8  86663059.268 7  21163985.516                    21163992.984
 106603432.300 8  83067715.649 8  20285938.250                    20285945.254
 113720808.928 8  88613690.171 7  21640351.789                    21640361.504
 121152199.592 7  94404348.416 6  23054486.070                    23054493.953
 112677132.336 8  87800461.55046  21441721.914                    21441727.125
 11  8 21  1 58  0.0000000  0  8G26G30G10G12G05G25G29G02
 126988926.282 6  98952477.30143  24165190.953                    24165201.168
 113729220.909 8  88620243.04746  21641948.711                    21641956.539
 121343235.855 7  94553294.78944  23090826.742                    23090834.926
 111266050.300 8  86700876.976 7  21173220.961                    21173227.898
 106614875.067 8  83076632.107 8  20288115.398                    20288122.813
 113704579.867 8  88601044.162 7  21637262.688                    21637273.422
 121069105.598 7  94339599.891 6  23038673.789                    23038681.734
 112712813.537 8  87828265.08846  21448511.563                    21448517.711
 11  8 21  1 58 30.0000000  0  8G26G30G10G12G05G25G29G02
 126894050.596 7  98878548.32543  24147137.094                    24147147.125
 113728477.995 8  88619664.13745  21641807.242                    21641815.809
 121442493.002 6  94630637.99944  23109714.227                    23109722.953
 111315077.642 8  86739080.090 7  21182550.625                    21182557.520
 106626871.496 8  83085979.995 8  20290398.008                    20290405.523
 113688928.846 8  88588848.553 7  21634285.063                    21634295.309
 120986038.969 7  94274872.687 6  23022866.484                    23022875.094
 112748587.354 8  87856140.79446  21455319.320                    21455324.871
 11  8 21  1 59  0.0000000  0  8G26G30G10G12G05G25G29G02
 126799151.394 7  98804601.02043  24129078.430                    24129087.508
 113728336.606 8  88619553.95345  21641780.367                    21641788.633
 121541981.407 6  94708161.43044  23128647.164                    23128655.102
 111364597.924 8  86777667.313 7  21191974.242                    21191980.609
 106639420.300 8  83095758.303 8  20292786.133                    20292793.383
 113673856.091 8  88577103.540 7  21631416.914                    21631427.082
 120903001.088 7  94210167.884 6  23007064.852                    23007073.016
 112784453.308 8  87884088.30146  21462144.109                    21462149.727
 11  8 21  1 59 30.0000000  0  8G26G30G10G12G05G25G29G02
 126704231.847 7  98730637.86743  24111015.445                    24111024.824
 113728796.193 8  88619912.06145  21641868.477                    21641876.125
 121641698.474 7  94785863.05744  23147622.000                    23147630.801
 111414609.194 8  86816637.124 7  21201490.758                    21201498.047
 106652520.375 8  83105966.176 8  20295279.188                    20295286.480
 113659361.779 8  88565809.268 7  21628658.352                    21628668.785
 120819993.447 7  94145486.641 6  22991268.961                    22991276.980
 112820410.998 8  87912107.29246  21468987.055                    21468992.801
 11  8 21  2  0  0.0000000  0  8G26G30G10G12G05G25G29G02
 126609294.847 7  98656661.09343  24092949.563                    24092958.813
 113729856.039 8  88620737.90245  21642069.586                    21642077.488
 121741641.157 7  94863740.46344  23166640.844                    23166648.461
 111465108.914 8  86855987.549 7  21211100.945                    21211107.684
 106666170.291 8  83116602.496 8  20297876.359                    20297883.402
 113645446.025 8  88554965.815 7  21626010.539                    21626020.469
 120737017.807 7  94080830.352 6  22975479.406                    22975487.898
 112856459.617 8  87940197.12346  21475846.563                    21475852.281
 11  8 21  2  0 30.0000000  0  8G26G30G10G12G05G25G29G02
 126514344.181 6  98582673.68043  24074880.750                    24074889.957
 113731515.658 8  88622031.10546  21642385.813                    21642393.305
 121841806.491 7  94941791.36344  23185702.156                    23185710.301
 111516095.112 8  86895717.051 7  21220802.898                    21220810.344
 106680369.234 8  83127666.627 8  20300578.453                    20300585.480
 113632109.100 8  88544573.399 7  21623472.586                    21623482.254
 120654075.630 7  94016200.136 6  22959696.313                    22959704.406
 112892599.249 8  87968357.87946  21482724.203                    21482729.336
 11  8 21  2  1  0.0000000  0  8G26G30G10G12G05G25G29G02
 126419382.801 6  98508677.89843  24056810.086                    24056819.988
 113733774.556 8  88623791.29345  21642815.453                    21642823.605
 121942192.046 7  95020013.83544  23204805.398                    23204812.918
 111567565.932 8  86935824.171 7  21230597.523                    21230604.711
 106695116.016 8  83139157.639 8  20303384.383                    20303391.621
 113619351.345 8  88534632.287 7  21621044.664                    21621054.727
 120571168.614 7  93951597.314 6  22943918.984                    22943927.566
 112928829.378 8  87996589.13646  21489618.391                    21489623.949
 11  8 21  2  1 30.0000000  0  8G26G30G10G12G05G25G29G02
 126324414.067 6  98434676.40343  24038737.969                    24038747.969
 113736632.051 8  88626017.90245  21643359.156                    21643366.656
 122042794.768 7  95098405.54944  23223948.570                    23223956.855
 111619518.947 8  86976307.036 7  21240483.836                    21240490.727
 106710409.384 8  83151074.570 8  20306294.859                    20306302.090
 113607172.801 8  88525142.514 7  21618727.594                    21618737.059
 120488298.353 7  93887023.135 7  22928149.227                    22928158.008
 112965149.871 8  88024890.82146  21496530.031                    21496535.285
 11  8 21  2  2  0.0000000  0  8G26G30G10G12G05G25G29G02
 126229441.232 6  98360671.73643  24020665.398                    24020675.258
 113740087.475 8  88628710.43046  21644016.453                    21644024.098
 122143611.958 7  95176964.40144  23243133.656                    23243141.309
 111671952.046 8  87017163.985 7  21250461.406                    21250468.523
 106726248.266 8  83163416.576 8  20309309.164                    20309315.684
 113595573.685 8  88516104.244 7  21616520.047                    21616530.309
 120405466.481 7  93822478.887 6  22912386.914                    22912395.527
 113001560.381 8  88053262.65346  21503458.563                    21503464.129
 11  8 21  2  2 30.0000000  0  8G26G30G10G12G05G25G29G02
 126134467.639 6  98286666.45343  24002592.164                    24002601.750
 113744140.125 8  88631868.34645  21644788.219                    21644795.504
 122244640.641 7  95255688.05843  23262358.711                    23262366.363
 111724863.450 8  87058393.651 7  21260530.336                    21260537.039
 106742631.339 8  83176182.620 8  20312426.594                    20312433.398
 113584554.107 8  88507517.579 7  21614423.156                    21614433.453
 120322674.758 7  93757965.913 6  22896632.305                    22896640.500
 113038060.500 8  88081704.30046  21510404.461                    21510409.410
 11  8 21  2  3  0.0000000  0  8G26G30G10G12G05G25G29G02
 126039496.510 6  98212663.09443  23984519.852                    23984529.621
 113748789.187 8  88635491.00546  21645672.063                    21645680.563
 122345877.745 7  95334574.12644  23281623.086                    23281631.547
 111778250.612 8  87099994.026 7  21270689.680                    21270697.207
 106759557.135 8  83189371.568 8  20315647.414                    20315654.434
 113574113.953 8  88499382.430 7  21612436.195                    21612447.023
 120239924.467 7  93693485.231 6  22880885.258                    22880894.098
 113074649.787 8  88110215.44246  21517367.203                    21517372.664
 11  8 21  2  3 30.0000000  0  8G26G30G10G12G05G25G29G02
 125944531.161 6  98138664.22843  23966448.656                    23966458.094
 113754034.057 8  88639577.92945  21646671.102                    21646678.852
 122447320.712 7  95413620.57644  23300927.133                    23300935.254
 111832111.342 8  87141963.417 7  21280938.844                    21280945.965
 106777024.634 8  83202982.615 8  20318971.313                    20318978.719
 113564253.451 8  88491698.943 7  21610559.969                    21610570.148
 120157217.563 7  93629038.371 6  22865146.695                    22865154.395
 113111328.161 8  88138795.99646  21524346.813                    21524352.285
 11  8 21  2  4  0.0000000  0  8G26G30G10G12G05G25G29G02
 125849574.813 6  98064672.38243  23948378.523                    23948388.219
 113759873.713 8  88644128.33146  21647781.961                    21647790.352
 122548966.544 7  95492825.09544  23320269.453                    23320277.953
 111886443.382 8  87184300.061 7  21291278.188                    21291285.375
 106795032.422 8  83217014.682 8  20322398.469                    20322404.969
 113554972.397 8  88484466.987 7  21608793.766                    21608803.789
 120074555.754 7  93564626.635 6  22849416.656                    22849424.270
 113148094.921 8  88167445.42546  21531343.266                    21531348.707
 11  8 21  2  4 30.0000000  0  8G26G30G10G12G05G25G29G02
 125754630.918 6  97990690.24443  23930311.508                    23930320.480
 113766307.687 8  88649141.84245  21649006.102                    21649014.070
 122650813.207 7  95572186.10844  23339650.547                    23339659.164
 111941245.027 8  87227002.637 7  21301706.336                    21301713.227
 106813579.663 8  83231467.094 8  20325927.273                    20325934.727
 113546271.194 8  88477686.862 7  21607137.820                    21607147.773
 119991940.622 7  93500251.293 6  22833695.461                    22833703.652
 113184950.064 8  88196163.70845  21538356.750                    21538361.457
 11  8 21  2  5  0.0000000  0  8G26G30G10G12G05G25G29G02
 125659702.729 6  97916720.28243  23912246.867                    23912256.402
 113773334.743 8  88654617.50045  21650343.219                    21650351.246
 122752857.105 7  95651700.80643  23359069.180                    23359076.902
 111996513.310 8  87270068.832 7  21312223.328                    21312230.852
 106832664.191 8  83246338.164 8  20329559.023                    20329566.410
 113538149.366 8  88471358.201 7  21605592.102                    21605602.000
 119909373.464 7  93435913.328 6  22817983.125                    22817991.215
 113221893.033 8  88224950.43446  21545386.680                    21545392.359
 11  8 21  2  5 30.0000000  0  8G26G30G10G12G05G25G29G02
 125564793.610 6  97842765.23943  23894186.672                    23894195.711
 113780954.321 8  88660554.86745  21651793.070                    21651801.270
 122855095.585 7  95731367.16943  23378524.125                    23378532.238
 112052246.234 7  87313497.071 7  21322829.344                    21322836.410
 106852285.280 8  83261627.336 8  20333292.711                    20333299.957
 113530607.111 8  88465481.148 7  21604156.953                    21604166.973
 119826856.531 7  93371614.499 6  22802280.648                    22802288.734
 113258923.819 8  88253805.59946  21552433.398                    21552438.445
 11  8 21  2  6  0.0000000  0  8G26G30G10G12G05G25G29G02
 125469906.974 6  97768827.66244  23876130.266                    23876140.023
 113789165.466 8  88666953.18245  21653355.555                    21653363.418
 122957525.912 7  95811183.01544  23398016.391                    23398024.164
 112108441.647 8  87357285.702 7  21333522.555                    21333530.488
 106872441.628 8  83277333.597 8  20337128.352                    20337135.438
 113523644.356 8  88460055.663 7  21602832.219                    21602842.305
 119744391.489 7  93307356.114 6  22786587.984                    22786596.055
 113296042.085 8  88282728.92046  21559496.844                    21559502.418
 11  8 21  2  6 30.0000000  0  8G26G30G10G12G05G25G29G02
 125375046.068 7  97694910.17243  23858078.539                    23858088.422
 113797967.226 8  88673811.71645  21655030.570                    21655038.688
 123060145.155 7  95891146.05644  23417544.094                    23417552.344
 112165097.070 8  87401432.772 7  21344304.055                    21344311.297
 106893131.521 8  83293455.608 8  20341065.547                    20341072.582
 113517260.905 8  88455081.576 7  21601617.836                    21601627.352
 119661979.935 7  93243139.405 7  22770905.359                    22770913.875
 113333247.378 8  88311720.05946  21566576.602                    21566582.535
 11  8 21  2  7  0.0000000  0  8G26G30G10G12G05G25G29G02
 125280214.173 6  97621015.27243  23840032.695                    23840042.590
 113807358.641 8  88681129.73045  21656817.828                    21656825.719
 123162950.882 7  95971254.39644  23437107.375                    23437115.738
 112222210.349 7  87445936.613 7  21355172.469                    21355179.305
 106914353.362 8  83309992.124 8  20345103.961                    20345110.813
 113511456.581 8  88450558.760 7  21600512.875                    21600522.211
 119579623.304 7  93178965.486 6  22755233.508                    22755242.148
 113370539.608 7  88340778.94946  21573673.453                    21573678.871
 11  8 21  2  7 30.0000000  0  8G26G30G10G12G05G25G29G02
 125185414.647 6  97547145.56643  23821992.953                    23822002.016
 113817338.559 8  88688906.31045  21658716.367                    21658725.031
 123265939.951 7  96051505.59344  23456705.070                    23456713.254
 112279779.106 8  87490795.376 7  21366127.492                    21366134.254
 106936105.915 8  83326942.177 8  20349243.281                    20349250.746
 113506231.090 8  88446486.974 7  21599518.391                    21599528.652
 119497323.664 7  93114835.977 7  22739572.977                    22739580.809
 113407918.260 8  88369905.16846  21580786.195                    21580791.406
 11  8 21  2  8  0.0000000  0  8G26G30G10G12G05G25G29G02
 125090651.000 6  97473303.85043  23803960.156                    23803968.719
 113827906.105 8  88697140.78445  21660727.336                    21660735.656
 123369109.532 6  96131897.44743  23476337.844                    23476345.754
 112337800.677 8  87536006.978 7  21377168.328                    21377175.625
 106958387.532 8  83344304.496 8  20353483.656                    20353490.227
 113501584.357 8  88442866.172 7  21598634.117                    21598644.523
 119415082.544 7  93050752.068 7  22723922.609                    22723930.652
 113445383.466 8  88399098.84146  21587915.586                    21587921.012
 11  8 21  2  8 30.0000000  0  8G26G30G10G12G05G25G29G02
 124995926.963 6  97399493.00543  23785934.297                    23785943.316
 113839060.709 8  88705832.69645  21662850.250                    21662857.895
 123472457.068 7  96212427.98443  23496003.977                    23496012.625
 112396273.093 8  87581569.887 7  21388295.328                    21388302.883
 106981197.504 8  83362078.522 8  20357823.969                    20357830.746
 113497516.559 8  88439696.486 7  21597860.203                    21597870.203
 119332902.091 7  92986715.436 7  22708283.977                    22708292.086
 113482935.293 8  88428360.00046  21595061.125                    21595066.625
 11  8 21  2  9  0.0000000  0  8G26G30G10G12G05G25G29G02
 124901245.564 6  97325715.36143  23767917.008                    23767926.043
 113850800.806 8  88714980.83245  21665084.172                    21665092.625
 123575979.557 6  96293094.81044  23515704.305                    23515712.336
 112455193.914 8  87627482.214 7  21399507.484                    21399515.098
 107004533.548 8  83380262.465 8  20362264.859                    20362271.770
 113494026.961 8  88436977.338 7  21597196.211                    21597205.844
 119250783.513 7  92922727.006 7  22692657.227                    22692665.289
 113520572.686 8  88457687.82946  21602223.414                    21602228.512
 11  8 21  2  9 30.0000000  0  8G26G30G10G12G05G25G29G02
 124806610.288 6  97251973.68743  23749908.508                    23749917.426
 113863125.709 8  88724584.67345  21667429.703                    21667437.895
 123679674.710 7  96373896.22443  23535436.547                    23535445.063
 112514560.897 8  87673742.188 7  21410804.547                    21410811.719
 107028394.810 8  83398855.673 8  20366805.500                    20366812.516
 113491115.793 8  88434708.902 7  21596642.211                    21596651.762
 119168729.207 7  92858788.654 7  22677042.609                    22677051.000
 113558296.218 8  88487082.78445  21609401.984                    21609407.234
 11  8 21  2 10  0.0000000  0  8G26G30G10G12G05G25G29G02
 124712024.384 6  97178270.48143  23731908.844                    23731918.848
 113876033.786 8  88734642.92545  21669886.461                    21669894.133
 123783539.448 7  96454829.77343  23555201.742                    23555209.398
 112574371.114 7  87720347.531 7  21422186.680                    21422193.590
 107052779.100 8  83417856.429 8  20371445.727                    20371452.172
 113488782.130 8  88432890.475 7  21596197.953                    21596208.242
 119086740.589 7  92794901.490 7  22661440.836                    22661448.930
 113596104.943 8  88516544.11746  21616596.727                    21616601.602
 11  8 21  2 10 30.0000000  0  9G15G26G30G10G12G05G25G29G02
 129367929.69916 100806186.35616  24617888.039                    24617899.109
 124617491.404 6  97104608.53643  23713920.273                    23713929.656
 113889524.081 8  88745154.85745  21672453.383                    21672460.895
 123887571.108 7  96535893.38843  23574997.813                    23575005.988
 112634622.467 8  87767296.645 7  21433651.789                    21433658.680
 107077685.178 8  83437263.774 8  20376184.820                    20376192.133
 113487025.908 8  88431522.008 7  21595863.797                    21595873.738
 119004819.499 7  92731066.909 7  22645851.445                    22645859.844
 113633998.825 8  88546071.80946  21623807.898                    21623813.371
 11  8 21  2 11  0.0000000  0  9G15G26G30G10G12G05G25G29G02
 129274997.453 6 100733771.854 6  24600204.914                    24600214.824
 124523014.353 7  97030990.12743  23695942.445                    23695951.348
 113903595.248 8  88756119.41245  21675130.695                    21675138.879
 123991766.955 7  96617084.93043  23594825.328                    23594833.734
 112695311.952 8  87814587.143 7  21445200.375                    21445207.473
 107103111.149 8  83457076.228 8  20381023.406                    20381029.855
 113485846.484 8  88430602.974 7  21595639.250                    21595649.090
 118922967.674 7  92667286.332 7  22630275.586                    22630283.730
 113671977.457 8  88575665.54146  21631035.008                    21631040.410
 11  8 21  2 11 30.0000000  0  9G15G26G30G10G12G05G25G29G02
 129181934.535 6 100661255.522 6  24582494.734                    24582505.273
 124428597.165 7  96957418.39944  23677974.648                    23677983.816
 113918246.451 8  88767535.92745  21677918.836                    21677926.652
 124096124.165 7  96698402.19344  23614684.445                    23614692.152
 112756438.015 8  87862217.829 7  21456832.492                    21456839.539
 107129055.702 8  83477292.773 8  20385960.125                    20385967.293
 113485243.870 8  88430133.412 7  21595524.813                    21595534.563
 118841186.803 7  92603561.016 6  22614713.656                    22614721.332
 113710040.940 8  88605325.37745  21638278.430                    21638283.504
 11  8 21  2 12  0.0000000  0  9G15G26G30G10G12G05G25G29G02
 129088743.528 6 100588639.361 6  24564761.164                    24564770.801
 124334243.390 7  96883896.06144  23660019.391                    23660029.523
 113933476.670 8  88779403.64445  21680816.859                    21680824.539
 124200640.260 7  96779843.30144  23634573.133                    23634580.977
 112817997.739 7  87910186.440 7  21468546.672                    21468554.391
 107155517.640 8  83497912.467 8  20390995.828                    20391003.184
 113485217.870 8  88430113.170 7  21595519.352                    21595529.145
 118759479.016 7  92539892.652 7  22599164.969                    22599172.371
 113748189.459 8  88635051.49145  21645537.469                    21645542.727
 11  8 21  2 12 30.0000000  0  9G15G26G30G10G12G05G25G29G02
 128995426.736 6 100515925.182 6  24547003.219                    24547013.297
 124239956.267 7  96810425.66244  23642077.266                    23642086.551
 113949284.306 8  88791721.28445  21683825.164                    21683832.879
 124305312.322 7  96861405.93643  23654491.469                    23654499.410
 112879988.587 8  87958490.993 7  21480343.523                    21480350.535
 107182494.914 8  83518933.728 8  20396129.500                    20396136.313
 113485767.707 8  88430541.606 7  21595624.391                    21595634.344
 118677845.868 7  92476282.440 6  22583630.664                    22583638.551
 113786422.692 8  88664843.60445  21652813.297                    21652818.414
 11  8 21  2 13  0.0000000  0  9G15G26G30G10G12G05G25G29G02
 128901987.097 6 100443115.252 6  24529222.367                    24529232.023
 124145739.437 7  96737010.03144  23624148.758                    23624157.609
 113965668.401 8  88804488.10445  21686942.914                    21686950.809
 124410137.875 7  96943088.18843  23674439.336                    23674447.410
 112942408.742 7  88007130.064 7  21492221.523                    21492228.387
 107209986.410 8  83540355.684 8  20401360.914                    20401367.902
 113486893.251 8  88431418.646 7  21595838.500                    21595848.355
 118596289.668 7  92412732.191 7  22568111.047                    22568118.574
 113824740.190 8  88694701.39245  21660104.578                    21660110.148
 11  8 21  2 13 30.0000000  0  9G15G26G30G10G12G05G25G29G02
 128808426.553 6 100370211.118 6  24511417.695                    24511427.230
 124051596.186 6  96663651.73544  23606233.953                    23606242.457
 113982627.443 8  88817702.93545  21690170.336                    21690178.004
 124515114.050 6  97024887.76643  23694415.742                    23694423.719
 113005254.799 8  88056101.020 7  21504180.797                    21504188.004
 107237990.180 8  83562176.807 8  20406690.055                    20406696.941
 113488593.704 8  88432743.674 7  21596162.305                    21596172.301
 118514812.091 8  92349243.203 6  22552606.727                    22552614.301
 113863141.573 8  88724624.53745  21667412.094                    21667417.273
 11  8 21  2 14  0.0000000  0  9G15G26G30G10G12G05G25G29G02
 128714747.633 6 100297214.715 6  24493591.742                    24493601.031
 123957530.082 7  96590353.55844  23588333.547                    23588342.395
 114000160.062 8  88831364.71345  21693506.508                    21693514.430
 124620238.144 6  97106802.63243  23714419.578                    23714427.703
 113068524.781 8  88105402.300 7  21516220.758                    21516228.078
 107266504.267 8  83584395.573 8  20412115.930                    20412123.008
 113490868.637 8  88434516.361 7  21596594.820                    21596605.023
 118433414.951 7  92285816.894 6  22537116.984                    22537124.738
 113901627.243 8  88754613.35845  21674735.492                    21674741.105
 11  8 21  2 14 30.0000000  0  9G15G26G30G10G12G05G25G29G02
 128620953.039 7 100224128.176 6  24475742.938                    24475752.547
 123863544.583 7  96517118.19044  23570448.422                    23570457.285
 114018264.986 8  88845472.45045  21696951.719                    21696959.973
 124725507.388 6  97188830.53343  23734451.703                    23734459.867
 113132215.763 8  88155031.636 7  21528340.398                    21528347.715
 107295527.084 8  83607010.759 8  20417638.680                    20417645.730
 113493717.524 8  88436736.269 7  21597137.172                    21597147.121
 118352099.847 7  92222454.523 7  22521642.719                    22521650.320
 113940196.649 8  88784667.42046  21682075.875                    21682080.750
 11  8 21  2 15  0.0000000  0  9G15G26G30G10G12G05G25G29G02
 128527045.104 7 100150953.296 6  24457872.789                    24457882.508
 123769642.949 7  96443948.17344  23552579.430                    23552588.863
 114036940.699 8  88860024.95045  21700505.484                    21700513.449
 124830918.913 7  97270969.40243  23754511.570                    23754519.195
 113196325.205 8  88204987.042 7  21540540.430                    21540546.938
 107325056.402 8  83630020.628 8  20423258.250                    20423264.746
 113497139.642 8  88439402.843 7  21597788.289                    21597798.277
 118270868.451 7  92159157.353 6  22506184.945                    22506192.387
 113978849.814 8  88814786.76946  21689430.961                    21689436.277
 11  8 21  2 15 30.0000000  0  9G15G26G30G10G12G05G25G29G02
 128433026.271 7 100077691.995 6  24439981.891                    24439991.434
 123675828.867 7  96370846.40044  23534727.438                    23534736.195
 114056185.886 8  88875021.19745  21704167.867                    21704175.934
 124936470.280 7  97353217.19443  23774597.492                    23774605.348
 113260850.212 8  88255266.261 7  21552818.820                    21552825.652
 107355091.025 8  83653424.237 8  20428973.414                    20428980.422
 113501134.469 8  88442515.683 7  21598548.664                    21598558.129
 118189723.092 7  92095927.252 6  22490743.625                    22490751.586
 114017586.463 8  88844971.16745  21696802.016                    21696807.531
 11  8 21  2 16  0.0000000  0  9G15G26G30G10G12G05G25G29G02
 128338899.466 6 100004346.567 5  24422069.188                    24422079.273
 123582105.930 7  96297815.64043  23516891.867                    23516900.926
 114075999.363 8  88890460.27445  21707938.109                    21707946.617
 125042158.770 7  97435571.86643  23794709.305                    23794717.078
 113325788.620 8  88305867.615 7  21565176.008                    21565183.809
 107385629.534 8  83677220.476 8  20434784.563                    20434791.656
 113505701.623 8  88446074.504 7  21599417.711                    21599427.543
 118108665.721 7  92032765.696 7  22475318.969                    22475327.223
 114056406.461 8  88875220.51846  21704189.086                    21704194.902
 11  8 21  2 16 30.0000000  0  9G15G26G30G10G12G05G25G29G02
 128244667.019 6  99930918.794 5  24404137.773                    24404146.863
 123488477.307 7  96224858.35743  23499075.602                    23499084.074
 114096379.282 8  88906340.72245  21711816.555                    21711824.707
 125147981.880 7  97518031.41243  23814846.703                    23814854.961
 113391138.013 8  88356789.213 7  21577612.000                    21577619.367
 107416669.553 8  83701407.511 8  20440691.172                    20440698.223
 113510840.182 8  88450078.573 7  21600395.477                    21600405.055
 118027698.015 7  91969674.015 7  22459911.500                    22459919.051
 114095309.678 8  88905534.71846  21711592.313                    21711597.566
 11  8 21  2 17  0.0000000  0  9G15G26G30G10G12G05G25G29G02
 128150331.664 6  99857410.879 5  24386185.844                    24386195.762
 123394947.037 7  96151977.70643  23481276.758                    23481285.227
 114117324.621 8  88922661.77245  21715802.211                    21715809.922
 125253936.943 7  97600593.80443  23835008.906                    23835017.359
 113456896.052 7  88408029.240 7  21590125.133                    21590132.395
 107448209.874 8  83725984.400 8  20446693.281                    20446699.754
 113516549.749 8  88454527.579 7  21601482.070                    21601491.793
 117946822.023 7  91906653.820 7  22444521.297                    22444529.035
 114134296.225 7  88935913.84445  21719011.086                    21719016.582
 11  8 21  2 17 30.0000000  0  9G15G26G30G10G12G05G25G29G02
 128055896.087 6  99783824.864 5  24368215.195                    24368225.230
 123301518.075 7  96079176.03943  23463497.438                    23463506.211
 114138833.370 8  88939421.83445  21719895.477                    21719902.641
 125360020.876 7  97683256.55943  23855196.625                    23855204.832
 113523059.130 8  88459584.868 7  21602715.492                    21602722.672
 107480248.083 8  83750949.251 8  20452790.188                    20452797.098
 113522829.223 8  88459420.671 7  21602676.773                    21602686.934
 117866039.396 7  91843706.352 7  22429148.938                    22429156.676
 114173365.597 7  88966357.51845  21726445.547                    21726450.598
 11  8 21  2 18  0.0000000  0  9G15G26G30G10G12G05G25G29G02
 127961362.764 6  99710162.708 5  24350226.117                    24350235.133
 123208194.569 7  96006456.50544  23445739.109                    23445747.707
 114160904.737 8  88956620.28645  21724095.750                    21724102.914
 125466231.781 7  97766018.26643  23875407.461                    23875416.160
 113589625.200 8  88511454.519 7  21615382.891                    21615390.242
 107512783.399 8  83776301.456 8  20458981.141                    20458988.266
 113529678.515 8  88464757.787 7  21603980.477                    21603990.590
 117785352.564 7  91780833.549 7  22413794.602                    22413802.063
 114212518.235 7  88996866.06345  21733896.352                    21733901.895
 11  8 21  2 18 30.0000000  0  9G15G26G30G10G12G05G25G29G02
 127866734.084 6  99636426.271 5  24332218.953                    24332228.090
 123114979.761 7  95933821.64844  23428000.898                    23428009.160
 114183536.817 8  88974255.67045  21728401.984                    21728409.930
 125572566.813 6  97848876.70043  23895642.844                    23895651.063
 113656591.576 8  88563636.102 7  21628126.086                    21628133.883
 107545813.517 8  83802039.224 8  20465266.563                    20465273.559
 113537096.591 8  88470538.105 7  21605391.781                    21605402.008
 117704763.285 7  91718036.743 7  22398458.461                    22398466.273
 114251753.894 7  89027439.31245  21741362.914                    21741367.699
 11  8 21  2 19  0.0000000  0  9G15G26G30G10G12G05G25G29G02
 127772012.514 6  99562617.450 6  24314193.594                    24314202.863
 123021876.915 7  95861274.06044  23410283.852                    23410292.715
 114206727.728 8  88992326.51445  21732815.266                    21732823.070
 125679023.174 6  97931829.66743  23915900.766                    23915908.867
 113723955.688 7  88616127.606 7  21640944.961                    21640952.418
 107579336.053 8  83828160.689 8  20471645.945                    20471652.652
 113545082.405 8  88476760.808 7  21606911.539                    21606921.672
 117624273.353 7  91655317.361 7  22383141.898                    22383149.957
 114291072.146 7  89058076.91245  21748844.703                    21748850.082
 11  8 21  2 19 30.0000000  0  9G15G26G30G10G12G05G25G29G02
 127677201.081 6  99488738.639 6  24296151.938                    24296160.977
 122928889.913 6  95788816.71944  23392588.445                    23392597.559
 114230476.254 8  89010831.85145  21737334.070                    21737342.344
 125785598.177 6  98014875.10743  23936180.852                    23936189.160
 113791714.984 7  88668927.052 7  21653839.359                    21653846.531
 107613349.596 8  83854664.761 8  20478118.383                    20478125.266
 113553635.511 8  88483425.577 7  21608539.133                    21608549.434
 117543884.792 7  91592676.970 7  22367844.539                    22367852.266
 114330473.136 7  89088778.98445  21756342.000                    21756347.926
 11  8 21  2 20  0.0000000  0  9G15G26G30G10G12G05G25G29G02
 127582302.304 7  99414791.726 6  24278092.813                    24278102.172
 122836022.272 7  95716452.39244  23374916.500                    23374925.559
 114254780.672 8  89029770.35145  21741959.414                    21741967.297
 125892289.257 6  98098011.00243  23956483.117                    23956491.914
 113859866.177 8  88722031.857 7  21666807.961                    21666815.500
 107647852.310 8  83881550.005 8  20484684.078                    20484690.656
 113562754.994 8  88490531.652 7  21610274.695                    21610284.648
 117463599.352 7  91530116.932 7  22352566.781                    22352574.844
 114369956.710 7  89119545.42445  21763855.781                    21763861.207
 11  8 21  2 20 30.0000000  0  9G15G26G30G10G12G05G25G29G02
 127487318.797 7  99340778.818 6  24260018.078                    24260027.043
 122743277.450 7  95644183.77744  23357268.547                    23357276.887
 114279639.380 8  89049140.77445  21746689.461                    21746697.652
 125999093.763 7  98181235.28543  23976807.367                    23976816.242
 113928407.017 7  88775440.290 7  21679850.969                    21679858.227
 107682842.147 8  83908814.824 8  20491342.703                    20491349.184
 113572439.927 8  88498078.371 7  21612117.383                    21612127.430
 117383419.273 7  91467638.988 7  22337308.922                    22337316.727
 114409522.894 7  89150376.22845  21771385.305                    21771390.891
 11  8 21  2 21  0.0000000  0  9G15G26G30G10G12G05G25G29G02
 127392253.065 6  99266701.792 6  24241927.523                    24241936.117
 122650659.168 7  95572013.75444  23339643.047                    23339652.414
 114305050.584 7  89068941.70845  21751525.250                    21751533.316
 126106009.062 6  98264545.87543  23997152.922                    23997161.750
 113997334.622 8  88829150.086 7  21692967.391                    21692974.875
 107718317.358 8  83936457.856 8  20498093.297                    20498099.539
 113582689.448 8  88506065.002 7  21614067.820                    21614077.500
 117303346.534 7  91405244.693 7  22322071.125                    22322079.488
 114449171.589 8  89181271.32245  21778930.281                    21778935.953
 11  8 21  2 21 30.0000000  0  9G15G26G30G10G12G05G25G29G02
 127297107.446 6  99192562.531 6  24223821.492                    24223830.809
 122558170.668 6  95499944.87144  23322042.711                    23322051.770
 114331012.479 8  89089171.74045  21756465.711                    21756473.344
 126213032.557 7  98347940.79543  24017519.227                    24017527.625
 114066646.188 8  88883159.094 7  21706157.273                    21706164.262
 107754275.530 8  83964477.229 8  20504935.773                    20504942.559
 113593502.504 8  88514490.753 7  21616125.508                    21616135.305
 117223382.946 7  91342935.450 7  22306854.648                    22306862.527
 114488902.564 8  89212230.53246  21786490.367                    21786495.906
 11  8 21  2 22  0.0000000  0  9G15G26G30G10G12G05G25G29G02
 127201885.230 7  99118363.553 6  24205702.156                    24205710.742
 122465815.844 7  95427980.14744  23304468.461                    23304477.098
 114357523.679 8  89109829.80645  21761510.750                    21761518.730
 126320161.724 7  98431418.07543  24037905.164                    24037913.441
 114136339.363 7  88937465.446 7  21719419.367                    21719426.336
 107790715.310 8  83992871.874 8  20511870.070                    20511876.922
 113604878.452 8  88523355.128 7  21618290.273                    21618299.984
 117143530.723 7  91280712.999 7  22291659.500                    22291667.547
 114528715.906 8  89243253.93145  21794066.336                    21794071.922
 11  8 21  2 22 30.0000000  0  9G15G26G30G10G12G05G25G29G02
 127106588.917 7  99044106.837 6  24187566.648                    24187575.703
 122373598.479 7  95356122.52844  23286919.703                    23286928.395
 114384582.642 8  89130914.70645  21766659.422                    21766667.895
 126427394.312 7  98514975.94243  24058310.844                    24058319.688
 114206411.686 8  88992067.249 7  21732752.914                    21732760.871
 107827635.135 8  84021640.584 8  20518895.398                    20518902.508
 113616816.559 8  88532657.547 7  21620562.117                    21620571.867
 117063792.009 7  91218578.996 7  22276485.859                    22276493.848
 114568611.874 7  89274341.69845  21801658.633                    21801664.434
 11  8 21  2 23  0.0000000  0  9G15G26G30G10G12G05G25G29G02
 127011220.946 6  98969794.252 6  24169419.320                    24169428.191
 122281522.025 7  95284374.70844  23269398.734                    23269407.117
 114412187.215 8  89152424.74245  21771912.727                    21771920.789
 126534727.551 7  98598612.24243  24078734.750                    24078743.555
 114276859.559 7  89046961.686 7  21746159.359                    21746166.332
 107865032.535 7  84050781.421 8  20526012.070                    20526018.973
 113629315.576 8  88542397.040 7  21622940.398                    21622950.055
 116984168.534 7  91156534.773 7  22261333.922                    22261341.301
 114608590.305 7  89305493.72045  21809266.367                    21809271.512
 11  8 21  2 23 30.0000000  0  9G15G26G30G10G12G05G25G29G02
 126915784.049 6  98895427.965 6  24151257.703                    24151266.867
 122189589.743 7  95212739.23844  23251904.336                    23251912.793
 114440335.524 7  89174358.49445  21777269.055                    21777276.793
 126642158.782 6  98682324.87543  24099179.555                    24099186.645
 114347680.348 7  89102146.695 7  21759636.094                    21759643.285
 107902905.371 8  84080292.731 8  20533218.961                    20533226.074
 113642374.242 8  88552572.621 7  21625425.766                    21625435.570
 116904662.346 7  91094581.965 7  22246204.023                    22246212.070
 114648650.943 7  89336709.80645  21816889.641                    21816894.793
 11  8 21  2 24  0.0000000  0  9G15G26G30G10G12G05G25G29G02
 126820281.153 6  98821010.236 6  24133084.141                    24133093.188
 122097805.534 7  95141219.14144  23234438.031                    23234446.875
 114469026.228 8  89196714.87545  21782728.969                    21782736.641
 126749685.820 6  98766112.18343  24119640.555                    24119649.008
 114418872.204 7  89157620.857 7  21773183.656                    21773190.672
 107941252.092 8  84110173.309 8  20540516.469                    20540522.891
 113655992.013 8  88563183.859 7  21628016.977                    21628027.090
 116825275.438 7  91032722.117 7  22231097.148                    22231104.816
 114688794.008 8  89367990.12845  21824528.516                    21824533.848
 11  8 21  2 24 30.0000000  0  9G15G26G30G10G12G05G25G29G02
 126724714.797 6  98746543.043 6  24114898.352                    24114907.043
 122006172.835 7  95069817.10744  23217000.445                    23217009.836
 114498257.109 8  89219492.17245  21788291.492                    21788299.004
 126857305.832 6  98849971.91843  24140119.719                    24140128.027
 114490431.447 7  89213381.298 7  21786800.859                    21786808.480
 107980070.431 8  84140421.383 8  20547902.703                    20547909.656
 113670167.525 8  88574229.720 7  21630714.500                    21630724.063
 116746009.889 7  90970956.819 7  22216013.695                    22216021.180
 114729019.344 8  89399334.53745  21832183.070                    21832189.012
 11  8 21  2 25  0.0000000  0  9G15G26G30G10G12G05G25G29G02
 126629087.667 6  98672028.482 6  24096700.531                    24096710.086
 121914695.362 7  94998536.03244  23199593.266                    23199602.176
 114528026.417 8  89242689.02645  21793956.430                    21793963.871
 126965016.276 6  98933902.07443  24160616.695                    24160625.270
 114562355.300 7  89269425.853 7  21800487.297                    21800494.523
 108019358.391 8  84171035.390 8  20555379.047                    20555385.957
 113684899.749 8  88585709.383 7  21633517.891                    21633528.105
 116666867.852 7  90909287.760 7  22200953.117                    22200960.805
 114769326.924 8  89430743.03345  21839853.914                    21839858.984
 11  8 21  2 25 30.0000000  0  9G15G26G30G10G12G05G25G29G02
 126533402.378 7  98597468.604 5  24078493.000                    24078501.473
 121823376.648 7  94927378.65944  23182216.195                    23182224.566
 114558332.172 8  89266303.89445  21799723.523                    21799730.754
 127072814.675 6  99017900.80543  24181130.352                    24181138.594
 114634641.032 7  89325752.394 7  21814242.781                    21814249.879
 108059113.720 8  84202013.580 8  20562944.148                    20562951.176
 113700187.518 8  88597621.925 7  21636427.195                    21636436.961
 116587851.046 7  90847716.310 7  22185916.961                    22185924.270
 114809716.665 8  89462215.56645  21847539.625                    21847544.664
 11  8 21  2 26  0.0000000  0  9G15G26G30G10G12G05G25G29G02
 126437661.657 7  98522865.528 6  24060273.469                    24060282.566
 121732220.076 7  94856347.63244  23164869.641                    23164878.355
 114589172.316 7  89290335.17645  21805591.953                    21805600.074
 127180698.074 6  99101965.72943  24201659.094                    24201668.418
 114707285.916 7  89382358.780 7  21828066.477                    21828073.711
 108099333.963 8  84233354.043 8  20570597.680                    20570604.801
 113716029.514 8  88609966.335 7  21639441.633                    21639451.668
 116508961.584 7  90786244.065 7  22170904.344                    22170911.789
 114850188.383 8  89493751.96345  21855241.016                    21855246.391
 11  8 21  2 26 30.0000000  0  9G15G26G30G10G12G05G25G29G02
 126341868.419 7  98448221.512 6  24042044.930                    24042052.836
 121641229.684 7  94785446.07244  23147554.727                    23147563.219
 114620545.441 8  89314781.76945  21811562.039                    21811569.750
 127288664.673 6  99186095.52443  24222204.867                    24222213.277
 114780287.190 7  89439242.875 7  21841958.414                    21841965.770
 108140018.232 8  84265056.082 8  20578339.906                    20578346.555
 113732425.097 8  88622742.115 7  21642561.656                    21642571.570
 116430201.945 7  90724872.979 7  22155917.070                    22155924.988
 114890742.596 8  89525352.64245  21862957.836                    21862963.125
 11  8 21  2 27  0.0000000  0  9G15G26G30G10G12G05G25G29G02
 126246025.354 7  98373538.709 6  24023806.641                    24023815.828
 121550408.996 6  94714676.77944  23130271.633                    23130280.422
 114652449.557 7  89339642.12545  21817633.242                    21817641.063
 127396711.820 7  99270288.08144  24242765.836                    24242774.586
 114853642.104 7  89496402.539 7  21855917.484                    21855924.738
 108181164.313 8  84297117.963 7  20586169.727                    20586176.836
 113749372.994 8  88635948.276 7  21645786.938                    21645796.531
 116351574.309 7  90663604.757 7  22140954.188                    22140962.039
 114931379.482 7  89557017.75245  21870691.172                    21870696.422
 11  8 21  2 27 30.0000000  0  9G15G26G30G10G12G05G25G29G02
 126150135.440 7  98298819.387 6  24005559.438                    24005567.520
 121459761.807 7  94644042.66944  23113022.383                    23113030.590
 114684882.449 8  89364914.51645  21823805.063                    21823813.168
 127504837.114 6  99354541.50343  24263341.695                    24263349.691
 114927347.793 7  89553835.547 7  21869943.258                    21869950.184
 108222769.886 8  84329537.898 8  20594086.922                    20594093.836
 113766871.880 8  88649583.771 7  21649116.688                    21649126.414
 116273080.167 7  90602440.561 7  22126017.531                    22126025.387
 114972098.581 8  89588746.92145  21878439.875                    21878445.309
 11  8 21  2 28  0.0000000  0  9G15G26G30G10G12G05G25G29G02
 126054200.880 7  98224065.285 6  23987303.461                    23987311.965
 121369291.377 7  94573546.30844  23095806.055                    23095814.766
 114717842.157 8  89390597.40545  21830077.391                    21830085.227
 127613038.056 7  99438853.92243  24283931.367                    24283939.688
 115001401.284 7  89611539.553 7  21884035.094                    21884041.816
 108264832.680 8  84362314.117 8  20602091.258                    20602098.164
 113784920.463 8  88663647.611 7  21652551.070                    21652560.914
 116194721.842 7  90541382.184 7  22111106.359                    22111114.246
 115012899.853 8  89620540.13045  21886203.625                    21886209.359
 11  8 21  2 28 30.0000000  0  9G15G26G30G10G12G05G25G29G02
 125958224.633 7  98149278.687 6  23969039.516                    23969049.113
 121279001.350 7  94503190.52044  23078624.336                    23078633.027
 114751326.453 8  89416689.07945  21836449.328                    21836457.031
 127721311.804 7  99523223.02343  24304535.594                    24304543.875
 115075799.469 7  89669512.159 7  21898192.133                    21898199.605
 108307350.331 8  84395444.759 8  20610182.570                    20610188.676
 113803517.392 8  88678138.719 7  21656090.188                    21656099.867
 116116501.255 7  90480431.129 7  22096221.805                    22096229.180
 115053783.469 8  89652397.49745  21893983.695                    21893988.965
 11  8 21  2 29  0.0000000  0  9G15G26G30G10G12G05G25G29G02
 125862209.895 7  98074462.115 6  23950768.117                    23950777.609
 121188895.737 7  94432978.42744  23061477.898                    23061486.141
 114785333.923 8  89443188.42345  21842920.359                    21842927.977
 127829656.295 6  99607647.32443  24325152.484                    24325160.656
 115150540.017 7  89727751.529 7  21912414.945                    21912422.602
 108350321.463 7  84428928.771 8  20618359.367                    20618366.117
 113822661.762 8  88693056.427 7  21659733.430                    21659742.824
 116038420.689 7  90419589.186 7  22081363.461                    22081371.156
 115094750.069 7  89684319.52245  21901779.805                    21901784.879
 11  8 21  2 29 30.0000000  0  9G15G26G30G10G12G05G25G29G02
 125766158.920 6  97999617.290 6  23932490.211                    23932499.492
 121098977.626 7  94362912.43144  23044367.359                    23044375.770
 114819861.958 8  89470093.40145  21849490.453                    21849499.137
 127938069.015 6  99692124.72743  24345782.992                    24345790.758
 115225619.850 7  89786255.279 7  21926702.359                    21926710.000
 108393743.281 8  84462763.954 8  20626622.109                    20626628.855
 113842351.910 8  88708399.405 7  21663480.063                    21663489.816
 115960482.234 7  90358857.982 7  22066531.563                    22066539.711
 115135798.805 8  89716305.56445  21909590.719                    21909596.063
 11  8 21  2 30  0.0000000  0  9G15G26G30G10G12G05G25G29G02
 125670074.665 6  97924746.532 6  23914205.938                    23914214.938
 121009250.993 7  94292995.65144  23027292.352                    23027301.480
 114854908.785 8  89497402.62345  21856159.977                    21856167.898
 128046547.729 6  99776653.60042  24366425.664                    24366433.758
 115301036.432 7  89845021.448 7  21941053.758                    21941060.746
 108437614.202 8  84496949.092 7  20634970.469                    20634977.184
 113862586.775 8  88724166.838 7  21667330.758                    21667340.504
 115882688.214 7  90298239.308 7  22051728.063                    22051735.844
 115176929.897 8  89748355.77445  21917417.984                    21917422.758
 11  8 21  2 30 30.0000000  0  9G15G26G30G10G12G05G25G29G02
 125573960.106 6  97849852.175 6  23895915.625                    23895924.336
 120919719.882 7  94223231.20844  23010255.203                    23010263.898
 114890472.429 8  89525114.57445  21862927.281                    21862935.156
 128155089.930 6  99861231.94342  24387080.188                    24387087.648
 115376786.311 8  89904047.312 7  21955468.492                    21955475.340
 108481932.238 8  84531482.628 7  20643404.398                    20643410.770
 113883365.097 8  88740357.752 7  21671284.461                    21671294.723
 115805040.955 7  90237735.009 7  22036952.281                    22036959.824
 115218144.016 8  89780470.67845  21925260.367                    21925265.738
 11  8 21  2 31  0.0000000  0  9G15G26G30G10G12G05G25G29G02
 125477817.843 6  97774936.214 6  23877620.539                    23877629.801
 120830387.184 7  94153621.37644  22993255.500                    22993264.469
 114926550.306 8  89553227.21745  21869792.680                    21869800.738
 128263692.615 5  99945857.37442  24407746.453                    24407755.367
 115452866.367 8  89963330.468 7  21969945.602                    21969952.988
 108526694.217 8  84566362.098 8  20651922.109                    20651928.809
 113904685.042 8  88756970.710 7  21675341.766                    21675351.590
 115727541.790 7  90177346.085 7  22022204.766                    22022212.555
 115259440.772 8  89812649.97645  21933118.625                    21933124.234
 11  8 21  2 31 30.0000000  0  9G15G26G30G10G12G05G25G29G02
 125381650.376 6  97700000.633 6  23859319.859                    23859329.199
 120741256.842 7  94084169.23244  22976295.023                    22976303.770
 114963140.277 8  89581738.89645  21876755.586                    21876763.352
 128372353.488 5 100030528.20042  24428423.641                    24428432.645
 115529273.783 7  90022868.690 7  21984485.672                    21984493.102
 108571897.968 8  84601585.812 8  20660523.984                    20660531.012
 113926545.248 8  88774004.645 7  21679501.461                    21679511.625
 115650193.110 7  90117074.423 7  22007485.594                    22007492.988
 115300819.832 8  89844893.40645  21940993.867                    21940998.066
 11  8 21  2 32  0.0000000  0  9G15G26G30G10G12G05G25G29G02
 125285461.391 6  97625048.279 6  23841015.961                    23841024.875
 120652332.625 7  94014877.71544  22959373.117                    22959382.008
 115000240.739 8  89610648.34845  21883815.672                    21883823.535
 128481070.607 6 100115242.77843  24449112.758                    24449120.695
 115606006.521 8  90082660.419 7  21999087.594                    21999094.723
 108617542.502 8  84637152.982 8  20669209.805                    20669216.813
 113948944.801 8  88791458.845 7  21683764.016                    21683773.895
 115572997.563 7  90056922.091 7  21992795.945                    21992803.727
 115342282.141 7  89877201.71145  21948883.305                    21948888.082
 11  8 21  2 32 30.0000000  0  9G15G26G30G10G12G05G25G29G02
 125189253.344 6  97550081.085 6  23822708.578                    23822717.262
 120563618.587 7  93945749.94844  22942491.258                    22942500.059
 115037849.594 8  89639953.96545  21890972.211                    21890979.762
 128589841.626 6 100199999.35943  24469811.508                    24469819.344
 115683061.364 8  90142703.132 7  22013750.875                    22013757.602
 108663625.618 8  84673061.924 7  20677978.898                    20677985.957
 113971882.327 8  88809332.252 7  21688128.984                    21688138.867
 115495957.333 7  89996890.776 7  21978136.063                    21978143.418
 115383827.787 7  89909574.95145  21956788.969                    21956794.512
 11  8 21  2 33  0.0000000  0  9G15G26G30G10G12G05G25G29G02
 125093028.593 7  97475100.862 6  23804396.813                    23804405.887
 120475117.791 7  93876788.34744  22925650.016                    22925658.441
 115075964.059 7  89669653.56445  21898225.203                    21898233.133
 128698664.010 6 100284796.00143  24490519.648                    24490527.129
 115760434.677 8  90202994.016 7  22028474.547                    22028481.348
 108710144.309 8  84709310.265 8  20686831.453                    20686838.164
 113995355.811 8  88827623.289 7  21692595.586                    21692605.504
 115419073.940 8  89936981.684 7  21963505.406                    21963512.617
 115425456.443 7  89942012.87845  21964710.898                    21964716.105
 11  8 21  2 33 30.0000000  0  9G15G26G30G10G12G05G25G29G02
 124996790.189 7  97400110.005 6  23786083.641                    23786092.414
 120386833.813 7  93807995.69944  22908850.219                    22908858.340
 115114582.058 7  89699745.49645  21905574.078                    21905581.758
 128807535.215 6 100369630.65743  24511236.992                    24511244.773
 115838123.850 8  90263531.018 7  22043258.313                    22043265.344
 108757096.498 8  84745896.398 7  20695765.969                    20695772.797
 114019363.893 8  88846330.891 7  21697164.180                    21697174.742
 115342350.001 7  89877196.835 7  21948905.336                    21948912.191
 115467168.131 7  89974515.49845  21972648.328                    21972653.512
 11  8 21  2 34  0.0000000  0 10G15G26G30G10G12G05G25G29G21G02
 124900541.141 7  97325110.853 6  23767768.578                    23767776.484
 120298770.502 7  93739374.99644  22892092.578                    22892100.676
 115153701.393 7  89730228.11145  21913018.203                    21913025.973
 128916452.933 6 100454501.56143  24531963.313                    24531971.742
 115916126.028 8  90324311.918 7  22058101.523                    22058108.734
 108804479.830 8  84782818.490 7  20704782.680                    20704789.434
 114043905.061 8  88865453.877 7  21701834.586                    21701844.383
 115265787.167 8  89817537.525 7  21934335.617                    21934343.156
 132341421.08016 103123286.51253  25183750.633                    25183760.172
 115508963.040 7  90007082.97045  21980601.352                    21980606.613
 11  8 21  2 34 30.0000000  0 10G15G26G30G10G12G05G25G29G21G02
 124804284.300 7  97250105.625 6  23749450.914                    23749459.539
 120210931.553 7  93670929.14244  22875377.047                    22875385.184
 115193319.857 7  89761099.64645  21920557.695                    21920565.082
 129025415.105 7 100539407.10143  24552697.984                    24552706.605
 115994438.494 8  90385334.598 7  22073003.867                    22073011.004
 108852292.313 8  84820074.978 8  20713881.320                    20713888.012
 114068977.887 8  88884991.153 7  21706605.266                    21706615.539
 115189388.239 8  89758005.928 7  21919797.445                    21919805.063
 132285427.951 6 103079655.68442  25173095.383                    25173104.605
 115550841.148 7  90039715.26245  21988570.922                    21988575.848
 11  8 21  2 35  0.0000000  0 10G15G26G30G10G12G05G25G29G21G02
 124708022.582 7  97175096.605 6  23731133.133                    23731141.398
 120123320.818 7  93602661.09544  22858704.938                    22858713.637
 115233435.263 8  89792358.41345  21928191.164                    21928198.926
 129134419.301 7 100624345.39543  24573441.555                    24573449.172
 116073057.973 8  90446596.518 7  22087964.805                    22087971.688
 108900531.831 8  84857664.217 7  20723060.930                    20723067.680
 114094580.826 8  88904941.491 7  21711477.570                    21711487.039
 115113155.279 8  89698603.659 7  21905290.664                    21905298.328
 132229443.501 6 103036031.58642  25162441.164                    25162450.852
 115592802.984 7  90072412.80345  21996555.633                    21996560.719
 11  8 21  2 35 30.0000000  0 10G15G26G30G10G12G05G25G29G21G02
 124611759.382 7  97100086.429 6  23712814.781                    23712823.070
 120035942.541 7  93534574.19144  22842077.688                    22842086.199
 115274045.834 8  89824003.00945  21935919.055                    21935926.980
 129243463.600 7 100709314.94743  24594191.313                    24594199.520
 116151982.264 8  90508095.945 7  22102983.602                    22102990.641
 108949196.854 8  84895585.028 7  20732321.344                    20732327.988
 114120712.945 8  88925304.177 7  21716450.367                    21716460.195
 115037090.611 8  89639332.523 7  21890816.047                    21890823.793
 132173467.924 6 102992414.34243  25151790.141                    25151799.391
 115634849.222 7  90105176.11945  22004556.953                    22004562.004
 11  8 21  2 36  0.0000000  0  9G15G26G30G12G05G25G29G21G02
 124515496.971 7  97025076.834 6  23694496.602                    23694504.832
 119948799.892 7  93466670.89644  22825495.000                    22825503.383
 115315148.775 7  89856031.26645  21943740.133                    21943748.531
 116231207.753 8  90569830.092 7  22118059.516                    22118067.184
 108998284.460 8  84933835.120 7  20741662.516                    20741668.945
 114147372.042 8  88946077.506 7  21721523.320                    21721533.195
 114961196.260 8  89580194.110 7  21876374.070                    21876381.352
 132117500.233 6 102948803.28642  25141139.664                    25141149.281
 115676979.355 7  90138004.79145  22012573.914                    22012579.203
 11  8 21  2 36 30.0000000  0  9G15G26G30G12G05G25G29G21G02
 124419238.242 7  96950070.145 6  23676179.438                    23676186.863
 119861896.236 7  93398953.82544  22808957.516                    22808966.160
 115356741.821 7  89888441.43745  21951655.766                    21951663.648
 116310731.654 7  90631796.734 7  22133192.344                    22133199.895
 109047792.344 8  84972412.703 8  20751083.633                    20751090.352
 114174556.543 8  88967260.223 7  21726696.258                    21726705.973
 114885474.736 8  89521190.366 7  21861964.875                    21861971.914
 132061539.578 6 102905197.75942  25130490.953                    25130500.480
 115719193.456 7  90170898.89345  22020606.492                    22020612.320
 11  8 21  2 37  0.0000000  0  9G15G26G30G12G05G25G29G21G02
 124322985.803 7  96875068.316 6  23657862.789                    23657870.590
 119775235.289 7  93331425.88544  22792466.844                    22792474.980
 115398822.396 8  89921231.48945  21959662.945                    21959671.031
 116390550.969 7  90693993.592 7  22148381.641                    22148388.910
 109097717.900 8  85011315.736 7  20760584.227                    20760590.953
 114202264.645 8  88988850.958 7  21731969.203                    21731979.207
 114809927.783 8  89462322.642 7  21847588.453                    21847595.578
 132005585.075 6 102861596.95643  25119842.797                    25119851.840
 115761491.717 7  90203858.57545  22028655.656                    22028661.367
 11  8 21  2 37 30.0000000  0  9G15G26G30G12G05G25G29G21G02
 124226743.055 7  96800074.063 6  23639548.195                    23639556.746
 119688820.937 7  93264090.07544  22776022.469                    22776030.391
 115441388.378 8  89954399.78045  21967762.938                    21967771.086
 116470662.616 7  90756418.243 7  22163626.227                    22163633.879
 109148059.322 8  85050542.816 7  20770163.742                    20770170.504
 114230494.827 8  89010848.501 7  21737340.906                    21737351.332
 114734557.797 7  89403592.833 7  21833245.984                    21833253.309
 131949636.404 6 102818000.70943  25109196.039                    25109205.246
 115803874.255 7  90236883.92045  22036721.359                    22036726.496
 11  8 21  2 38  0.0000000  0  9G15G26G30G12G05G25G29G21G02
 124130512.545 7  96725089.350 6  23621236.570                    23621244.266
 119602656.569 7  93196949.06244  22759626.180                    22759634.344
 115484437.102 8  89987944.22845  21975955.313                    21975962.848
 116551063.114 7  90819067.968 7  22178926.359                    22178933.156
 109198813.879 8  85090091.824 7  20779822.055                    20779828.723
 114259245.181 8  89033251.374 7  21742812.563                    21742822.375
 114659366.948 8  89345002.594 7  21818937.469                    21818944.676
 131893692.744 6 102774408.35142  25098549.867                    25098558.848
 115846341.069 7  90269974.94545  22044802.586                    22044807.316
 11  8 21  2 38 30.0000000  0  9G15G26G30G12G05G25G29G21G02
 124034297.189 6  96650116.438 6  23602926.297                    23602935.285
 119516745.759 7  93130005.63344  22743277.672                    22743285.500
 115527966.005 8  90021862.85445  21984238.117                    21984246.445
 116631749.587 8  90881940.540 7  22194280.141                    22194287.293
 109249978.992 8  85129960.743 7  20789558.344                    20789564.891
 114288513.813 8  89056058.098 7  21748381.883                    21748391.938
 114584357.318 8  89286553.584 7  21804663.289                    21804671.074
 131837753.303 6 102730819.26343  25087904.742                    25087914.055
 115888892.285 7  90303131.74445  22052899.656                    22052905.164
 11  8 21  2 39  0.0000000  0  9G15G26G30G12G05G25G29G21G02
 123938100.111 6  96575157.759 6  23584621.063                    23584629.000
 119431092.459 7  93063262.84644  22726978.313                    22726986.227
 115571973.118 8  90056154.10745  21992612.320                    21992620.199
 116712719.657 7  90945034.101 7  22209688.117                    22209695.773
 109301553.254 8  85170148.482 7  20799372.992                    20799379.430
 114318299.472 8  89079267.706 7  21754049.734                    21754059.789
 114509531.184 7  89228247.556 7  21790424.719                    21790431.941
 131781818.150 6 102687233.56243  25077261.125                    25077269.875
 115931528.331 7  90336354.62945  22061013.297                    22061018.438
 11  8 21  2 39 30.0000000  0  9G15G26G30G12G05G25G29G21G02
 123841924.046 6  96500215.461 6  23566319.305                    23566327.500
 119345700.234 7  92996723.50144  22710728.930                    22710736.898
 115616455.711 7  90090815.84345  22001077.484                    22001085.180
 116793970.027 7  91008346.066 7  22225149.602                    22225157.090
 109353533.806 8  85210652.810 7  20809264.445                    20809270.941
 114348600.073 8  89102878.570 7  21759815.664                    21759825.699
 114434890.974 7  89170086.395 7  21776221.094                    21776228.305
 131725886.296 6 102643650.42343  25066617.836                    25066627.160
 115974249.392 7  90369643.76445  22069142.477                    22069147.758
 11  8 21  2 40  0.0000000  0  9G15G26G30G12G05G25G29G21G02
 123745771.994 6  96425291.859 6  23548021.844                    23548030.031
 119260572.941 7  92930390.59044  22694529.016                    22694537.465
 115661411.624 8  90125846.42045  22009631.914                    22009639.648
 116875497.789 7  91071874.186 7  22240664.195                    22240670.906
 109405918.562 8  85251472.097 7  20819232.844                    20819239.742
 114379414.140 8  89126889.532 7  21765679.641                    21765689.793
 114360438.902 7  89112071.834 7  21762053.305                    21762060.852
 131669957.524 6 102600069.69142  25055974.031                    25055983.133
 116017055.570 7  90402999.22645  22077288.508                    22077293.520
 11  8 21  2 40 30.0000000  0  9G15G26G30G12G05G25G29G21G02
 123649646.944 6  96350389.320 6  23529729.633                    23529738.160
 119175714.321 7  92864267.03145  22678381.172                    22678389.363
 115706838.453 7  90161243.93845  22018276.969                    22018284.559
 116957300.098 7  91135616.239 7  22256230.461                    22256237.617
 109458705.310 8  85292604.629 7  20829277.578                    20829284.375
 114410739.916 8  89151299.236 7  21771640.828                    21771650.422
 114286177.418 8  89054205.783 7  21747921.602                    21747929.016
 131614031.089 6 102556490.69642  25045331.773                    25045341.156
 116059947.344 7  90436421.38345  22085449.898                    22085455.129
 11  8 21  2 41  0.0000000  0  9G15G26G30G12G05G25G29G21G02
 123553552.344 7  96275510.489 6  23511443.539                    23511451.785
 119091128.181 7  92798355.80144  22662285.227                    22662293.059
 115752733.824 7  90197006.55945  22027010.203                    22027018.152
 117039373.762 7  91199569.752 7  22271848.664                    22271855.703
 109511891.969 8  85334048.783 7  20839398.844                    20839405.422
 114442575.755 8  89176106.393 7  21777698.797                    21777708.879
 114212108.922 8  88996490.105 7  21733826.617                    21733834.305
 131558106.452 6 102512913.14943  25034689.641                    25034698.551
 116102924.541 7  90469910.10045  22093628.602                    22093633.641
 11  8 21  2 41 30.0000000  0  9G15G26G30G12G05G25G29G21G02
 123457490.121 7  96200656.886 6  23493164.078                    23493171.984
 119006817.416 7  92732659.16145  22646241.234                    22646249.047
 115799094.566 8  90233131.80545  22035832.391                    22035840.574
 117121715.213 7  91263731.914 7  22287517.570                    22287524.988
 109565475.105 8  85375801.871 8  20849595.391                    20849602.395
 114474918.994 8  89201308.926 7  21783853.484                    21783863.270
 114138235.066 8  88938926.116 7  21719769.273                    21719776.395
 131502182.542 6 102469336.17442  25024047.969                    25024056.441
 116145987.122 8  90503465.34245  22101823.367                    22101828.125
 11  8 21  2 42  0.0000000  0  9G15G26G30G12G05G25G29G21G02
 123361463.771 7  96125831.254 6  23474890.359                    23474898.727
 118922786.243 7  92667180.36344  22630250.305                    22630258.719
 115845918.400 7  90269617.90745  22044742.938                    22044750.594
 117204322.071 7  91328100.868 7  22303237.289                    22303244.520
 109619452.913 8  85417862.507 7  20859866.992                    20859873.566
 114507768.217 8  89226905.716 7  21790104.313                    21790114.020
 114064558.047 8  88881515.492 7  21705748.891                    21705756.449
 131446259.055 6 102425759.49943  25013406.641                    25013414.152
 116189135.784 7  90537087.67845  22110034.313                    22110039.473
 11  8 21  2 42 30.0000000  0  9G15G26G30G12G05G25G29G21G02
 123265476.209 7  96051035.824 6  23456624.461                    23456632.734
 118839038.011 7  92601922.03845  22614313.938                    22614322.172
 115893202.693 8  90306462.80945  22053740.781                    22053748.574
 117287190.842 7  91392673.931 7  22319006.555                    22319013.910
 109673823.165 8  85460228.935 7  20870213.375                    20870220.133
 114541121.344 8  89252895.179 7  21796451.359                    21796460.770
 113991080.316 8  88824260.158 7  21691766.195                    21691773.574
 131390335.559 6 102382182.85943  25002763.219                    25002773.063
 116232370.303 7  90570776.92545  22118261.102                    22118266.633
 11  8 21  2 43  0.0000000  0  9G15G26G30G12G05G25G29G21G02
 123169530.676 7  95976273.143 6  23438366.672                    23438374.707
 118755577.087 7  92536887.60144  22598431.766                    22598439.871
 115940945.523 8  90343664.99545  22062825.813                    22062833.961
 117370319.145 7  91457449.227 7  22334825.555                    22334833.258
 109728584.195 8  85502899.857 7  20880633.711                    20880640.773
 114574977.047 8  89279276.240 7  21802893.953                    21802903.605
 113917804.798 8  88767162.392 7  21677823.016                    21677829.984
 131334411.703 6 102338605.89243  24992122.938                    24992130.355
 116275691.564 8  90604533.75645  22126505.148                    22126510.625
 11  8 21  2 43 30.0000000  0  9G15G26G30G12G05G25G29G21G02
 123073629.267 7  95901544.848 6  23420117.430                    23420125.371
 118672406.006 7  92472079.01044  22582604.531                    22582612.820
 115989143.277 8  90381221.68745  22071997.719                    22072005.070
 117453702.836 7  91522423.516 7  22350692.797                    22350700.281
 109783731.898 8  85545872.096 7  20891128.180                    20891134.957
 114609332.484 8  89306046.702 7  21809431.719                    21809441.355
 113844732.660 8  88710223.096 7  21663917.664                    21663925.133
 131278486.024 6 102295027.56143  24981479.883                    24981488.059
 116319098.913 8  90638357.66445  22134765.453                    22134770.715
 11  8 21  2 44  0.0000000  0  9G15G26G30G12G05G25G29G21G02
 122977775.707 7  95826853.828 6  23401877.109                    23401884.676
 118589529.428 7  92407499.90745  22566833.430                    22566841.172
 116037794.207 7  90419131.49345  22081255.461                    22081263.492
 117537339.854 7  91587595.205 7  22366608.359                    22366615.324
 109839265.198 8  85589144.802 7  20901695.563                    20901702.543
 114644186.373 8  89333205.597 7  21816063.891                    21816074.012
 113771867.037 8  88653444.715 7  21650051.859                    21650059.184
 131222558.462 6 102251447.71242  24970836.547                    24970845.215
 116362593.349 7  90672249.42745  22143041.789                    22143047.148
 11  8 21  2 44 30.0000000  0  9G15G26G30G12G05G25G29G21G02
 122881972.760 7  95752202.283 6  23383645.758                    23383653.492
 118506950.426 7  92343152.67845  22551119.617                    22551127.969
 116086895.367 7  90457392.13245  22090599.313                    22090607.488
 117621227.252 7  91652961.989 7  22382571.641                    22382578.773
 109895181.452 8  85632715.914 7  20912336.563                    20912343.070
 114679536.585 8  89360751.206 7  21822791.164                    21822800.840
 113699209.961 8  88596828.846 7  21636225.617                    21636232.879
 131166628.762 6 102207866.24043  24960194.102                    24960201.758
 116406174.693 7  90706208.91545  22151334.969                    22151340.195
 11  8 21  2 45  0.0000000  0  9G15G26G30G12G05G25G29G21G02
 122786223.426 7  95677592.486 6  23365425.805                    23365433.355
 118424673.295 7  92279040.68145  22535462.672                    22535470.813
 116136444.470 7  90496001.82545  22100028.195                    22100035.957
 117705361.422 7  91718521.067 7  22398581.656                    22398589.418
 109951478.279 7  85676583.583 7  20923049.352                    20923056.063
 114715381.312 8  89388682.157 7  21829612.000                    21829621.648
 113626763.798 8  88540377.327 7  21622439.125                    21622446.703
 131110695.947 6 102164282.32943  24949549.844                    24949558.555
 116449843.237 7  90740236.34545  22159645.180                    22159650.223
 11  8 21  2 45 30.0000000  0  9G15G26G30G12G05G25G29G21G02
 122690530.658 7  95603026.776 6  23347215.180                    23347223.422
 118342701.204 7  92215166.37445  22519863.695                    22519872.055
 116186438.550 7  90534958.24745  22109541.883                    22109549.324
 117789739.162 7  91784269.938 7  22414638.680                    22414645.805
 110008153.288 8  85720745.929 7  20933834.148                    20933840.816
 114751718.294 8  89416996.679 7  21836526.672                    21836536.293
 113554530.674 8  88484091.807 7  21608693.453                    21608701.016
 131054759.393 6 102120695.46843  24938906.031                    24938914.004
 116493599.401 8  90774332.05745  22167971.336                    22167976.715
 11  8 21  2 46  0.0000000  0  9G15G26G30G12G05G25G29G21G02
 122594897.310 7  95528507.383 6  23329016.906                    23329024.918
 118261037.603 7  92151532.42445  22504324.109                    22504331.887
 116236874.776 7  90574259.20145  22119139.234                    22119147.172
 117874357.278 7  91850206.112 7  22430740.852                    22430747.727
 110065203.856 8  85765200.920 7  20944690.289                    20944697.258
 114788545.279 8  89445693.017 7  21843534.922                    21843544.656
 113482512.755 8  88427973.981 7  21594989.227                    21594996.305
 130998818.746 6 102077105.42443  24928259.719                    24928269.152
 116537443.015 8  90808495.90945  22176314.703                    22176320.031
 11  8 21  2 46 30.0000000  0  9G15G26G30G12G05G25G29G21G02
 122499326.793 7  95454036.939 6  23310830.516                    23310838.406
 118179686.292 7  92088141.83745  22488842.922                    22488850.547
 116287750.949 7  90613902.96845  22128820.555                    22128828.703
 117959213.383 7  91916327.730 7  22446888.078                    22446895.199
 110122627.767 8  85809946.813 7  20955617.672                    20955624.613
 114825860.714 8  89474769.963 7  21850635.313                    21850645.508
 113410712.907 8  88372026.073 7  21581326.188                    21581333.508
 130942873.461 6 102033511.80843  24917614.203                    24917622.676
 116581374.718 8  90842728.39745  22184674.836                    22184680.180
 11  8 21  2 47  0.0000000  0  9G15G26G30G12G05G25G29G21G02
 122403822.224 7  95379617.881 6  23292656.219                    23292664.664
 118098651.463 7  92024997.86845  22473422.461                    22473430.695
 116339064.478 7  90653887.53145  22138585.758                    22138593.688
 118044304.902 7  91982632.805 7  22463080.984                    22463087.824
 110180422.794 8  85854981.904 7  20966615.867                    20966622.602
 114863662.582 8  89504225.937 7  21857829.188                    21857839.223
 113339133.465 8  88316249.911 7  21567705.219                    21567712.395
 130886923.015 6 101989914.14143  24906966.367                    24906975.320
 116625394.848 8  90877029.78945  22193051.359                    22193056.813
 11  8 21  2 47 30.0000000  0  9G15G26G30G12G05G25G29G21G02
 122308386.285 7  95305252.283 6  23274495.406                    23274503.918
 118017936.623 7  91962103.22845  22458062.586                    22458071.703
 116390812.556 7  90694210.69545  22148432.781                    22148440.871
 118129628.139 7  92049118.427 7  22479316.820                    22479323.871
 110238586.513 8  85900304.287 7  20977683.820                    20977690.566
 114901948.729 8  89534059.294 7  21865114.375                    21865124.566
 113267776.633 8  88260647.215 7  21554125.977                    21554133.148
 130830966.838 7 101946312.03143  24896319.289                    24896327.547
 116669503.644 8  90911400.27845  22201445.258                    22201450.438
 11  8 21  2 48  0.0000000  0  9G15G26G30G12G05G25G29G21G02
 122213021.623 7  95230942.239 7  23256348.539                    23256356.523
 117937544.846 7  91899460.33145  22442765.117                    22442773.984
 116442992.225 7  90734870.17745  22158362.258                    22158370.188
 118215179.856 7  92115782.084 7  22495597.156                    22495604.414
 110297116.071 8  85945911.730 7  20988821.797                    20988828.531
 114940716.760 8  89564268.131 7  21872492.234                    21872501.840
 113196644.227 8  88205219.398 7  21540590.227                    21540597.238
 130775004.300 6 101902704.94443  24885669.602                    24885677.961
 116713700.965 7  90945839.74545  22209855.852                    22209860.957
 11  8 21  2 48 30.0000000  0  9G15G26G30G12G05G25G29G21G02
 122117731.852 7  95156690.522 6  23238215.547                    23238223.000
 117857480.215 7  91837072.34844  22427529.617                    22427536.984
 116495600.913 7  90775863.95245  22168373.375                    22168381.523
 118300957.107 7  92182621.485 7  22511919.742                    22511927.547
 110356009.363 8  85991802.611 7  21000028.734                    21000035.617
 114979964.755 8  89594850.965 7  21879960.820                    21879970.410
 113125739.017 8  88149968.618 7  21527097.313                    21527104.859
 130719034.561 7 101859092.23643  24875018.578                    24875027.367
 116757987.405 7  90980348.64945  22218283.094                    22218288.320
 11  8 21  2 49  0.0000000  0  9G15G26G30G12G05G25G29G21G02
 122022520.147 7  95082499.677 6  23220097.383                    23220105.090
 117777746.234 7  91774942.01444  22412356.477                    22412364.090
 116548635.907 7  90817189.91145  22178465.625                    22178473.914
 118386956.768 7  92249634.198 7  22528285.375                    22528292.359
 110415264.294 8  86037975.279 7  21011304.836                    21011311.441
 115019690.523 8  89625806.102 7  21887520.344                    21887530.156
 113055063.205 8  88094896.591 7  21513647.945                    21513655.508
 130663057.259 7 101815473.68043  24864366.414                    24864374.594
 116802363.343 7  91014927.30645  22226727.656                    22226732.727
 11  8 21  2 49 30.0000000  0  9G15G26G30G12G05G25G29G21G02
 121927388.762 7  95008371.386 6  23201994.242                    23202002.441
 117698346.123 7  91713071.83745  22397246.859                    22397254.184
 116602094.034 7  90858845.58445  22188638.516                    22188646.258
 118473175.582 7  92316817.672 6  22544692.383                    22544699.188
 110474877.582 8  86084427.188 7  21022648.773                    21022655.453
 115059891.538 8  89657131.555 7  21895170.234                    21895180.148
 112984618.660 8  88040004.774 7  21500242.602                    21500250.219
 130607071.882 7 101771848.80343  24853713.469                    24853721.121
 116846828.466 7  91049575.44745  22235188.703                    22235194.082
 11  8 21  2 50  0.0000000  0  9G15G26G30G12G05G25G29G21G02
 121832341.121 7  94934308.361 6  23183907.227                    23183914.926
 117619283.993 7  91651465.02945  22382201.570                    22382209.797
 116655972.880 7  90900829.10045  22198891.094                    22198898.945
 118559610.711 7  92384169.692 7  22561140.195                    22561147.867
 110534847.198 8  86131156.761 7  21034060.664                    21034067.488
 115100565.997 8  89688825.913 7  21902910.414                    21902920.254
 112914408.358 8  87985295.481 7  21486882.070                    21486889.320
 130551077.607 6 101728217.03743  24843057.367                    24843066.246
 116891383.685 8  91084293.78645  22243667.594                    22243672.645
 11  8 21  2 50 30.0000000  0  9G15G26G30G12G05G25G29G21G02
 121737380.672 7  94860313.261 6  23165836.734                    23165844.133
 117540563.501 7  91590124.42145  22367221.453                    22367229.922
 116710270.039 7  90943138.56145  22209223.180                    22209231.191
 118646259.173 7  92451687.966 7  22577628.797                    22577636.148
 110595171.097 8  86178162.388 7  21045540.008                    21045546.887
 115141711.923 8  89720887.661 7  21910740.031                    21910749.738
 112844434.733 8  87930770.612 7  21473566.852                    21473574.074
 130495074.245 6 101684578.16443  24832400.375                    24832408.824
 116936029.369 7  91119082.63545  22252162.992                    22252168.363
 11  8 21  2 51  0.0000000  0  9G15G26G30G12G05G25G29G21G02
 121642510.278 7  94786388.329 6  23147783.180                    23147790.984
 117462188.571 7  91529053.08545  22352307.547                    22352315.379
 116764982.758 7  90985771.84145  22219634.953                    22219642.742
 118733118.394 7  92519370.461 6  22594157.734                    22594164.785
 110655847.020 8  86225442.323 7  21057086.227                    21057093.180
 115183327.241 8  89753315.179 7  21918659.070                    21918669.629
 112774700.209 8  87876432.059 7  21460296.781                    21460303.926
 130439061.531 6 101640931.99342  24821740.336                    24821749.641
 116980765.719 7  91153942.12345  22260676.273                    22260681.383
 11  8 21  2 51 30.0000000  0  9G15G26G30G12G05G25G29G21G02
 121547732.736 7  94712535.748 6  23129747.641                    23129755.516
 117384162.579 7  91468253.66245  22337459.766                    22337467.719
 116820108.025 7  91028726.58245  22230124.953                    22230132.824
 118820184.807 7  92587214.399 7  22610725.813                    22610733.379
 110716872.002 8  86272994.237 7  21068698.836                    21068705.734
 115225409.456 8  89786106.490 7  21926667.398                    21926676.777
 112705207.032 8  87822281.583 7  21447072.539                    21447079.938
 130383038.641 6 101597277.84243  24811079.961                    24811088.734
 117025593.015 7  91188872.49045  22269206.250                    22269212.395
 11  8 21  2 52  0.0000000  0  9G15G26G30G12G05G25G29G21G02
 121453050.991 7  94638757.810 6  23111730.273                    23111737.445
 117306488.590 7  91407728.52245  22322678.953                    22322686.703
 116875642.581 7  91072000.27645  22240692.797                    22240700.520
 118907454.835 7  92655216.993 6  22627332.766                    22627340.117
 110778243.411 8  86320816.119 7  21080377.281                    21080384.082
 115267956.013 8  89819259.636 7  21934763.563                    21934773.355
 112635956.817 8  87768320.422 7  21433894.523                    21433901.938
 130327004.863 6 101553615.29543  24800417.984                    24800425.965
 117070511.111 7  91223873.59745  22277754.141                    22277759.531
 11  8 21  2 52 30.0000000  0  9G15G26G30G12G05G25G29G21G02
 121358468.314 7  94565057.060 6  23093732.086                    23093740.133
 117229170.349 7  91347480.59345  22307965.539                    22307973.387
 116931583.778 7  91115590.81045  22251338.063                    22251345.980
 118994925.957 7  92723376.293 7  22643977.891                    22643985.094
 110839958.750 8  86368905.981 7  21092121.336                    21092128.262
 115310964.592 8  89852772.807 7  21942947.789                    21942958.043
 112566952.237 8  87714550.664 7  21420763.594                    21420770.828
 130270959.407 6 101509943.64842  24789752.688                    24789760.508
 117115520.585 7  91258945.92945  22286319.063                    22286324.148
 11  8 21  2 53  0.0000000  0  9G15G26G30G12G05G25G29G21G02
 121263988.213 7  94491436.246 6  23075753.016                    23075760.809
 117152212.039 7  91287513.12445  22293321.227                    22293328.934
 116987929.343 7  91159496.43245  22262060.266                    22262068.359
 119082595.332 7  92791690.071 7  22660660.492                    22660668.680
 110902016.372 8  86417262.564 7  21103930.664                    21103937.461
 115354433.634 8  89886644.775 7  21951219.398                    21951229.129
 112498196.496 8  87660974.802 7  21407679.594                    21407686.918
 130214902.326 6 101466262.91243  24779084.805                    24779092.695
 117160622.016 7  91294089.88945  22294902.102                    22294907.355
 11  8 21  2 53 30.0000000  0  9G15G26G30G12G05G25G29G21G02
 121169612.859 7  94417897.023 6  23057794.461                    23057801.402
 117075616.455 7  91227828.30845  22278745.109                    22278753.266
 117044675.441 7  91203714.17845  22272858.859                    22272866.586
 119170458.881 7  92860155.152 7  22677380.969                    22677387.676
 110964412.730 8  86465883.101 7  21115804.352                    21115811.012
 115398359.781 8  89920872.948 7  21959578.406                    21959588.176
 112429690.895 8  87607593.862 7  21394643.563                    21394650.734
 130158832.610 6 101422572.37343  24768414.828                    24768422.684
 117205815.094 7  91329305.26545  22303501.695                    22303506.840
 11  8 21  2 54  0.0000000  0  9G15G26G30G12G05G25G29G21G02
 121075346.006 7  94344442.373 6  23039855.258                    23039862.984
 116999388.138 7  91168429.66945  22264239.188                    22264246.930
 117101820.307 7  91248242.62945  22283733.117                    22283740.016
 119258514.669 7  92928770.036 7  22694137.398                    22694144.387
 111027146.425 8  86514766.485 7  21127742.125                    21127748.965
 115442741.855 8  89955456.369 7  21968024.289                    21968034.281
 112361438.529 8  87554410.248 7  21381655.258                    21381662.395
 130102750.079 6 101378871.86643  24757742.711                    24757750.395
 117251101.019 8  91364592.99345  22312119.156                    22312124.477
 11  8 21  2 54 30.0000000  0  9G15G26G30G12G05G25G29G21G02
 120981190.401 7  94271074.415 6  23021938.203                    23021945.254
 116923529.887 7  91109319.39745  22249803.844                    22249811.938
 117159360.384 7  91293079.05445  22294682.492                    22294690.453
 119346758.984 7  92997531.819 7  22710929.172                    22710937.176
 111090214.527 8  86563910.452 7  21139743.938                    21139750.660
 115487576.809 8  89990392.683 7  21976556.281                    21976565.738
 112293441.209 8  87501425.358 7  21368715.805                    21368722.730
 130046653.870 6 101335160.66343  24747067.414                    24747075.094
 117296479.671 8  91399952.99745  22320754.695                    22320760.230
 11  8 21  2 55  0.0000000  0  9G15G26G30G12G05G25G29G21G02
 120887149.269 7  94197795.643 6  23004042.266                    23004050.273
 116848045.575 7  91050500.50445  22235439.844                    22235447.680
 117217293.026 7  91338221.35845  22305706.750                    22305714.852
 119435188.843 7  93066438.190 6  22727757.227                    22727764.449
 111153614.577 8  86613313.084 7  21151808.352                    21151814.965
 115532862.496 8  90025680.249 7  21985173.250                    21985183.305
 112225701.666 8  87448641.338 7  21355825.398                    21355832.688
 129990543.587 6 101291438.50243  24736390.008                    24736398.246
 117341951.450 8  91435385.53745  22329408.023                    22329413.527
 11  8 21  2 55 30.0000000  0  9G15G26G30G12G05G25G29G21G02
 120793226.021 7  94124608.766 6  22986169.508                    22986177.355
 116772938.719 7  90991975.73145  22221147.109                    22221155.543
 117275615.308 7  91383667.28745  22316804.820                    22316812.945
 119523801.508 7  93135486.999 7  22744620.266                    22744627.086
 111217344.171 8  86662972.499 7  21163935.453                    21163942.305
 115578596.661 8  90061317.252 7  21993876.602                    21993886.664
 112158222.630 8  87396060.315 7  21342984.570                    21342991.488
 129934418.980 6 101247705.20143  24725709.273                    24725718.188
 117387516.692 8  91470890.91945  22338078.695                    22338084.402
 11  8 21  2 56  0.0000000  0  9G15G26G30G12G05G25G29G21G02
 120699423.179 7  94051515.693 6  22968319.727                    22968327.094
 116698212.675 7  90933747.69145  22206927.648                    22206934.973
 117334324.276 7  91429414.52745  22327977.047                    22327984.586
 119612593.443 7  93204675.505 6  22761516.977                    22761523.973
 111281400.426 8  86712886.456 7  21176125.266                    21176131.723
 115624776.576 8  90097301.610 7  22002664.297                    22002674.672
 112091005.368 8  87343683.253 7  21330193.539                    21330200.617
 129878279.146 6 101203959.99243  24715027.047                    24715035.258
 117433175.368 7  91506469.11445  22346766.992                    22346772.137
 11  8 21  2 56 30.0000000  0 10G15G26G30G18G12G05G25G29G21G02
 120605744.050 7  93978519.008 6  22950492.602                    22950500.434
 116623871.286 7  90875819.38545  22192780.930                    22192788.469
 117393417.063 7  91475460.82645  22339222.539                    22339230.414
 129645365.29716 101022395.08652  24670694.148                    24670701.816
 119701561.783 7  93274001.472 7  22778446.758                    22778454.012
 111345781.627 8  86763053.621 7  21188376.328                    21188383.188
 115671400.101 8  90133631.635 7  22011536.633                    22011546.156
 112024052.926 8  87291512.557 7  21317452.688                    21317460.191
 129822123.725 6 101160202.70743  24704340.523                    24704348.781
 117478928.370 8  91542120.81245  22355473.555                    22355478.645
 11  8 21  2 57  0.0000000  0 10G15G26G30G18G12G05G25G29G21G02
 120512191.500 7  93905620.966 7  22932690.430                    22932697.969
 116549917.675 7  90818193.24245  22178707.961                    22178715.395
 117452890.545 7  91521803.80245  22350539.547                    22350547.691
 129555932.063 6 100952706.98142  24653675.039                    24653684.758
 119790703.160 7  93343462.252 7  22795409.758                    22795417.145
 111410484.728 8  86813471.618 7  21200689.023                    21200696.082
 115718464.546 8  90170305.225 7  22020492.664                    22020502.211
 111957367.432 8  87239549.861 7  21304763.242                    21304770.113
 129765952.142 6 101116432.80043  24693651.195                    24693659.820
 117524775.579 8  91577845.90345  22364197.672                    22364203.113
 11  8 21  2 57 30.0000000  0 10G15G26G30G18G12G05G25G29G21G02
 120418768.774 7  93832824.093 6  22914912.516                    22914920.414
 116476355.603 7  90760872.19345  22164709.188                    22164716.949
 117512741.924 7  91568441.22945  22361929.203                    22361936.727
 129466663.840 6 100883147.43843  24636688.047                    24636698.539
 119880014.719 7  93413055.652 7  22812405.109                    22812412.641
 111475507.212 8  86864138.495 7  21213062.258                    21213069.301
 115765967.692 8  90207320.655 7  22029532.016                    22029542.285
 111890951.408 8  87187797.145 7  21292124.648                    21292131.465
 129709763.823 6 101072649.81543  24682958.945                    24682967.473
 117570717.691 7  91613644.94645  22372940.516                    22372945.684
 11  8 21  2 58  0.0000000  0 10G15G26G30G18G12G05G25G29G21G02
 120325479.024 7  93760130.841 7  22897160.242                    22897167.859
 116403188.725 7  90703859.08045  22150785.758                    22150793.020
 117572968.261 7  91615370.83545  22373389.320                    22373397.027
 129377562.296 6 100813717.86342  24619732.906                    24619742.402
 119969493.663 7  93482779.489 7  22829432.711                    22829439.672
 111540846.894 8  86915052.523 7  21225496.453                    21225502.855
 115813907.017 8  90244675.974 7  22038654.555                    22038664.766
 111824807.231 8  87136256.258 7  21279537.734                    21279544.570
 129653558.325 6 101028853.49643  24672263.703                    24672271.746
 117616754.907 7  91649518.08545  22381700.961                    22381706.875
 11  8 21  2 58 30.0000000  0 10G15G26G30G18G12G05G25G29G21G02
 120232325.710 7  93687543.898 6  22879433.281                    22879441.574
 116330420.471 7  90647156.57545  22136938.625                    22136946.551
 117633566.807 7  91662590.46945  22384921.094                    22384928.383
 129288628.629 6 100744419.06443  24602809.727                    24602818.680
 120059136.510 7  93552631.038 7  22846490.891                    22846498.039
 111606501.369 8  86966211.849 7  21237989.594                    21237996.609
 115862280.305 8  90282369.456 7  22047859.789                    22047869.617
 111758937.703 8  87084929.376 7  21267003.000                    21267009.820
 129597335.198 6 100985043.42143  24661564.563                    24661572.801
 117662887.765 7  91685465.78945  22390479.867                    22390485.258
 11  8 21  2 59  0.0000000  0 10G15G26G30G18G12G05G25G29G21G02
 120139311.401 7  93615065.250 6  22861733.758                    22861741.332
 116258054.404 7  90590767.48045  22123167.109                    22123175.523
 117694534.343 7  91710097.61345  22396523.523                    22396530.895
 129199863.945 6 100675251.91843  24585917.883                    24585927.168
 120148940.105 7  93622607.858 6  22863579.742                    22863587.254
 111672467.971 8  87017614.394 7  21250542.805                    21250549.766
 115911084.789 8  90320398.902 7  22057146.906                    22057156.602
 111693344.667 8  87033817.939 7  21254521.289                    21254528.320
 129541093.890 6 100941219.15943  24650862.508                    24650870.152
 117709116.314 7  91721488.02445  22399276.695                    22399282.281
 11  8 21  2 59 30.0000000  0 10G15G26G30G18G12G05G25G29G21G02
 120046439.017 7  93542697.219 6  22844059.945                    22844067.605
 116186093.887 7  90534694.38945  22109474.008                    22109481.844
 117755867.997 7  91757890.06445  22408193.906                    22408202.094
 129111269.574 6 100606217.47843  24569059.023                    24569067.949
 120238901.642 7  93692707.723 7  22880699.086                    22880706.500
 111738744.442 8  87069258.388 7  21263154.664                    21263161.172
 115960318.105 8  90358762.532 7  22066515.852                    22066525.848
 111628030.781 8  86982924.031 7  21242092.422                    21242099.512
 129484833.803 6 100897380.23943  24640156.000                    24640164.207
 117755441.276 7  91757585.39045  22408092.234                    22408097.551
 11  8 21  3  0  0.0000000  0 10G15G26G30G18G12G05G25G29G21G02
 119953712.329 7  93470442.718 6  22826414.875                    22826422.785
 116114542.515 7  90478940.10545  22095858.211                    22095865.703
 117817564.822 7  91805965.49945  22419934.633                    22419942.652
 129022847.082 6 100537316.98043  24552233.258                    24552242.129
 120329018.391 7  93762928.533 6  22897847.766                    22897855.426
 111805327.967 8  87121141.658 7  21275825.188                    21275832.180
 116009977.767 8  90397458.372 7  22075965.727                    22075975.871
 111562998.276 8  86932249.370 7  21229716.828                    21229724.141
 129428554.466 6 100853526.31443  24629446.281                    24629454.125
 117801862.763 7  91793757.97945  22416925.953                    22416931.246
 11  8 21  3  0 30.0000000  0 10G15G26G30G18G12G05G25G29G21G02
 119861134.208 7  93398303.962 6  22808798.063                    22808805.543
 116043403.708 7  90423507.30645  22082320.461                    22082328.867
 117879621.857 7  91854321.62145  22431743.852                    22431752.367
 128934597.348 6 100468551.07842  24535439.414                    24535448.355
 120419286.672 7  93833267.441 6  22915024.758                    22915032.574
 111872216.492 8  87173262.584 7  21288553.586                    21288560.453
 116060061.259 8  90436484.457 7  22085496.180                    22085506.234
 111498249.537 8  86881795.844 7  21217395.500                    21217402.660
 129372255.555 6 100809657.13943  24618732.617                    24618740.242
 117848381.266 7  91830006.17245  22425778.086                    22425783.340
 11  8 21  3  1  0.0000000  0 10G15G26G30G18G12G05G25G29G21G02
 119768707.419 7  93326283.144 6  22791210.133                    22791217.246
 115972680.639 7  90368398.44945  22068862.727                    22068870.246
 117942035.657 7  91902955.73945  22443620.852                    22443629.121
 128846521.710 6 100399920.82743  24518679.102                    24518687.777
 120509703.478 7  93903722.058 6  22932230.391                    22932238.742
 111939407.142 8  87225618.934 7  21301339.734                    21301346.516
 116110565.631 8  90475838.521 7  22095107.234                    22095116.746
 111433786.548 8  86831564.967 7  21205128.820                    21205135.473
 129315936.116 6 100765771.95743  24608015.719                    24608023.656
 117894997.092 7  91866330.19645  22434648.484                    22434653.941
 11  8 21  3  1 30.0000000  0 10G15G26G30G18G12G05G25G29G21G02
 119676435.577 7  93254383.060 6  22773650.773                    22773658.484
 115902377.296 7  90313616.65445  22055484.445                    22055492.152
 118004803.806 7  91951865.96945  22455565.445                    22455573.313
 128758621.466 6 100331427.27842  24501951.258                    24501961.113
 120600266.161 7  93974290.358 6  22949463.867                    22949471.891
 112006897.666 8  87278208.955 7  21314182.664                    21314189.375
 116161488.951 8  90515519.027 7  22104797.156                    22104807.160
 111369612.494 8  86781559.229 7  21192916.672                    21192923.898
 129259596.237 7 100721870.86343  24597294.625                    24597302.641
 117941710.867 7  91902730.54745  22443538.258                    22443543.652
 11  8 21  3  2  0.0000000  0 10G15G26G30G18G12G05G25G29G21G02
 119584321.794 7  93182606.129 6  22756122.203                    22756129.754
 115832497.042 7  90259164.55145  22042186.797                    22042194.641
 118067923.111 7  92001049.84445  22467576.555                    22467584.348
 128670897.911 5 100263071.35343  24485258.773                    24485268.176
 120690971.399 7  94044969.754 6  22966724.898                    22966732.234
 112074685.595 8  87331030.727 7  21327082.453                    21327089.215
 116212828.427 8  90555523.807 7  22114567.086                    22114576.855
 111305729.372 8  86731780.198 7  21180760.453                    21180767.430
 129203235.283 7 100677953.31844  24586569.266                    24586576.992
 117988522.846 7  91939207.43445  22452445.875                    22452451.477
 11  8 21  3  2 30.0000000  0 10G15G26G30G18G12G05G25G29G21G02
 119492368.875 7  93110954.565 7  22738624.633                    22738631.520
 115763043.151 7  90205044.66145  22028970.516                    22028977.832
 118131390.566 7  92050504.98345  22479653.797                    22479662.309
 128583352.391 6 100194854.19742  24468599.875                    24468609.309
 120781816.019 7  94115757.759 6  22984012.555                    22984019.836
 112142768.589 8  87384082.413 7  21340038.109                    21340044.836
 116264581.498 8  90595850.868 7  22124415.117                    22124425.195
 111242139.745 8  86682229.868 7  21168659.523                    21168666.480
 129146852.753 6 100634018.96043  24575839.453                    24575847.973
 118035433.504 7  91975761.18745  22461373.305                    22461378.098
 11  8 21  3  3  0.0000000  0 10G15G26G30G18G12G05G25G29G21G02
 119400579.868 7  93039430.714 7  22721157.328                    22721165.035
 115694018.938 8  90151259.60245  22015834.945                    22015842.875
 118195202.855 7  92100228.85745  22491796.984                    22491804.984
 128495986.105 6 100126776.72343  24451974.352                    24451983.254
 120872796.997 7  94186651.993 6  23001325.555                    23001333.523
 112211143.677 8  87437361.710 7  21353049.414                    21353056.289
 116316745.379 8  90636498.051 7  22134341.430                    22134352.023
 111178845.518 8  86632909.713 7  21156615.008                    21156622.102
 129090448.157 6 100590067.37743  24565106.516                    24565114.820
 118082442.865 7  92012391.85645  22470319.117                    22470324.070
 11  8 21  3  3 30.0000000  0 10G15G26G30G18G12G05G25G29G21G02
 119308957.947 7  92968037.062 7  22703722.258                    22703729.828
 115625428.025 7  90097812.16345  22002782.734                    22002790.477
 118259357.074 7  92150219.15045  22504004.867                    22504013.164
 128408800.210 6 100058839.74343  24435382.672                    24435392.043
 120963911.165 7  94257650.024 6  23018663.984                    23018671.566
 112279808.791 8  87490866.993 7  21366115.656                    21366122.984
 116369317.513 8  90677463.351 7  22144345.750                    22144355.691
 111115849.225 8  86583821.720 7  21144627.133                    21144633.945
 129034020.916 6 100546098.17843  24554368.867                    24554376.852
 118129551.440 7  92049099.86845  22479283.094                    22479288.344
 11  8 21  3  4  0.0000000  0 10G15G26G30G18G12G05G25G29G21G02
 119217506.051 7  92896775.894 7  22686319.563                    22686327.535
 115557273.344 7  90044704.64545  21989813.336                    21989821.508
 118323849.997 7  92200473.36745  22516277.695                    22516285.938
 128321795.677 6  99991044.14843  24418825.313                    24418835.809
 121055155.466 7  94328749.450 7  23036027.633                    23036034.660
 112348760.981 8  87544595.982 7  21379237.070                    21379244.039
 116422295.090 8  90718744.573 7  22154427.047                    22154436.902
 111053153.030 8  86534967.566 7  21132696.563                    21132703.445
 128977570.376 6 100502110.82043  24543626.078                    24543634.555
 118176759.698 7  92085885.53345  22488266.391                    22488271.891
 11  8 21  3  4 30.0000000  0 10G15G26G30G18G12G05G25G29G21G02
 119126227.572 7  92825649.852 7  22668949.680                    22668957.770
 115489558.512 7  89991939.86445  21976927.789                    21976935.238
 118388678.730 7  92250989.24545  22528614.422                    22528622.609
 128234974.438 6  99923391.35643  24402304.078                    24402313.336
 121146526.997 7  94399948.034 6  23053414.609                    23053421.832
 112417998.299 8  87598547.152 7  21392412.547                    21392419.090
 116475675.664 8  90760339.816 7  22164585.547                    22164594.742
 110990759.785 8  86486349.489 7  21120823.617                    21120830.449
 128921096.347 6 100458105.18443  24532879.914                    24532887.789
 118224067.922 7  92122749.10245  22497268.641                    22497274.754
 11  8 21  3  5  0.0000000  0 10G15G26G30G18G12G05G25G29G21G02
 119035126.051 7  92754661.707 7  22651614.109                    22651621.547
 115422287.588 7  89939521.00045  21964126.031                    21964133.973
 118453840.620 7  92301764.74945  22541014.336                    22541022.547
 128148337.190 6  99855881.94243  24385818.031                    24385826.840
 121238022.999 7  94471243.612 6  23070825.273                    23070833.379
 112487518.456 8  87652718.716 7  21405641.844                    21405648.121
 116529457.051 8  90802247.399 7  22174819.633                    22174829.324
 110928672.210 8  86437969.585 7  21109008.313                    21109015.129
 128864598.731 6 100414081.16943  24522128.617                    24522136.355
 118271476.993 7  92159691.23645  22506290.086                    22506295.406
 11  8 21  3  5 30.0000000  0 10G15G26G30G18G12G05G25G29G21G02
 118944204.340 7  92683813.674 7  22634311.797                    22634319.344
 115355463.359 8  89887450.19245  21951409.953                    21951418.195
 118519332.381 7  92352797.28745  22553477.055                    22553485.180
 128061885.092 6  99788516.79143  24369366.477                    24369375.289
 121329640.263 7  94542633.656 6  23088259.984                    23088267.273
 112557318.607 8  87707108.463 7  21418924.344                    21418931.172
 116583636.321 8  90844465.013 7  22185129.000                    22185139.078
 110866892.353 8  86389829.467 7  21097252.414                    21097259.453
 128808076.724 6 100370038.11343  24511372.438                    24511380.270
 118318987.209 8  92196712.19445  22515331.406                    22515336.367
 11  8 21  3  6  0.0000000  0 10G15G26G30G18G12G05G25G29G21G02
 118853465.322 7  92613108.015 7  22617044.305                    22617052.484
 115289089.047 7  89835729.98045  21938779.578                    21938787.082
 118585150.539 7  92404084.14745  22566001.813                    22566010.066
 127975619.320 6  99721296.76643  24352951.563                    24352958.980
 121421375.347 7  94614115.507 6  23105716.461                    23105724.066
 112627396.016 8  87761714.257 7  21432259.719                    21432266.469
 116638210.410 8  90886990.280 7  22195514.188                    22195523.773
 110805422.245 8  86341930.708 7  21085554.883                    21085561.988
 128751529.468 6 100325975.43643  24500611.906                    24500619.250
 118366598.834 7  92233812.17445  22524391.367                    22524396.871
 11  8 21  3  6 30.0000000  0 10G15G26G30G18G12G05G25G29G21G02
 118762911.850 7  92542546.914 7  22599812.414                    22599820.457
 115223168.200 7  89784363.11745  21926234.953                    21926243.102
 118651292.193 7  92455623.10845  22578588.078                    22578596.125
 127889541.207 6  99654223.01143  24336571.086                    24336578.930
 121513225.509 7  94685687.050 6  23123194.641                    23123202.273
 112697748.593 8  87816534.449 7  21445647.109                    21445653.867
 116693176.856 8  90929821.265 7  22205974.203                    22205983.891
 110744264.412 8  86294275.288 7  21073916.805                    21073923.895
 128694957.027 6 100281893.15143  24489845.867                    24489853.785
 118414311.981 7  92270991.25545  22533471.219                    22533476.617
 11  8 21  3  7  0.0000000  0 10G15G26G30G18G12G05G25G29G21G02
 118672547.286 7  92472133.019 7  22582617.328                    22582624.488
 115157703.734 7  89733351.87245  21913777.828                    21913785.230
 118717754.085 7  92507411.57445  22591235.117                    22591243.523
 127803651.738 6  99587296.25543  24320226.406                    24320234.711
 121605187.309 7  94757345.543 6  23140694.602                    23140702.070
 112768373.759 8  87871567.059 7  21459086.547                    21459093.223
 116748532.755 8  90972955.729 7  22216507.766                    22216517.594
 110683420.850 8  86246864.752 7  21062338.727                    21062345.613
 128638358.495 6 100237790.50843  24479075.953                    24479083.469
 118462127.215 7  92308249.88645  22542570.031                    22542575.355
 11  8 21  3  7 30.0000000  0 10G15G26G30G18G12G05G25G29G21G02
 118582374.919 7  92401868.879 7  22565458.023                    22565465.539
 115092699.694 8  89682699.40445  21901407.781                    21901415.270
 118784533.476 7  92559447.48345  22603943.117                    22603950.816
 127717952.371 6  99520517.61643  24303918.102                    24303926.418
 121697258.189 7  94829089.052 6  23158214.906                    23158222.727
 112839269.188 8  87926810.259 7  21472577.594                    21472584.145
 116804275.828 7  91016391.887 7  22227115.352                    22227125.352
 110622894.860 8  86199701.676 7  21050820.570                    21050827.809
 128581734.021 6 100193667.62843  24468300.711                    24468308.012
 118510045.235 7  92345588.60145  22551688.531                    22551693.719
 11  8 21  3  8  0.0000000  0 10G15G26G30G18G12G05G25G29G21G02
 118492398.306 7  92331757.292 7  22548336.188                    22548343.285
 115028158.990 8  89632407.97645  21889126.141                    21889133.883
 118851627.296 7  92611728.35745  22616710.750                    22616718.719
 127632444.157 6  99453887.96243  24287645.898                    24287654.934
 121789434.907 7  94900915.025 6  23175755.422                    23175763.223
 112910432.436 8  87982262.149 7  21486119.516                    21486125.621
 116860403.255 8  91060127.548 7  22237796.078                    22237806.574
 110562688.208 8  86152787.439 7  21039364.078                    21039370.949
 128525082.722 6 100149523.85943  24457520.805                    24457527.277
 118558066.385 7  92383007.66645  22560826.594                    22560832.027
 11  8 21  3  8 30.0000000  0 10G15G26G30G18G12G05G25G29G21G02
 118402620.101 7  92261800.287 7  22531251.953                    22531259.133
 114964084.993 8  89582480.21145  21876933.234                    21876940.605
 118919032.157 7  92664251.63745  22629537.523                    22629545.520
 127547127.999 6  99387407.92843  24271410.641                    24271419.883
 121881714.383 7  94972821.094 6  23193315.867                    23193323.539
 112981860.972 8  88037920.771 7  21499711.836                    21499718.551
 116916912.150 8  91104160.449 7  22248549.539                    22248558.641
 110502803.418 8  86106123.992 7  21027968.367                    21027975.418
 128468404.380 6 100105359.02843  24446734.883                    24446742.461
 118606190.988 7  92420507.36045  22569984.422                    22569990.031
 11  8 21  3  9  0.0000000  0 10G15G26G30G18G12G05G25G29G21G02
 118313043.053 7  92192000.035 7  22514205.891                    22514213.137
 114900480.573 7  89532918.36045  21864829.328                    21864837.148
 118986744.798 7  92717014.72545  22642422.719                    22642430.695
 127462005.164 6  99321078.48043  24255212.008                    24255220.438
 121974093.712 7  95044804.947 6  23210895.109                    23210902.957
 113053551.777 8  88093783.757 7  21513354.742                    21513360.727
 116973799.557 8  91148488.288 7  22259374.891                    22259384.164
 110443242.333 8  86059712.798 7  21016634.219                    21016641.563
 128411698.324 6 100061172.56943  24435943.648                    24435951.398
 118654419.134 7  92458087.71045  22579161.555                    22579167.082
 11  8 21  3  9 30.0000000  0 10G15G26G30G18G12G05G25G29G21G02
 118223670.970 7  92122359.484 6  22497198.461                    22497206.039
 114837349.508 7  89483725.35145  21852816.641                    21852823.836
 119054762.447 7  92770015.49645  22655365.164                    22655373.926
 127377077.049 6  99254900.81943  24239051.188                    24239059.684
 122066569.829 7  95116864.217 6  23228492.883                    23228500.504
 113125503.254 8  88149849.867 7  21527046.180                    21527052.590
 117031063.195 7  91193109.300 7  22270271.469                    22270281.613
 110384008.022 8  86013556.212 7  21005362.367                    21005369.191
 128354964.595 6 100016964.58043  24425147.242                    24425154.910
 118702751.759 7  92495749.48944  22588358.938                    22588364.719
 11  8 21  3 10  0.0000000  0 10G15G26G30G18G12G05G25G29G21G02
 118134506.651 7  92052880.848 7  22480231.117                    22480238.809
 114774694.994 7  89434903.67445  21840893.266                    21840901.156
 119123082.043 7  92823251.52845  22668366.641                    22668374.516
 127292344.688 6  99188875.69043  24222926.711                    24222935.527
 122159139.717 7  95188996.570 6  23246108.414                    23246115.633
 113197712.937 8  88206117.155 7  21540787.109                    21540794.008
 117088700.168 7  91238021.214 7  22281239.758                    22281249.684
 110325102.848 8  85967656.115 7  20994152.859                    20994159.789
 128298202.433 6  99972734.40443  24414346.586                    24414353.785
 118751189.374 7  92533493.07345  22597576.305                    22597581.789
 11  8 21  3 10 30.0000000  0 10G15G26G30G18G12G05G25G29G21G02
 118045553.592 7  91983566.813 7  22463304.133                    22463311.684
 114712520.364 7  89386455.94645  21829061.906                    21829069.672
 119191700.411 7  92876720.37545  22681424.492                    22681432.898
 127207809.219 6  99123003.93843  24206840.695                    24206848.352
 122251800.314 7  95261199.619 6  23263741.641                    23263748.195
 113270178.225 8  88262583.617 7  21554576.781                    21554583.539
 117146707.789 8  91283221.949 7  22292278.273                    22292288.121
 110266529.233 8  85922014.367 7  20983006.773                    20983013.797
 128241411.564 7  99928481.82743  24403539.156                    24403546.398
 118799732.341 7  92571318.74145  22606814.250                    22606819.168
 11  8 21  3 11  0.0000000  0 10G15G26G30G18G12G05G25G29G21G02
 117956814.542 7  91914419.534 7  22446417.258                    22446424.703
 114650828.706 7  89338384.57745  21817322.406                    21817329.582
 119260614.120 7  92930419.36845  22694537.945                    22694546.082
 127123471.644 6  99057286.44842  24190791.484                    24190800.316
 122344548.610 7  95333470.993 6  23281391.086                    23281398.098
 113342896.190 8  88319246.983 7  21568414.594                    21568421.352
 117205083.015 7  91328709.120 7  22303386.711                    22303396.352
 110208289.259 8  85876632.603 7  20971923.977                    20971930.781
 128184591.402 6  99884206.45243  24392726.844                    24392734.422
 118848381.006 7  92609226.76945  22616071.727                    22616076.727
 11  8 21  3 11 30.0000000  0 10G15G26G30G18G12G05G25G29G21G02
 117868292.477 7  91845441.356 7  22429572.102                    22429579.020
 114589622.999 7  89290691.84745  21805675.398                    21805682.676
 119329820.131 7  92984346.09944  22707707.469                    22707715.891
 127039333.108 6  98991724.03943  24174780.547                    24174788.523
 122437381.519 7  95405808.319 6  23299056.742                    23299063.855
 113415864.570 8  88376105.464 7  21582300.008                    21582306.688
 117263823.069 7  91374480.573 7  22314564.523                    22314574.418
 110150385.098 7  85831512.501 7  20960905.172                    20960911.945
 128127741.681 7  99839908.04143  24381908.094                    24381915.391
 118897135.503 7  92647217.26445  22625349.297                    22625354.625
 11  8 21  3 12  0.0000000  0 10G15G26G30G18G12G05G25G29G21G02
 117779990.923 7  91776634.995 7  22412768.719                    22412776.250
 114528906.539 7  89243380.34945  21794121.539                    21794129.090
 119399315.465 7  93038498.29044  22720932.008                    22720939.836
 126955394.850 6  98926317.72743  24158807.867                    24158815.383
 122530296.504 7  95478209.579 6  23316737.773                    23316744.578
 113489081.301 8  88433157.473 7  21596232.602                    21596239.164
 117322925.252 7  91420534.212 7  22325811.352                    22325821.121
 110092819.500 8  85786656.216 7  20949950.820                    20949957.602
 128070861.776 7  99795586.12743  24371084.422                    24371091.707
 118945996.689 7  92685290.89244  22634647.617                    22634652.207
 11  8 21  3 12 30.0000000  0 10G15G26G30G18G12G05G25G29G21G02
 117691912.466 7  91708002.470 7  22396007.789                    22396015.891
 114468682.513 7  89196452.57145  21782661.523                    21782668.703
 119469096.684 7  93092873.26244  22734210.773                    22734219.000
 126871657.545 6  98861067.95443  24142873.203                    24142880.930
 122623290.017 7  95550672.049 6  23334433.461                    23334440.371
 113562543.567 8  88490400.818 7  21610211.891                    21610218.621
 117382386.603 7  91466867.721 7  22337126.555                    22337136.301
 110035594.367 8  85742065.233 7  20939061.219                    20939068.211
 128013951.385 6  99751240.42143  24360254.320                    24360261.547
 118994964.768 7  92723447.82544  22643965.320                    22643970.758
 11  8 21  3 13  0.0000000  0 10G15G26G30G18G12G05G25G29G21G02
 117604060.534 7  91639546.468 7  22379290.469                    22379297.922
 114408953.997 7  89149910.91345  21771294.781                    21771302.219
 119539160.621 7  93147468.51144  22747543.867                    22747551.684
 126788122.465 6  98795975.79143  24126976.656                    24126985.027
 122716358.913 7  95623193.227 6  23352144.094                    23352151.074
 113636248.927 8  88547833.568 7  21624237.375                    21624244.324
 117442204.262 7  91513478.858 7  22348509.539                    22348519.285
 109978712.254 8  85697741.525 7  20928237.180                    20928244.266
 127957010.157 7  99706870.69344  24349419.672                    24349426.965
 119044040.239 7  92761688.44144  22653304.453                    22653309.559
 11  8 21  3 13 30.0000000  0 10G15G26G30G18G12G05G25G29G21G02
 117516438.204 7  91571269.368 7  22362616.516                    22362623.871
 114349723.977 7  89103757.68245  21760023.891                    21760031.465
 119609503.988 7  93202281.51445  22760929.359                    22760937.816
 126704790.402 6  98731041.84443  24111118.180                    24111127.297
 122809500.035 7  95695770.701 6  23369868.180                    23369875.910
 113710194.884 8  88605453.805 7  21638308.820                    21638315.656
 117502375.114 7  91560365.213 7  22359959.367                    22359968.602
 109922175.147 8  85653686.655 7  20917478.023                    20917485.340
 127900037.622 6  99662476.55643  24338578.148                    24338584.938
 119093223.448 7  92800012.99645  22662663.859                    22662668.703
 11  8 21  3 14  0.0000000  0 10G15G26G30G18G12G05G25G29G21G02
 117429048.614 7  91503173.627 7  22345986.648                    22345993.570
 114290995.938 7  89057995.60545  21748848.336                    21748855.891
 119680124.147 7  93257310.16644  22774368.281                    22774376.367
 126621662.714 6  98666267.18643  24095300.102                    24095308.113
 122902710.936 7  95768402.525 6  23387605.484                    23387613.230
 113784379.260 8  88663259.811 7  21652425.898                    21652432.711
 117562896.967 7  91607525.088 7  22371476.703                    22371486.672
 109865985.877 8  85609902.830 7  20906785.719                    20906792.750
 127843033.317 6  99618057.68644  24327729.578                    24327737.387
 119142515.339 7  92838422.23744  22672043.516                    22672048.426
 11  8 21  3 14 30.0000000  0 10G15G26G30G18G12G05G25G29G21G02
 117341894.867 7  91435261.656 7  22329401.969                    22329408.551
 114232772.761 7  89012626.93645  21737768.719                    21737776.102
 119751017.628 7  93312551.83944  22787858.813                    22787866.809
 126538740.482 6  98601652.59643  24079519.828                    24079528.945
 122995988.550 6  95841086.350 6  23405355.047                    23405363.676
 113858799.510 8  88721249.628 7  21666587.586                    21666594.016
 117623766.655 7  91654955.992 7  22383059.477                    22383069.777
 109810146.636 8  85566391.745 7  20896159.570                    20896166.438
 127785997.209 6  99573614.02943  24316876.477                    24316883.645
 119191915.826 7  92876916.10545  22681444.836                    22681449.387
 11  8 21  3 15  0.0000000  0 10G15G26G30G18G12G05G25G29G21G02
 117254980.623 7  91367536.316 7  22312862.898                    22312869.887
 114175057.812 7  88967654.28645  21726785.906                    21726793.582
 119822181.395 7  93368004.09544  22801400.734                    22801409.160
 126456024.934 6  98537199.05743  24063779.969                    24063788.297
 123089329.846 7  95913819.785 6  23423118.000                    23423126.301
 113933453.488 8  88779421.570 7  21680793.992                    21680800.285
 117684981.547 7  91702655.873 7  22394708.344                    22394718.273
 109754660.358 8  85523155.689 7  20885601.234                    20885608.051
 127728929.388 6  99529145.65043  24306016.055                    24306024.254
 119241425.614 7  92915495.15445  22690865.914                    22690870.500
 11  8 21  3 15 30.0000000  0 10G15G26G30G18G12G05G25G29G21G02
 117168308.544 7  91299999.677 7  22296369.203                    22296376.461
 114117853.994 7  88923079.92245  21715900.453                    21715907.922
 119893612.291 7  93423664.51744  22814993.883                    22815001.977
 126373516.807 6  98472907.07243  24048079.500                    24048087.621
 123182732.340 6  95986600.915 6  23440892.281                    23440899.895
 114008338.626 8  88837773.633 7  21695044.000                    21695050.441
 117746538.625 7  91750622.405 7  22406422.258                    22406431.770
 109699529.012 7  85480196.216 7  20875110.148                    20875116.504
 127671828.759 6  99484651.71943  24295151.055                    24295158.004
 119291045.299 7  92954159.82745  22700308.352                    22700313.219
 11  8 21  3 16  0.0000000  0 10G15G26G30G18G12G05G25G29G21G02
 117081881.411 7  91232653.904 7  22279922.695                    22279929.777
 114061163.969 7  88878905.90645  21705112.641                    21705119.941
 119965306.701 7  93479530.26744  22828636.742                    22828644.688
 126291216.889 7  98408777.38543  24032418.492                    24032426.074
 123276192.169 6  96059426.716 6  23458676.391                    23458684.781
 114083452.275 8  88896303.751 7  21709337.617                    21709344.184
 117808434.621 7  91798853.048 7  22418200.664                    22418210.820
 109644754.100 8  85437514.481 7  20864686.625                    20864693.395
 127614694.720 6  99440131.77044  24284278.188                    24284285.672
 119340774.922 7  92992910.17145  22709771.578                    22709776.648
 11  8 21  3 16 30.0000000  0 10G15G26G30G18G12G05G25G29G21G02
 116995702.624 7  91165501.640 7  22263523.430                    22263530.578
 114004991.454 7  88835135.15045  21694423.313                    21694430.512
 120037261.888 7  93535599.20844  22842329.555                    22842337.824
 126209126.164 6  98344810.71543  24016796.922                    24016804.707
 123369706.632 6  96132295.072 6  23476472.023                    23476479.852
 114158792.334 8  88955010.302 7  21723674.469                    21723681.387
 117870667.151 7  91847345.894 7  22430043.148                    22430053.273
 109590338.733 8  85395112.896 7  20854331.578                    20854338.281
 127557527.301 6  99395585.79743  24273399.703                    24273406.859
 119390615.493 7  93031746.96045  22719255.539                    22719260.969
 11  8 21  3 17  0.0000000  0 10G15G26G30G18G12G05G25G29G21G02
 116909775.138 7  91098545.194 7  22247171.891                    22247179.133
 113949339.113 7  88791769.72645  21683832.961                    21683840.398
 120109474.425 7  93591868.71745  22856070.945                    22856079.102
 126127246.149 6  98281008.23743  24001215.156                    24001223.559
 123463272.807 7  96205203.744 6  23494277.313                    23494284.531
 114234356.110 8  89013891.172 7  21738053.836                    21738060.668
 117933233.027 7  91896098.508 7  22441949.203                    22441959.035
 109536284.871 8  85352993.020 7  20844045.672                    20844052.441
 127500326.049 6  99351013.44143  24262514.242                    24262521.535
 119440567.029 7  93070670.22545  22728761.156                    22728766.344
